[[{"header":{"parameterUnit":"m.s-1","parameterCategory":1,"la1":30.6,"la2":29.2853,"lo1":-89.7004,"lo2":-87.6739,"dy":0.0162,"dx":0.0183,"nx":112,"ny":82,"refTime":"2024-09-04T06:00:00:Z","depth":0,"parameterNumber":2,"parameterNumberName":"U-component_of_WINDS"},"data":[0.0,0.0,0.0,0.0,0.0,0.0,0.0,0.0,0.0,0.0,0.0,0.0,0.0,0.0,0.0,0.0,0.0,0.0,0.0,0.0,0.0,0.0,0.0,0.0,0.0,0.0,0.0,0.0,0.0,0.0,0.0,0.0,0.0,0.0,0.0,0.0,0.0,0.0,0.0,0.0,0.0,0.0,0.0,0.0,0.0,0.0,0.0,0.0,0.0,0.0,0.0,0.0,0.0,0.0,0.0,0.0,0.0,0.0,0.0,0.0,0.0,0.0,0.0,0.0,0.0,0.0,0.0,0.0,0.0,0.0,0.0,0.0,0.0,0.0,0.0,0.0,0.0,0.0,0.0,0.0,0.0,0.0,0.0,0.0,0.0,0.0,0.0,0.0,0.0,0.0,1.4716,1.5391,1.5678,1.5832,1.5832,1.5832,1.5351,1.4222,0.0,0.0,0.0,0.0,0.0,0.0,0.0,0.0,0.0,0.0,0.0,0.0,0.0,0.0,0.0,0.0,0.0,0.0,0.0,0.0,0.0,0.0,0.0,0.0,0.0,0.0,0.0,0.0,0.0,0.0,0.0,0.0,0.0,0.0,0.0,0.0,0.0,0.0,0.0,0.0,0.0,0.0,0.0,0.0,0.0,0.0,0.0,0.0,0.0,0.0,0.0,0.0,0.0,0.0,0.0,0.0,0.0,0.0,0.0,0.0,0.0,0.0,0.0,0.0,0.0,0.0,0.0,0.0,0.0,0.0,0.0,0.0,0.0,0.0,0.0,0.0,0.0,0.0,0.0,0.0,0.0,0.0,0.0,0.0,0.0,0.0,0.0,0.0,0.0,0.0,0.0,0.0,0.0,0.0,0.0,0.0,0.0,0.0,0.0,0.0,0.0,0.0,0.0,0.0,1.4569,1.5651,1.5805,1.5832,1.5832,1.5832,1.5438,1.4516,0.0,0.0,0.0,0.0,0.0,0.0,0.0,0.0,0.0,0.0,0.0,0.0,0.0,0.0,0.0,0.0,0.0,0.0,0.0,0.0,0.0,0.0,0.0,0.0,0.0,0.0,0.0,0.0,0.0,0.0,0.0,0.0,0.0,0.0,0.0,0.0,0.0,0.0,0.0,0.0,0.0,0.0,0.0,0.0,0.0,0.0,0.0,0.0,0.0,0.0,0.0,0.0,0.0,0.0,0.0,0.0,0.0,0.0,0.0,0.0,0.0,0.0,0.0,0.0,0.0,0.0,0.0,0.0,0.0,0.0,0.0,0.0,0.0,0.0,0.0,0.0,0.0,0.0,0.0,0.0,0.0,0.0,0.0,0.0,0.0,0.0,0.0,0.0,0.0,0.0,0.0,0.0,0.0,0.0,0.0,0.0,0.0,0.0,0.0,0.0,0.0,0.0,0.0,1.4309,1.489,1.5738,1.5832,1.5832,1.5832,1.5832,1.5384,1.4349,1.3734,0.0,0.0,0.0,0.0,0.0,0.0,0.0,0.0,0.0,0.0,0.0,0.0,0.0,0.0,0.0,0.0,0.0,0.0,0.0,0.0,0.0,0.0,0.0,0.0,0.0,0.0,0.0,0.0,0.0,0.0,0.0,0.0,0.0,0.0,0.0,0.0,0.0,0.0,0.0,0.0,0.0,0.0,0.0,0.0,0.0,0.0,0.0,0.0,0.0,0.0,0.0,0.0,0.0,0.0,0.0,0.0,0.0,0.0,0.0,0.0,0.0,0.0,0.0,0.0,0.0,0.0,0.0,0.0,0.0,0.0,0.0,0.0,0.0,0.0,0.0,0.0,0.0,0.0,0.0,0.0,0.0,0.0,0.0,0.0,0.0,0.0,0.0,0.0,0.0,0.0,0.0,0.0,0.0,0.0,0.0,0.0,0.0,0.0,0.0,0.0,0.0,0.0,1.4997,1.5337,1.5785,1.5832,1.5832,1.5832,1.5705,1.5184,1.4155,1.34,0.0,0.0,0.0,0.0,0.0,0.0,0.0,0.0,0.0,0.0,0.0,0.0,0.0,0.0,0.0,0.0,0.0,0.0,0.0,0.0,0.0,0.0,0.0,0.0,0.0,0.0,0.0,0.0,0.0,0.0,0.0,0.0,0.0,0.0,0.0,0.0,0.0,0.0,0.0,0.0,0.0,0.0,0.0,0.0,0.0,0.0,0.0,0.0,0.0,0.0,0.0,0.0,0.0,0.0,0.0,0.0,0.0,0.0,0.0,0.0,0.0,0.0,0.0,0.0,0.0,0.0,0.0,0.0,0.0,0.0,0.0,0.0,0.0,0.0,0.0,0.0,0.0,0.0,0.0,0.0,0.0,0.0,0.0,0.0,0.0,0.0,0.0,0.0,0.0,0.0,0.0,0.0,0.0,0.0,0.0,0.0,0.0,0.0,0.0,0.0,0.0,0.0,1.5097,1.5785,1.5825,1.5832,1.5832,1.5832,1.5337,1.4756,1.4128,1.3006,0.0,0.0,0.0,0.0,0.0,0.0,0.0,0.0,0.0,0.0,0.0,0.0,0.0,0.0,0.0,0.0,0.0,0.0,0.0,0.0,0.0,0.0,0.0,0.0,0.0,0.0,0.0,0.0,0.0,0.0,0.0,0.0,0.0,0.0,0.0,0.0,0.0,0.0,0.0,0.0,0.0,0.0,0.0,0.0,0.0,0.0,0.0,0.0,0.0,0.0,0.0,0.0,0.0,0.0,0.0,0.0,0.0,0.0,0.0,0.0,0.0,0.0,0.0,0.0,0.0,0.0,0.0,0.0,0.0,0.0,0.0,0.0,0.0,0.0,0.0,0.0,0.0,0.0,0.0,0.0,0.0,0.0,0.0,0.0,0.0,0.0,0.0,0.0,0.0,0.0,0.0,0.0,0.0,0.0,0.0,0.0,0.0,0.0,0.0,0.0,0.0,0.0,1.479,1.5431,1.5792,1.5832,1.5832,1.5832,1.5464,1.4823,1.3874,0.0,0.0,0.0,0.0,0.0,0.0,0.0,0.0,0.0,0.0,0.0,0.0,0.0,0.0,0.0,0.0,0.0,0.0,0.0,0.0,0.0,0.0,0.0,0.0,0.0,0.0,0.0,0.0,0.0,0.0,0.0,0.0,0.0,0.0,0.0,0.0,0.0,0.0,0.0,0.0,0.0,0.0,0.0,0.0,0.0,0.0,0.0,0.0,0.0,0.0,0.0,0.0,0.0,0.0,0.0,0.0,0.0,0.0,0.0,0.0,0.0,0.0,0.0,0.0,0.0,0.0,0.0,0.0,0.0,0.0,0.0,0.0,0.0,0.0,0.0,0.0,0.0,0.0,0.0,0.0,0.0,0.0,0.0,0.0,0.0,0.0,0.0,0.0,0.0,0.0,0.0,0.0,0.0,0.0,0.0,0.0,0.0,0.0,0.0,0.0,0.0,0.0,1.3871,1.4763,1.5391,1.5785,1.5832,1.5832,1.5832,1.5391,1.4696,1.3625,0.0,0.0,0.0,0.0,0.0,0.0,0.0,0.0,0.0,0.0,0.0,0.0,0.0,0.0,0.0,0.0,0.0,0.0,0.0,0.0,0.0,0.0,0.0,0.0,0.0,0.0,0.0,0.0,0.0,0.0,0.0,0.0,0.0,0.0,0.0,0.0,0.0,0.0,0.0,0.0,0.0,0.0,0.0,0.0,0.0,0.0,0.0,0.0,0.0,0.0,0.0,0.0,0.0,0.0,0.0,0.0,0.0,0.0,0.0,0.0,0.0,0.0,0.0,0.0,0.0,0.0,0.0,0.0,0.0,0.0,0.0,0.0,0.0,0.0,0.0,0.0,0.0,0.0,0.0,0.0,0.0,0.0,0.0,0.0,0.0,0.0,0.0,0.0,0.0,0.0,0.0,0.0,0.0,0.0,0.0,0.0,0.0,0.0,0.0,0.0,0.0,0.0,1.3924,1.5104,1.5737,1.5737,1.5825,1.5825,1.5737,1.503,1.4275,0.0,0.0,0.0,0.0,0.0,0.0,0.0,0.0,0.0,0.0,0.0,0.0,0.0,0.0,0.0,0.0,0.0,0.0,0.0,0.0,0.0,0.0,0.0,0.0,0.0,0.0,0.0,0.0,0.0,0.0,0.0,0.0,0.0,0.0,0.0,0.0,0.0,0.0,0.0,0.0,0.0,0.0,0.0,0.0,0.0,0.0,0.0,0.0,0.0,0.0,0.0,0.0,0.0,0.0,0.0,0.0,0.0,0.0,0.0,0.0,0.0,0.0,0.0,0.0,0.0,0.0,0.0,0.0,0.0,0.0,0.0,0.0,0.0,0.0,0.0,0.0,0.0,0.0,0.0,0.0,0.0,0.0,0.0,0.0,0.0,0.0,0.0,0.0,0.0,0.0,0.0,0.0,0.0,0.0,0.0,0.0,0.0,0.0,0.0,0.0,0.0,0.0,0.0,1.2711,1.389,1.4459,1.4459,1.5242,1.5439,1.4555,1.4741,1.4409,1.34,0.0,0.0,0.0,0.0,0.0,0.0,0.0,0.0,0.0,0.0,0.0,0.0,0.0,0.0,0.0,0.0,0.0,0.0,0.0,0.0,0.0,0.0,0.0,0.0,0.0,0.0,0.0,0.0,0.0,0.0,0.0,0.0,0.0,0.0,0.0,0.0,0.0,0.0,0.0,0.0,0.0,0.0,0.0,0.0,0.0,0.0,0.0,0.0,0.0,0.0,0.0,0.0,0.0,0.0,0.0,0.0,0.0,0.0,0.0,0.0,0.0,0.0,0.0,0.0,0.0,0.0,0.0,0.0,0.0,0.0,0.0,0.0,0.0,0.0,0.0,0.0,0.0,0.0,0.0,0.0,0.0,0.0,0.0,0.0,0.0,0.0,0.0,0.0,0.0,0.0,0.0,0.0,0.0,0.0,0.0,0.0,0.0,0.0,0.0,0.0,0.0,0.0,1.1503,1.2595,1.3102,1.3102,1.4268,1.4752,1.3974,1.4638,1.4636,1.346,0.0,0.0,0.0,0.0,0.0,0.0,0.0,0.0,0.0,0.0,0.0,0.0,0.0,0.0,0.0,0.0,0.0,0.0,0.0,0.0,0.0,0.0,0.0,0.0,0.0,0.0,0.0,0.0,0.0,0.0,0.0,0.0,0.0,0.0,0.0,0.0,0.0,0.0,0.0,0.0,0.0,0.0,0.0,0.0,0.0,0.0,0.0,0.0,0.0,0.0,0.0,0.0,0.0,0.0,0.0,0.0,0.0,0.0,0.0,0.0,0.0,0.0,0.0,0.0,0.0,0.0,0.0,0.0,0.0,0.0,0.0,0.0,0.0,0.0,0.0,0.0,0.0,0.0,0.0,0.0,0.0,0.0,0.0,0.0,0.0,0.0,0.0,0.0,0.0,0.0,0.0,0.0,0.0,0.0,0.0,0.0,0.0,0.0,0.0,0.0,0.0,0.0,1.0297,1.1208,1.1755,1.1755,1.2909,1.3686,1.3686,1.4603,1.4814,1.3672,0.0,0.0,0.0,0.0,0.0,0.0,0.0,0.0,0.0,0.0,0.0,0.0,0.0,0.0,0.0,0.0,0.0,0.0,0.0,0.0,0.0,0.0,0.0,0.0,0.0,0.0,0.0,0.0,0.0,0.0,0.0,0.0,0.0,0.0,0.0,0.0,0.0,0.0,0.0,0.0,0.0,0.0,0.0,0.0,0.0,0.0,0.0,0.0,0.0,0.0,0.0,0.0,0.0,0.0,0.0,0.0,0.0,0.0,0.0,0.0,1.3594,1.3333,0.0,0.0,0.0,0.0,0.0,0.0,0.0,0.0,0.0,0.0,0.0,0.0,0.0,0.0,0.0,0.0,0.0,0.0,0.0,0.0,0.0,0.0,0.0,0.0,0.0,0.0,0.0,0.0,0.0,0.0,0.0,0.0,0.0,0.0,0.0,0.0,0.0,0.0,0.0,0.0,0.9196,1.0001,1.0386,1.0386,1.1556,1.2334,1.2334,1.3259,1.3876,1.3964,1.344,0.0,0.0,0.0,0.0,0.0,0.0,0.0,0.0,0.0,0.0,0.0,0.0,0.0,0.0,0.0,0.0,0.0,0.0,0.0,0.0,0.0,0.0,0.0,0.0,0.0,0.0,0.0,0.0,0.0,0.0,0.0,0.0,0.0,0.0,0.0,0.0,0.0,0.0,0.0,0.0,0.0,0.0,0.0,0.0,0.0,0.0,0.0,0.0,0.0,0.0,0.0,0.0,0.0,0.0,0.0,0.0,0.0,0.0,0.0,1.4509,1.4222,0.0,0.0,0.0,0.0,0.0,0.0,0.0,0.0,0.0,0.0,0.0,0.0,0.0,0.0,0.0,0.0,0.0,0.0,0.0,0.0,0.0,0.0,0.0,0.0,0.0,0.0,0.0,0.0,0.0,0.0,0.0,0.0,0.0,0.0,0.0,0.0,0.0,0.0,0.0,0.0,0.8193,0.8748,0.9019,0.9019,1.0194,1.1268,1.1848,1.2986,1.3871,1.4462,1.3955,0.0,0.0,0.0,0.0,0.0,0.0,0.0,0.0,0.0,0.0,0.0,0.0,0.0,0.0,0.0,0.0,0.0,0.0,0.0,0.0,0.0,0.0,0.0,0.0,0.0,0.0,0.0,0.0,0.0,0.0,0.0,0.0,0.0,0.0,0.0,0.0,0.0,0.0,0.0,0.0,0.0,0.0,0.0,0.0,0.0,0.0,0.0,0.0,0.0,0.0,0.0,0.0,0.0,1.6493,1.6473,1.6146,1.6386,1.6473,1.6366,1.5344,1.515,1.5504,1.497,0.0,0.0,0.0,0.0,0.0,0.0,0.0,0.0,0.0,0.0,0.0,0.0,0.0,0.0,0.0,0.0,0.0,0.0,0.0,0.0,0.0,0.0,0.0,0.0,1.4641,1.4615,1.383,0.0,0.0,0.0,0.0,0.0,0.0,0.0,0.0,0.0,0.0,0.0,0.7377,0.778,0.8038,0.8038,0.9019,1.0194,1.1463,1.2619,1.3679,1.4695,1.4174,1.3736,0.0,0.0,0.0,0.0,0.0,0.0,0.0,0.0,0.0,0.0,0.0,0.0,0.0,0.0,0.0,0.0,0.0,0.0,0.0,0.0,0.0,0.0,0.0,0.0,0.0,0.0,0.0,0.0,0.0,0.0,0.0,0.0,1.6073,1.6117,0.0,0.0,0.0,0.0,0.0,0.0,0.0,0.0,0.0,0.0,0.0,0.0,0.0,1.678,1.7288,1.7602,1.7622,1.7361,1.7929,1.7903,1.7355,1.7395,1.7268,1.7014,1.66,0.0,1.6132,1.5792,0.0,0.0,0.0,0.0,0.0,0.0,0.0,0.0,0.0,0.0,0.0,0.0,0.0,0.0,0.0,0.0,0.0,0.0,0.0,0.0,0.0,0.0,1.3778,1.263,1.2368,1.2362,0.0,1.1865,1.1414,1.1087,0.9091,0.0,0.0,0.0,0.0,0.0,0.0,0.0,0.7546,0.7845,0.8038,0.8038,0.8137,0.8825,1.0096,1.0386,1.1448,1.3461,1.335,1.3514,1.4276,1.3814,0.0,0.0,0.0,0.0,0.0,0.0,0.0,0.0,0.0,0.0,0.0,0.0,0.0,0.0,0.0,0.0,0.0,0.0,0.0,0.0,0.0,0.0,0.0,0.0,0.0,0.0,0.0,0.0,0.0,1.8734,1.8465,1.7874,1.7131,1.6232,0.0,0.0,0.0,0.0,0.0,0.0,0.0,0.0,0.0,1.7181,1.7355,1.7562,1.7822,1.8136,1.823,1.8096,1.8364,1.835,1.8096,1.8096,1.7936,1.7649,1.6641,1.6106,1.5825,1.6203,1.6152,1.5872,0.0,0.0,0.0,0.0,1.5698,1.5725,1.5885,1.5945,1.5838,1.5211,0.0,0.0,0.0,0.0,0.0,0.0,0.0,1.4038,0.0,0.0,1.2619,1.2042,1.1945,1.1945,1.1945,1.1144,1.0439,0.0,0.9402,0.8231,0.7186,0.0,0.0,0.0,0.0,0.7553,0.7699,0.7906,0.8038,0.8038,0.8038,0.8528,0.9899,0.9998,1.1025,1.3518,1.3368,1.3738,1.4927,1.4609,1.4242,0.0,0.0,0.0,0.0,0.0,0.0,0.0,0.0,0.0,0.0,0.0,0.0,0.0,0.0,0.0,0.0,0.0,0.0,0.0,0.0,0.0,0.0,0.0,0.0,0.0,0.0,0.0,0.0,2.0036,1.9749,1.8677,1.8125,1.7115,0.0,0.0,0.0,0.0,0.0,0.0,1.7021,1.7255,1.7549,1.7909,1.8136,1.8283,1.8357,1.8597,1.8711,1.8711,1.8711,1.848,1.813,1.8052,1.7674,1.6906,1.5824,1.5206,1.4939,1.5488,1.5764,1.5978,1.5907,1.5947,1.6079,1.6306,1.6386,1.6413,1.6221,1.6192,1.5989,1.5358,1.5343,1.5371,1.4643,0.0,0.0,0.0,0.0,1.3537,1.3442,1.2425,1.1361,1.0974,1.0877,1.0877,1.0877,1.019,0.9567,0.0,0.9598,0.8886,0.7556,0.0,0.0,0.0,0.0,0.7706,0.7851,0.797,0.8038,0.8038,0.8038,0.8432,0.941,0.9509,1.0578,1.3199,1.3121,1.3784,1.5411,1.5297,1.505,1.475,0.0,0.0,0.0,0.0,0.0,0.0,0.0,0.0,0.0,0.0,0.0,0.0,0.0,0.0,0.0,0.0,0.0,0.0,0.0,0.0,0.0,0.0,0.0,0.0,0.0,0.0,0.0,0.0,0.0,1.783,1.7436,0.0,0.0,0.0,0.0,1.664,1.7168,1.7635,1.7963,1.7989,1.8263,1.8838,1.8871,1.9011,1.9299,1.9319,1.9325,1.9325,1.9325,1.8603,1.7038,1.6789,1.5741,1.4325,1.3992,1.378,1.3553,1.3209,1.3854,1.508,1.473,1.5444,1.666,1.6673,1.6687,1.648,1.516,1.4653,1.4642,1.4601,1.506,1.5745,1.5431,1.5344,0.0,0.0,1.4622,1.3573,1.2328,1.1068,0.9805,0.8528,0.8237,0.8237,0.8237,0.8137,0.8428,0.0,0.9008,0.7974,0.7807,0.0,0.7787,0.778,0.779,0.7855,0.8007,0.8035,0.8038,0.8038,0.8038,0.8038,0.8137,0.8137,0.9213,1.1848,1.1935,1.3091,1.571,1.5792,1.5651,1.5357,1.4776,0.0,0.0,0.0,0.0,0.0,0.0,0.0,0.0,0.0,0.0,0.0,0.0,0.0,0.0,0.0,0.0,0.0,0.0,0.0,0.0,0.0,0.0,0.0,0.0,0.0,0.0,0.0,0.0,1.8731,1.8804,0.0,1.7109,1.7148,1.7348,1.7535,1.7936,1.8384,1.8871,1.9072,1.9359,1.9753,1.9766,1.9726,1.9646,1.9646,1.9553,1.9366,1.9366,1.9127,1.8519,1.7346,1.6385,1.5528,1.3476,1.2414,1.2221,1.2199,1.2864,1.3992,1.4756,1.5461,1.5885,1.5885,1.5885,1.5676,1.4301,1.4301,1.5192,1.5688,1.6032,1.6059,1.5765,1.5671,1.5671,1.5671,1.4201,1.2528,1.2042,1.0288,0.8627,0.8137,0.8038,0.8038,0.8038,0.8038,0.8137,0.8627,0.8333,0.7991,0.7838,0.7892,0.7926,0.7824,0.7896,0.7977,0.8031,0.8038,0.8038,0.8038,0.8038,0.8038,0.8038,0.8038,0.9068,1.1441,1.1622,1.2864,1.5451,1.5551,1.5591,1.5671,1.5104,1.4369,0.0,0.0,0.0,0.0,0.0,0.0,0.0,0.0,0.0,0.0,0.0,0.0,0.0,0.0,0.0,0.0,0.0,0.0,0.0,0.0,0.0,0.0,0.0,0.0,0.0,2.0895,2.0783,1.8796,1.9269,1.9233,1.7882,1.7916,1.8156,1.845,1.8758,1.9145,1.9633,1.9846,2.0034,2.0227,2.0234,2.014,1.9947,1.9853,1.97,1.9512,1.9412,1.9127,1.8525,1.7449,1.6283,1.4956,1.3551,1.2156,1.0949,1.164,1.1912,1.2165,1.4054,1.4786,1.478,1.4696,1.4663,1.4449,1.3048,1.3156,1.4062,1.5027,1.5526,1.5757,1.5873,1.5912,1.573,1.5242,1.3596,1.1755,1.1365,0.9604,0.8038,0.8038,0.8038,0.8038,0.8038,0.8038,0.8038,0.8038,0.8038,0.8007,0.7906,0.7974,0.8004,0.7902,0.7974,0.8038,0.8038,0.8038,0.8038,0.8038,0.8038,0.8038,0.8038,0.7991,0.9002,1.1431,1.1547,1.277,1.5438,1.5444,1.5484,1.5678,1.511,1.4476,1.3794,0.0,0.0,0.0,0.0,0.0,0.0,0.0,0.0,0.0,0.0,0.0,0.0,0.0,0.0,0.0,0.0,0.0,0.0,0.0,0.0,0.0,0.0,0.0,1.8797,1.9336,1.9502,1.7867,1.841,1.8724,1.8156,1.8624,1.9085,1.9372,1.9659,1.994,2.0227,2.0247,2.0254,2.0261,2.0261,2.0254,2.0247,1.9967,1.982,1.9813,1.9519,1.8655,1.7097,1.6968,1.5182,1.2333,1.377,1.2592,0.9734,1.1362,1.1028,0.9722,1.2571,1.3598,1.3467,1.3242,1.3156,1.294,1.1538,1.1105,1.1289,1.2476,1.3506,1.4702,1.5855,1.5963,1.5439,1.4166,1.2909,1.1556,1.0293,0.9019,0.8038,0.8038,0.8038,0.8038,0.8038,0.8038,0.8038,0.8038,0.8038,0.8038,0.8038,0.8038,0.8038,0.8038,0.8038,0.0,0.8038,0.8038,0.8038,0.8038,0.8038,0.8038,0.8038,0.7902,0.8933,1.1726,1.1733,1.2942,1.5704,1.5545,1.5398,1.5411,1.4836,1.4396,1.4115,0.0,0.0,0.0,0.0,0.0,0.0,0.0,0.0,0.0,0.0,0.0,0.0,0.0,0.0,0.0,0.0,0.0,0.0,0.0,0.0,0.0,2.459,2.4216,2.1383,2.1458,2.1071,1.8863,1.9145,1.9499,1.9332,1.9653,1.9907,1.9987,2.0067,2.0241,2.0541,2.0555,2.0655,2.0862,2.0869,2.0768,2.0555,2.0474,2.0327,2.0107,1.982,1.9437,1.8944,1.6465,1.4837,1.3885,1.1976,1.0635,0.9882,1.1427,1.116,0.9898,1.1326,1.1926,1.1904,1.1717,1.1,1.0241,1.0891,1.1105,1.1289,1.2476,1.2987,1.3169,1.3341,1.3204,1.2915,1.2528,1.1556,1.0485,1.0096,0.9019,0.8038,0.8038,0.8038,0.8038,0.8038,0.8038,0.8038,0.8038,0.8038,0.8038,0.8038,0.8038,0.8038,0.8038,0.8038,0.0,0.8038,0.8038,0.8038,0.8038,0.8038,0.8038,0.8038,0.8001,0.901,1.1411,1.1537,1.2764,1.5418,1.5438,1.5491,1.5705,1.5137,1.4803,0.0,0.0,0.0,0.0,0.0,0.0,0.0,0.0,0.0,0.0,0.0,0.0,0.0,0.0,0.0,0.0,0.0,0.0,0.0,0.0,0.0,0.0,2.5149,2.4701,2.3028,2.2831,2.1869,1.9577,1.9593,1.9846,1.9967,2.0134,2.0287,2.0408,2.0421,2.0548,2.0842,2.0855,2.0935,2.1109,2.1109,2.1029,2.0862,2.0735,2.0588,2.0414,2.012,1.9548,1.869,1.672,1.4924,1.3531,1.2333,1.102,0.994,1.1499,1.1257,0.0,0.0,0.0,0.0,0.0,0.9588,0.9047,0.9915,1.0131,1.0441,1.1621,1.1976,1.1888,1.2279,1.2229,1.1885,1.1392,1.0645,0.9899,0.9312,0.8627,0.8038,0.8038,0.8038,0.8038,0.8038,0.8038,0.8038,0.8038,0.8038,0.0,0.8038,0.8038,0.8038,0.8038,0.8038,0.8038,0.8038,0.8038,0.8038,0.8038,0.8038,0.8038,0.8038,0.8466,0.0,0.0,0.0,1.3304,1.5299,1.5398,0.0,0.0,0.0,0.0,0.0,0.0,0.0,0.0,1.7091,1.8637,0.0,0.0,0.0,0.0,0.0,0.0,0.0,0.0,0.0,0.0,0.0,0.0,0.0,0.0,0.0,0.0,2.5816,2.4845,2.4069,2.3562,2.2479,2.0087,1.9826,1.996,2.0254,2.0314,2.0441,2.0702,2.0728,2.0842,2.1096,2.1109,0.0,0.0,0.0,2.1109,2.1109,2.0855,2.0728,2.0722,2.0421,1.9274,1.7431,1.7282,1.5335,1.2276,1.3573,1.2487,0.9964,1.1386,1.114,0.9923,1.1161,1.0751,0.932,0.9042,0.894,0.894,0.894,0.0,0.0,1.0457,1.0662,1.0728,1.1986,1.2122,1.1496,1.0369,0.9854,0.9537,0.834,0.8038,0.8038,0.8038,0.8038,0.8038,0.8038,0.8038,0.8038,0.8038,0.8038,0.8038,0.8038,0.8038,0.8038,0.8038,0.8038,0.8038,0.8038,0.8038,0.8038,0.8038,0.0,0.0,0.8038,0.9073,1.0395,1.1838,1.3199,1.4403,1.5444,1.5478,1.5618,1.5872,1.5912,1.6186,1.6707,1.674,1.676,1.6747,1.7743,1.9256,0.0,0.0,0.0,0.0,0.0,0.0,0.0,0.0,0.0,0.0,0.0,0.0,0.0,0.0,0.0,2.7256,2.7554,2.689,2.4934,2.4631,2.3386,2.0162,2.0007,2.0261,2.0561,2.0802,2.0962,2.1022,2.1029,2.1049,2.1109,2.1109,2.1109,2.1109,2.1109,2.1109,2.1109,2.1056,2.1029,2.1022,0.0,0.0,1.7972,1.6387,1.4547,1.2528,1.1406,1.0493,0.9995,1.0236,1.0061,0.9795,0.9877,0.9673,0.9174,0.9001,0.894,0.894,0.894,0.894,0.8937,0.9265,0.9265,0.9137,0.9452,0.9315,0.0,0.8805,0.8649,0.8498,0.8072,0.8038,0.8038,0.8038,0.8038,0.8038,0.8038,0.8038,0.8038,0.8038,0.8038,0.8038,0.8038,0.8038,0.8038,0.8038,0.8038,0.8038,0.8038,0.8038,0.8038,0.8038,0.8038,0.8038,0.8038,0.9186,1.0542,1.1848,1.413,1.5455,1.5745,1.5972,1.6132,1.6186,1.642,1.6593,1.6707,1.6947,1.7061,1.7163,1.839,1.9805,0.0,0.0,0.0,0.0,0.0,0.0,0.0,0.0,0.0,0.0,0.0,2.4941,2.5596,0.0,2.7305,2.8154,2.7297,2.6204,2.5078,2.3504,2.1991,2.047,2.0368,2.0575,2.0862,2.1022,2.1109,2.1109,2.1109,2.1109,2.1109,2.1109,2.1109,2.1109,2.1109,2.1109,2.1109,2.1109,2.1109,2.1109,2.0962,1.9914,1.8119,1.6348,1.448,1.2641,1.0944,1.0164,1.0151,0.9998,1.0372,1.0876,0.9933,0.9859,1.0258,0.9321,0.9439,0.9915,0.9154,0.894,0.894,0.894,0.8889,0.8825,0.8825,0.8716,0.8581,0.8509,0.8384,0.8252,0.8174,0.8099,0.8038,0.8038,0.8038,0.8038,0.8038,0.8038,0.8038,0.8038,0.8038,0.8038,0.8038,0.8038,0.8038,0.8038,0.8038,0.8038,0.8038,0.8038,0.8038,0.8038,0.8038,0.8233,0.892,1.0774,1.2522,1.3788,1.5051,1.5899,1.6046,1.6192,1.6413,1.6707,1.6854,1.7001,1.7141,1.7295,1.7368,1.7472,1.8781,2.0187,0.0,0.0,0.0,0.0,0.0,0.0,0.0,2.3525,2.3994,2.4766,2.5332,2.6016,2.707,2.7685,2.8291,2.9043,2.7137,2.5386,2.5101,2.2647,2.0856,2.0728,2.0715,2.0795,2.1082,2.1109,2.1109,2.1109,2.1109,2.1109,2.1109,2.1109,2.1109,2.1109,2.1109,2.1109,2.1109,2.1109,2.1109,2.1109,2.1109,2.008,1.8321,1.6915,1.5169,1.3383,1.1968,1.1184,1.077,1.0603,1.1072,1.1651,1.0535,1.0832,1.1791,1.0228,1.0274,1.0891,0.9699,0.9154,0.894,0.894,0.894,0.894,0.894,0.8852,0.875,0.872,0.854,0.835,0.8319,0.8201,0.8082,0.8082,0.8062,0.8038,0.8038,0.8038,0.8038,0.8038,0.8038,0.8038,0.8038,0.8038,0.8038,0.8038,0.8038,0.8038,0.8038,0.8038,0.8137,0.8333,0.8432,0.9019,1.0578,1.2711,1.4459,1.573,1.5832,1.5965,1.6259,1.6326,1.6607,1.7141,1.7201,1.7348,1.7582,1.7582,1.7582,1.7687,1.922,2.0641,2.2461,2.2441,2.2627,2.3389,2.3896,2.4512,0.0,2.5986,2.6162,2.6631,2.7363,2.7978,2.8125,2.8809,2.9512,2.998,2.8561,2.7055,2.6052,2.4301,2.2616,2.1182,2.0828,2.0795,2.1082,2.1109,2.1109,2.1109,2.1109,2.1109,2.1109,2.1109,2.1109,2.1109,2.1109,2.1109,2.1109,2.1109,2.1109,2.1109,2.1109,2.0176,1.8465,1.8332,1.7284,1.5574,1.5248,1.4178,1.2637,1.2448,1.1503,1.05,1.1538,1.2772,1.3702,1.1725,1.104,1.1109,1.0891,1.0025,0.894,0.894,0.894,0.894,0.894,0.8927,0.8882,0.875,0.8686,0.8628,0.8492,0.835,0.8245,0.8245,0.814,0.8038,0.8038,0.8038,0.8038,0.8038,0.8038,0.8038,0.8038,0.8038,0.8038,0.8038,0.8038,0.8038,0.8038,0.8038,0.8432,0.9608,0.9805,1.0774,1.3295,1.368,1.4459,1.573,1.5832,1.5965,1.6259,1.652,1.6814,1.7141,1.7402,1.7549,1.7582,1.7582,1.7582,1.7687,2.0231,2.155,2.3125,2.3437,2.3769,2.4385,2.4863,2.5391,2.6201,2.6387,2.6582,2.7256,2.7871,2.8447,2.8945,2.9531,3.0078,3.0527,2.9259,2.7626,2.6202,2.4655,2.2959,2.1355,2.1002,2.0975,2.1096,2.1109,2.1109,2.1109,2.1109,2.1109,2.1109,2.1109,2.1109,2.1109,2.1109,2.1109,2.1109,2.1109,2.1109,2.1109,2.1109,2.0716,1.9935,1.8896,1.7602,1.5908,1.5812,1.5268,1.4313,1.3343,1.2931,1.2847,1.2407,1.3145,1.4099,1.3107,1.3315,1.3655,1.1796,1.0672,1.0025,0.9154,0.894,0.894,0.894,0.894,0.8923,0.8862,0.8777,0.8696,0.8632,0.8506,0.8394,0.8394,0.8343,0.8296,0.8296,0.8231,0.8174,0.8174,0.8102,0.8038,0.8038,0.8627,0.9118,0.9118,0.8531,0.8233,0.9019,0.9118,0.9706,1.0974,1.1843,1.2716,1.3782,1.4561,1.5313,1.6079,1.6086,1.6299,1.676,1.6901,1.7101,1.7395,1.7522,1.7582,1.7582,1.7582,1.7582,1.7687,1.962,2.1051,2.3584,2.4092,2.4551,2.5107,2.5674,2.6201,2.6641,2.6826,2.709,2.7715,2.8174,2.8691,2.9434,2.9912,3.0342,3.081,2.9131,2.7435,2.6114,2.4247,2.2566,2.1242,2.1109,2.1109,2.1109,2.1109,2.1142,2.1223,2.1229,2.1269,2.1343,2.1349,2.1316,2.1236,2.1229,2.1189,2.1109,2.1109,2.1109,2.1109,2.1109,2.1109,2.1109,1.9807,1.8506,1.7339,1.7339,1.6984,1.618,1.4969,1.476,1.4966,1.4118,1.4365,1.5104,1.5276,1.535,1.4988,1.2559,1.1511,1.1063,0.993,0.9265,0.894,0.894,0.894,0.894,0.894,0.8859,0.8774,0.8774,0.8659,0.8547,0.8547,0.8513,0.8482,0.8482,0.8401,0.833,0.833,0.8208,0.8199,0.8592,0.9482,1.0272,1.0569,0.9921,0.9618,1.04,1.0877,1.1477,1.2417,1.3727,1.452,1.4667,1.5403,1.6079,1.6373,1.6393,1.662,1.723,1.7148,1.7288,1.7575,1.7582,1.7582,1.7582,1.7582,1.7833,1.8429,1.9769,2.1283,2.3662,2.4092,2.4629,2.5498,2.6357,2.709,2.7529,2.7939,2.8242,2.8271,2.8603,2.9033,2.9482,2.9912,3.0342,3.081,2.8371,2.6372,2.6026,2.3458,2.1558,2.1142,2.1109,2.1109,2.1109,2.1109,2.1229,2.1516,2.1537,2.1663,2.1944,2.1957,2.183,2.155,2.1537,2.1403,2.1109,2.1109,2.1109,2.1109,2.1109,2.1109,2.1109,2.1109,2.0982,2.0976,2.0976,1.9935,1.8349,1.8218,1.7217,1.5766,1.6802,1.7218,1.7386,1.841,1.6762,1.3891,1.3558,1.2594,1.1454,1.1164,1.0021,0.894,0.894,0.894,0.894,0.894,0.8933,0.893,0.893,0.8818,0.8703,0.8703,0.8587,0.8482,0.8482,0.8479,0.8476,0.8476,0.836,0.8663,0.9957,1.026,1.0865,1.2169,1.2552,1.243,1.1903,1.3006,1.3876,1.4219,1.5107,1.5963,1.6527,1.642,1.6386,1.6673,1.6693,1.6834,1.7141,1.7148,1.7288,1.7575,1.7582,1.7582,1.7582,1.7582,1.8457,2.0212,2.1571,2.322,2.4092,2.4736,2.5498,2.6367,2.7021,2.7559,2.7988,2.8193,2.8291,2.8291,2.8633,2.8965,2.9111,2.9717,3.0342,3.081,2.9259,2.7693,2.6827,2.481,2.2992,2.1565,2.1577,2.1617,2.1423,2.1223,2.1229,2.153,2.155,2.1677,2.1971,2.1984,2.1944,2.1844,2.1844,2.179,2.169,2.1496,2.1403,2.1403,2.1203,2.1109,2.1109,2.1109,2.1109,2.1109,2.1109,2.0068,1.85,1.8412,1.8018,1.7342,1.7682,1.7655,1.7446,1.7754,1.7049,1.5946,1.553,1.4277,1.2807,1.1748,1.0224,0.894,0.894,0.894,0.894,0.894,0.894,0.894,0.894,0.8899,0.8862,0.8862,0.8821,0.8998,0.9958,1.0186,1.0416,1.1353,1.1408,1.1373,1.188,1.2689,1.3808,1.5032,1.4595,1.4078,1.3807,1.4991,1.5834,1.5831,1.6163,1.6493,1.6687,1.6613,1.6687,1.6981,1.7001,1.7134,1.7422,1.7442,1.7482,1.7582,1.7782,1.7889,1.7889,1.809,1.8972,2.055,2.1932,2.3477,2.4492,2.5185,2.5937,2.6797,2.7344,2.7773,2.8193,2.8291,2.8252,2.8096,2.8281,2.8516,2.8672,2.9268,2.999,3.0762,2.9999,2.8897,2.7375,2.5849,2.4123,2.2153,2.2024,2.2024,2.1737,2.163,2.1657,2.185,2.1864,2.1991,2.2285,2.2298,2.2251,2.2144,2.2138,2.2091,2.1984,2.1804,2.1657,2.155,2.1249,2.1109,2.1109,2.1109,2.1109,2.1109,2.1109,2.0456,1.9419,1.9419,1.9314,1.9148,1.9056,1.8803,1.8592,1.8394,1.8095,1.7867,1.6738,1.5648,1.4489,1.2847,1.1247,0.9672,0.9126,0.8981,0.894,0.894,0.894,0.894,0.894,0.894,0.894,0.894,0.9265,0.9915,1.0891,1.1441,1.1986,1.2936,1.2975,1.3029,1.355,1.4789,1.596,1.6899,1.6279,1.5685,1.5493,1.6186,1.6747,1.6854,1.6767,1.6787,1.7001,1.6921,1.6987,1.7288,1.7301,1.7388,1.7575,1.7689,1.7749,1.7749,1.805,1.8203,1.8203,1.8927,2.0143,2.1643,2.3038,2.4615,2.4844,2.541,2.5967,2.6807,2.7344,2.7773,2.8164,2.8262,2.8135,2.7725,2.7627,2.7754,2.8154,2.8603,2.9346,3.0644,3.055,2.9568,2.7935,2.6542,2.4905,2.2889,2.2478,2.2372,2.2084,2.2318,2.2478,2.2465,2.2438,2.2545,2.2846,2.2859,2.2732,2.2452,2.2438,2.2305,2.2031,2.2017,2.1857,2.155,2.1269,2.1122,2.1109,2.1109,2.1109,2.1109,2.1109,2.1109,2.1109,2.1109,2.1109,2.1082,2.0808,2.0688,2.0608,2.0054,1.9826,1.9476,1.7377,1.6712,1.6413,1.4582,1.2895,1.1393,0.9825,0.9167,0.9058,0.894,0.894,0.894,0.894,0.894,0.8937,0.9047,1.0135,1.1105,1.1324,1.2403,1.348,1.348,1.3407,1.3677,1.4949,1.6323,1.7268,1.7542,1.7582,1.7382,1.682,1.6747,1.686,1.7141,1.6921,1.6974,1.7535,1.7328,1.7288,1.7562,1.7595,1.7602,1.7602,1.7903,1.807,1.807,1.8364,1.851,1.8621,2.0012,2.1682,2.3536,2.4933,2.6551,2.4922,2.5635,2.6348,2.6885,2.7344,2.7695,2.7803,2.7822,2.7705,2.7266,2.7178,2.7217,2.7324,2.8203,2.9238,3.0215,3.0223,3.0274,3.0345,2.8059,2.6123,2.5257,2.4233,2.3307,2.3013,2.3253,2.3333,2.3113,2.2679,2.2545,2.2846,2.2859,2.2826,2.2752,2.2746,2.2712,2.2639,2.2418,2.2051,2.155,2.1476,2.1323,2.1109,2.1109,2.1109,2.1109,2.1109,2.1109,2.1109,2.1109,2.1109,2.1102,2.1029,2.0869,2.0661,2.0508,2.0174,1.978,1.9142,1.7965,1.6671,1.6143,1.4815,1.313,1.1418,1.0903,1.0624,0.9296,0.894,0.894,0.894,0.894,0.9154,1.0241,1.0781,1.1647,1.3804,1.4556,1.5204,1.628,1.6442,1.6504,1.6931,1.7252,1.7495,1.7569,1.7582,1.7528,1.7375,1.7361,1.7388,1.7462,1.7402,1.7415,1.7569,1.7515,1.7502,1.7582,1.7802,1.7923,1.7909,1.821,1.8377,1.8377,1.8664,1.9353,2.0427,2.1108,2.2815,2.5448,2.5784,2.6682,2.5244,2.5859,2.6494,2.6914,2.7197,2.7383,2.7383,2.7383,2.7207,2.6582,2.6602,2.6738,2.6738,2.7783,2.8984,3.0029,3.0781,3.1457,3.1652,2.9385,2.7439,2.6707,2.5094,2.3848,2.3547,2.3788,2.3841,2.3547,2.3086,2.2832,2.2859,2.2859,2.2859,2.2859,2.2859,2.2859,2.2859,2.2565,2.2258,2.1931,2.1677,2.1463,2.1296,2.1169,2.1109,2.1109,2.1109,2.1109,2.1109,2.1109,2.1109,2.1109,2.1109,2.1009,2.0848,2.0722,2.0388,1.9973,1.9846,1.9011,1.7802,1.7092,1.6103,1.4955,1.3245,1.2248,1.1486,1.0498,0.9691,0.9117,0.9052,0.9083,0.943,1.0818,1.1603,1.2731,1.4905,1.5956,1.6605,1.747,1.7582,1.7582,1.7582,1.7582,1.7629,1.7762,1.7789,1.7836,1.7963,1.7869,1.7789,1.7789,1.7789,1.7789,1.7789,1.7662,1.7695,1.7963,1.8023,1.8103,1.8217,1.9154,1.9639,1.9639,2.0608,2.1429,2.2299,2.3158,2.448,2.6155,2.6717,2.7378,2.5596,2.6016,2.6406,2.6826,2.6934,2.6934,2.6934,2.6934,2.6699,2.5898,2.6035,2.6299,2.6299,2.7344,2.8633,2.9902,3.1572,3.2661,3.2349,3.0785,2.9159,2.7557,2.5798,2.4444,2.3908,2.4115,2.4122,2.3794,2.3534,2.3253,2.2939,2.2886,2.2859,2.2859,2.2859,2.2859,2.2859,2.2605,2.2458,2.2412,2.1871,2.159,2.1543,2.1243,2.1109,2.1109,2.1109,2.1109,2.1109,2.1109,2.1109,2.1109,2.1109,2.1109,2.1082,2.0828,2.0521,2.0194,1.9947,1.9639,1.9127,1.7806,1.7163,1.673,1.5198,1.3668,1.2382,1.1901,1.0755,0.9694,0.9329,0.9283,0.977,1.1147,1.2496,1.3889,1.5456,1.6832,1.7702,1.7702,1.7669,1.7642,1.7642,1.7642,1.7736,1.8009,1.8083,1.821,1.851,1.829,1.8103,1.8103,1.8103,1.8103,1.8103,1.7856,1.7929,1.8457,1.8283,1.8386,1.8857,2.0337,2.1264,2.1478,2.2991,2.3933,2.4156,2.5489,2.6155,2.6381,2.7726,2.8291,2.5518,2.5791,2.5957,2.6387,2.6494,2.6494,2.6494,2.6494,2.6357,2.584,2.5791,2.585,2.585,2.6904,2.8193,2.9473,3.1143,3.2718,3.4062,3.2942,3.1349,2.9887,2.8113,2.6256,2.4636,2.4529,2.4342,2.3808,2.3721,2.3567,2.326,2.2999,2.2859,2.2859,2.2859,2.2859,2.2859,2.2812,2.2659,2.2412,2.2071,2.1784,2.1543,2.1243,2.1109,2.1109,2.1109,0.0,2.1109,2.1109,2.1109,2.1109,2.1109,2.1109,2.1102,2.1049,2.0695,2.0227,2.0174,1.9813,1.9366,1.912,1.8971,1.8641,1.6869,1.6075,1.5309,1.2506,1.1553,1.1093,0.969,0.9361,1.0051,1.2819,1.3486,1.4309,1.7275,1.811,1.8337,1.8337,1.8136,1.7963,1.7963,1.7963,1.7989,1.8036,1.8257,1.8517,1.8811,1.8597,1.841,1.841,1.841,1.841,1.841,1.8364,1.8377,1.8484,1.8664,1.9332,2.0567,2.1212,2.2053,2.3286,2.3677,2.4378,2.5709,2.5927,2.6717,2.795,2.8174,2.8291,2.574,2.6366,2.6868,2.6527,2.6387,2.6328,2.6103,2.6055,2.5928,2.5478,2.5576,2.5742,2.5742,2.6797,2.7939,2.8769,3.0166,3.1816,3.376,3.259,3.119,3.0344,2.8629,2.6787,2.4777,2.4636,2.4523,2.4242,2.4082,2.3728,2.3113,2.2946,2.2859,2.2859,2.2859,2.2859,2.2859,2.2859,2.2792,2.2645,2.2198,2.1911,2.1764,2.1316,2.1109,2.1109,2.1109,2.1109,2.1109,2.1109,2.1109,2.1109,2.1109,2.1109,2.1109,2.1109,2.0835,2.0441,2.0287,1.9953,1.9573,1.9419,1.9366,1.9223,1.8359,1.7487,1.6512,1.5003,1.3931,1.2862,1.1137,1.0832,1.1318,1.3417,1.4981,1.6507,1.8118,1.849,1.849,1.849,1.8377,1.8277,1.8277,1.8277,1.833,1.8484,1.8624,1.8824,1.9118,1.9032,1.8891,1.8731,1.8718,1.8718,1.8718,1.8577,1.8938,2.0012,2.0131,2.0854,2.245,2.3389,2.4258,2.4931,2.5717,2.6499,2.7276,2.7276,2.7609,2.8291,2.8291,2.8291,2.6119,2.6927,2.7738,2.6527,2.625,2.6133,2.5693,2.5674,2.5605,2.5166,2.543,2.5742,2.5742,2.6719,2.7695,2.8203,2.9365,3.0918,3.2998,3.1854,3.0628,3.0178,2.8582,2.6787,2.4777,2.4636,2.4609,2.4549,2.4215,2.3708,2.2999,2.2899,2.2859,2.2859,2.2859,2.2859,2.2859,2.2859,2.2826,2.2766,2.2238,2.1951,2.1877,2.1349,2.1109,2.1109,2.1109,2.1109,2.1109,2.1109,2.1109,2.1109,2.1109,2.1109,2.1109,2.1109,2.0922,2.0635,2.0334,2.004,1.9753,1.9459,1.9366,1.9366,1.9366,1.8525,1.7443,1.7085,1.6138,1.4677,1.2972,1.2693,1.2958,1.4208,1.6672,1.8664,1.8597,1.8631,1.8677,1.8677,1.8624,1.8584,1.8584,1.8584,1.8657,1.8885,1.8978,1.9105,1.9339,1.9366,1.9279,1.9045,1.9018,1.9018,1.9018,1.8811,1.9527,2.1442,2.1347,2.2204,2.425,2.5489,2.6264,2.6608,2.7726,2.8291,2.8291,2.8291,2.8291,2.8291,2.8291,2.8291,2.6547,2.7108,2.7378,2.6073,2.5791,2.5684,2.5234,2.5449,2.5605,2.5166,2.543,2.5742,2.5742,2.6475,2.7344,2.8164,2.9365,3.082,3.2598,3.1809,3.0839,2.9879,2.8442,2.6787,2.4777,2.4636,2.4529,2.4262,2.3728,2.3374,2.3287,2.3013,2.2859,2.2859,2.2859,2.2859,2.2859,2.2859,2.2726,2.2452,2.2138,2.185,2.1583,2.1256,2.1109,2.1109,2.1109,2.1109,0.0,2.1109,2.1109,2.1109,2.1109,2.1109,2.1109,2.1109,2.0922,2.0635,2.0334,2.004,1.9753,1.9459,1.9366,1.9366,1.9366,1.9249,1.8881,1.7443,1.685,1.6368,1.4811,1.4351,1.4657,1.5918,1.779,1.9212,1.8945,1.9092,1.9285,1.9285,1.9072,1.8885,1.8885,1.8885,1.8891,1.8918,1.9152,1.9339,1.9366,1.9366,1.9359,1.9332,1.9325,1.9325,1.9325,1.9299,1.9977,2.1472,2.1556,2.2887,2.5818,2.6045,2.6717,2.8067,2.8184,2.8291,2.8291,2.8291,2.8291,2.8291,2.8291,2.8291,2.7728,2.8217,2.8412,2.7125,2.6294,2.5693,2.5518,2.5605,2.5684,2.5508,2.5615,2.582,2.6084,2.6611,2.7217,2.7822,2.8555,2.9658,3.1406,3.0419,2.9476,2.9261,2.792,2.635,2.4743,2.4636,2.4516,2.4222,2.3661,2.3327,2.3327,2.3033,2.2859,2.2859,2.2859,2.2859,2.2859,2.2859,2.2712,2.2412,2.2124,2.1837,2.1543,2.1243,2.1109,2.1109,2.1109,2.1109,0.0,2.1109,2.1109,2.1109,2.1109,2.1109,2.1109,2.1109,2.1036,2.0895,2.0601,2.0421,2.0247,1.978,1.9746,1.982,1.9472,1.9366,1.9243,1.8642,1.8402,1.8046,1.6497,1.602,1.6116,1.6716,1.8087,1.9332,1.9219,1.9285,1.9366,1.9366,1.9272,1.9192,1.9192,1.9192,1.9192,1.9192,1.9292,1.9366,1.9366,1.9366,1.9366,1.9366,1.9366,1.9366,1.9366,1.9366,2.0371,2.2814,2.2927,2.4267,2.7276,2.7394,2.7726,2.8291,2.8291,2.8291,2.8291,2.8291,2.8291,2.8291,2.8291,2.8291,2.8365,2.8914,2.9131,2.7861,2.6668,2.5703,2.5566,2.5644,2.5742,2.5742,2.584,2.6064,2.6494,2.6924,2.7314,2.7617,2.8232,2.915,3.0508,2.9048,2.8054,2.856,2.6687,2.5193,2.434,2.4329,2.4295,2.4095,2.3607,2.3327,2.3327,2.3033,2.2859,2.2859,2.2859,2.2859,2.2859,2.2859,2.2672,2.2291,2.2084,2.1784,2.1416,2.1203,2.1109,2.1109,2.1109,2.1109,0.0,2.1109,2.1109,2.1109,2.1109,2.1109,2.1109,2.1109,2.1109,2.1069,2.0775,2.0675,2.0595,2.0094,2.0067,2.014,1.9646,1.9492,1.9479,1.9392,1.9366,1.9127,1.8046,1.7683,1.7683,1.7683,1.8525,1.9366,1.9366,1.9366,1.9366,1.9366,1.9366,1.9366,1.9366,1.9366,1.9366,1.9366,1.9366,1.9366,1.9366,1.9366,1.9591,2.004,2.0033,1.9924,1.9482,1.9815,2.1152,2.3599,2.4267,2.5608,2.8184,2.8291,2.8291,2.8291,2.8291,2.8291,2.8291,2.8291,2.8291,2.8291,2.8291,2.8291,2.7939,2.8656,2.9131,2.7861,2.6668,2.5625,2.5176,2.542,2.5742,2.5742,2.6084,2.6514,2.6934,2.7363,2.7656,2.7666,2.873,2.9717,3.0185,2.8253,2.7095,2.7465,2.4803,2.2993,2.3307,2.3607,2.3781,2.3774,2.3494,2.3327,2.3327,2.3033,2.2859,2.2859,2.2859,2.2859,2.2859,2.2859,2.2572,2.1991,2.1984,2.1677,2.1116,2.1109,2.1109,2.1109,2.1109,2.1109,0.0,2.1109,2.1109,2.1109,2.1109,2.1109,2.1109,2.1109,2.1109,2.1069,2.0775,2.0675,2.0628,2.0327,2.0227,2.018,1.9887,1.98,1.9733,1.9446,1.9366,1.9366,1.9366,1.9366,1.9366,1.9366,1.9366,1.9366,1.9366,1.9366,1.9366,1.9366,1.9366,1.9366,1.9366,1.9366,1.9366,1.9366,1.9366,1.9366,1.9366,1.9366,1.9924,2.1472,2.1586,2.1038,1.9482,2.0702,2.2258,2.371,2.527,2.6717,2.8291,2.8291,2.8291,2.8291,2.8291,2.8291,2.8291,2.8291,2.8291,2.8291,2.8291,2.8291,2.7264,2.7382,2.7147,2.6806,2.5959,2.5244,2.5098,2.541,2.582,2.6123,2.6299,2.6611,2.7324,2.7568,2.7851,2.8428,2.8857,2.9375,3.0107,2.7896,2.6403,2.7262,2.5062,2.3521,2.3621,2.3534,2.3467,2.3467,2.318,2.3006,2.3006,2.2726,2.2652,2.2853,2.2665,2.2559,2.2559,2.2358,2.2071,2.169,2.169,2.149,2.1109,2.1109,2.1109,2.1109,2.1109,2.1109,2.1109,2.1109,2.1109,2.1109,2.1109,2.1109,2.1109,2.1109,2.1109,2.1096,2.1002,2.0969,2.0922,2.0628,2.0668,2.0702,2.0013,1.98,1.974,1.9452,1.9366,1.9366,1.9366,1.9366,1.9366,1.9366,1.9366,1.9366,1.9366,1.9366,1.9366,1.9366,1.9366,1.9366,1.9366,1.9366,1.9366,1.9366,1.9366,1.9366,1.9366,2.0256,2.1031,2.1586,2.2476,2.2927,2.2492,2.2822,2.371,2.5261,2.5818,2.6717,2.8291,2.8291,2.8291,2.8291,2.8291,2.8291,2.8291,2.8291,2.8291,2.8291,2.8291,2.8291,2.6292,2.6519,2.6262,2.6262,2.5727,2.5068,2.5068,2.541,2.5908,2.6504,2.6631,2.6885,2.7744,2.791,2.8125,2.8809,2.9053,2.9172,2.9279,2.744,2.5867,2.5398,2.4046,2.326,2.326,2.3193,2.3153,2.3153,2.2973,2.2812,2.2699,2.2519,2.2452,2.2532,2.2352,2.2258,2.2258,2.2078,2.1844,2.155,2.155,2.1396,2.1109,2.1109,2.1109,2.1109,2.1109,2.1109,0.0,2.1109,2.1109,2.1109,2.1109,2.1109,2.1109,2.1109,2.1109,2.1109,2.1109,2.1109,2.1082,2.0902,2.0808,2.0655,2.0,1.9726,1.9599,1.9419,1.9366,1.9366,1.9366,1.9366,1.9366,1.9366,1.9366,1.9366,1.9366,1.9366,1.9366,1.9366,1.9366,1.9366,1.9366,1.9366,1.9366,1.9366,1.9366,1.9591,2.0148,2.1031,2.2032,2.3143,2.4147,2.4931,2.5498,2.4939,2.5041,2.6045,2.6599,2.7394,2.8291,2.8291,2.8291,2.8291,2.8291,2.8291,2.8291,2.8291,2.8291,2.8291,2.8291,2.8291,0.0,2.5862,2.612,2.612,2.5614,2.5068,2.5068,2.5439,0.0,2.6846,2.7041,2.7324,2.8184,2.834,2.8486,2.8935,2.9346,2.9182,2.8064,2.696,2.5194,2.2393,2.2285,2.2452,2.2452,2.2679,2.2839,2.2859,2.2819,2.2692,2.2432,2.2378,2.2231,2.1964,2.1937,2.1937,2.1951,2.1937,2.1784,2.1516,2.1516,2.1376,2.1109,2.1109,2.1109,2.1109,2.1109,2.1109,2.1109,2.1109,2.1109,2.1109,2.1109,2.1109,2.1109,2.1109,2.1109,2.1109,2.1109,2.1109,2.1109,2.1082,2.0681,2.0154,1.9887,1.9599,1.9366,1.9366,1.9366,1.9366,1.9366,1.9366,1.9366,1.9366,1.9366,1.9366,1.9366,1.9366,1.9366,1.9366,1.9366,1.9366,1.9366,1.9366,1.9366,1.9366,1.9366,1.9924,2.1252,2.1586,2.2814,2.5599,2.6155,2.6825,2.8174,2.7051,2.6264,2.6264,2.7501,2.8291,2.8291,2.8291,2.8291,2.8291,2.8291,2.8291,2.8291,2.8291,2.8291,2.8291,2.8291,2.8291,2.4667,0.0,2.4366,2.4366,2.4779,2.5068,0.0,2.5674,2.6387,2.6904,2.7285,2.7773,2.8613,2.8769,2.9023,2.9775,2.998,2.9604,2.8464,2.6356,2.4375,2.2856,2.2712,2.2759,2.2759,2.2612,2.2619,2.2846,2.2445,2.2258,2.2412,2.1997,2.1724,2.1657,2.143,2.1423,2.1657,2.143,2.1283,2.1216,2.1216,2.1176,2.1109,2.1109,2.1109,2.1109,2.1109,2.1109,2.1109,2.1109,2.1109,2.1109,2.1109,2.1109,2.1109,2.1109,2.1109,2.1109,2.1109,2.1109,2.1076,2.0848,2.0381,1.9887,1.982,1.9599,1.9366,1.9366,1.9366,1.9366,1.9366,1.9366,1.9366,1.9366,1.9366,1.9366,1.9366,1.9366,1.9366,1.9366,1.9366,1.9366,1.9366,1.9366,1.9366,1.9366,1.9366,1.9482,1.9924,2.1934,2.3599,2.4267,2.6391,2.795,2.8291,2.795,2.7736,2.7736,2.8067,2.8291,2.8291,2.8291,2.8291,2.8291,2.8291,2.8291,2.8291,2.8291,2.8291,2.8291,2.8291,2.8291,2.4888,2.4753,2.4375,2.4375,2.5176,2.5957,2.5957,2.6338,2.6797,2.7226,2.75,2.792,2.876,2.8916,2.9199,3.0059,3.0195,2.965,2.8001,2.5192,2.3182,2.2734,2.2659,2.2605,0.0,2.2311,2.2285,2.2452,2.2164,2.1997,2.2024,2.1724,2.149,2.1356,2.1196,2.1189,2.1349,2.1189,2.1109,2.1109,2.1109,2.1109,2.1109,2.1109,2.1109,2.1109,2.1109,2.1109,2.1109,2.1109,2.1109,2.1109,2.1109,2.1109,2.1109,2.1109,2.1109,2.1109,2.1109,2.1022,2.0842,2.0414,2.006,1.9773,1.9639,1.9492,1.9366,1.9366,1.9366,1.9366,1.9366,1.9366,1.9366,1.9366,1.9366,1.9366,1.9366,1.9366,1.9366,1.9366,1.9366,1.9366,1.9366,1.9366,1.9591,2.0256,2.0371,2.0923,2.2266,2.3822,2.516,2.5827,2.7286,2.8291,2.8291,2.8291,2.8291,2.8291,2.8291,2.8291,2.8291,2.8291,2.8291,2.8291,2.8291,2.8291,2.8291,2.8291,2.8291,2.8291,2.8291,2.8291,2.563,2.5635,2.5332,2.5205,2.6152,2.71,2.7031,2.707,2.7217,2.7588,2.7773,2.8096,2.8877,2.9072,2.9394,3.0264,2.9969,2.9057,2.721,2.4035,2.2078,2.2325,2.2352,0.0,2.2011,2.1944,2.1937,2.1984,2.1904,2.1764,2.1563,2.151,2.137,2.1116,2.1109,2.1109,2.1109,2.1109,2.1109,2.1109,2.1109,2.1109,2.1109,2.1109,2.1109,2.1109,2.1109,0.0,2.1109,2.1109,2.1109,2.1109,2.1109,2.1109,2.1109,2.1109,2.1109,2.1102,2.1056,2.0822,2.0461,1.996,1.9773,1.9686,1.9446,1.9366,1.9366,1.9366,1.9366,1.9366,1.9366,1.9366,1.9366,1.9366,1.9366,1.9366,1.9366,1.9366,1.9366,1.9366,1.9366,1.9366,1.9366,1.9591,2.0148,2.1358,2.1805,2.2814,2.5371,2.5927,2.6599,2.7843,2.8184,2.8291,2.8291,2.8291,2.8291,2.8291,2.8291,2.8291,2.8291,2.8291,2.8291,2.8291,2.8291,2.8291,2.8291,2.8291,2.8291,2.8291,2.8291,2.8291,2.737,2.7347,2.6543,2.582,2.6611,2.7471,2.71,2.7305,2.7588,2.7656,2.8232,2.8877,2.9375,2.9756,3.0293,3.1172,2.9252,2.7403,2.7074,0.0,2.2004,2.2044,0.0,2.2038,2.1991,2.1764,2.1724,2.1964,2.1523,2.1336,2.1543,2.1309,2.1156,2.1109,2.1109,2.1109,2.1109,2.1109,2.1109,2.1109,2.1109,2.1109,2.1109,2.1109,2.1109,2.1109,0.0,2.1109,2.1109,2.1109,2.1109,2.1109,2.1109,2.1109,2.1109,2.1109,2.1109,2.1076,2.0828,2.0388,1.992,1.9826,1.9633,1.9426,1.9379,1.9366,1.9366,1.9366,1.9366,1.9366,1.9366,1.9366,1.9366,1.9366,1.9366,1.9366,1.9366,1.9366,1.9366,1.9366,1.9366,1.9366,1.9366,2.0479,2.1365,2.1586,2.2702,2.3599,2.4044,2.527,2.6155,2.6381,2.7501,2.8291,2.8291,2.8291,2.8291,2.8291,2.8291,2.8291,2.8291,2.8291,2.8291,2.8291,2.8291,2.8291,2.8291,2.8291,2.8291,2.8291,2.8291,2.8291,2.6896,2.6884,2.6689,2.6758,2.792,2.8984,2.8779,2.8721,2.8691,2.8691,2.9004,2.9404,2.9834,3.0068,3.0488,3.1377,2.893,2.6868,2.7066,2.401,2.175,0.0,0.0,2.169,2.153,2.139,2.137,2.1503,2.1263,2.1169,2.1303,2.1182,2.1109,2.1109,2.1109,2.1109,2.1109,2.1109,2.1109,2.1109,2.1109,2.1109,2.1109,2.1109,2.1109,2.1109,0.0,2.1109,2.1109,2.1109,2.1109,2.1109,2.1109,2.1109,2.1089,2.0935,2.0875,2.0808,2.0361,2.0027,1.9773,1.9619,1.9472,1.9366,1.9366,1.9366,1.9366,1.9366,1.9366,1.9366,1.9366,1.9366,1.9366,1.9366,1.9366,1.9366,1.9366,1.9366,1.9366,1.9366,1.9366,1.9366,1.9366,2.0587,2.1919,2.2702,2.4044,2.538,2.6164,2.6834,2.7276,2.7276,2.795,2.8291,2.8291,2.8291,2.8291,2.8291,2.8291,2.8291,2.8291,2.8291,2.8291,2.8291,2.8291,2.8291,2.8291,2.8291,2.8291,2.8291,2.8291,2.8291,2.6818,2.6753,2.6894,2.777,2.8935,2.9951,3.0146,2.9795,2.9473,2.9678,2.9717,2.9814,3.0137,3.0371,3.0732,3.1406,2.8859,2.6744,2.6942,2.3841,2.153,2.1456,2.145,2.1363,2.1129,2.1109,2.1109,2.1109,2.1109,2.1109,2.1109,2.1109,2.1109,2.1109,2.1109,2.1109,2.1109,2.1109,2.1109,2.1109,2.1109,2.1109,2.1109,2.1109,2.1109,2.1109,2.1109,2.1109,2.1109,2.1109,2.1109,2.1109,2.1109,2.1069,2.0982,2.0762,2.0588,2.0408,1.996,1.976,1.9659,1.9439,1.9366,1.9366,1.9366,1.9366,1.9366,1.9366,1.9366,1.9366,1.9366,1.9366,1.9366,1.9366,1.9366,1.9366,1.9366,1.9366,1.9366,1.9366,1.9366,1.9366,1.9366,2.0923,2.2476,2.3599,2.538,2.7051,2.8174,2.8291,2.8291,2.8291,2.8291,2.8291,2.8291,2.8291,2.8291,2.8291,2.8291,2.8291,2.8291,2.8291,2.8291,2.8291,2.8291,2.8291,2.8291,2.8291,2.8291,2.8291,2.8291,2.8291,2.8668,2.8079,2.7585,2.8514,2.8916,2.9219,3.0019,2.956,2.9189,2.999,3.0156,3.0166,3.0185,3.0869,3.1445,3.1504,2.8968,2.6942,2.6628,0.0,2.145,2.1176,2.1142,2.1129,2.1109,2.1109,2.1109,2.1109,2.1109,2.1109,2.1109,2.1109,2.1109,2.1109,2.1109,2.1109,2.1109,2.1109,2.1109,2.1109,2.1109,2.1109,2.1109,2.1109,2.1109,2.1109,2.1109,2.1109,2.1109,2.1109,2.1109,2.1109,2.1109,2.0942,2.0708,2.0681,2.0327,1.986,1.9813,1.9626,1.9399,1.9372,1.9366,1.9366,1.9366,1.9366,1.9366,1.9366,1.9366,1.9366,1.9366,1.9366,1.9366,1.9366,1.9366,1.9366,1.9366,1.9366,1.9366,1.9366,1.9366,1.9366,1.9366,2.1707,2.371,2.3822,2.6273,2.8174,2.8291,2.8291,2.8291,2.8291,2.8291,2.8291,2.8291,2.8291,2.8291,2.8291,2.8291,2.8291,2.8291,2.8291,2.8291,2.8291,2.8291,2.8291,2.8291,2.8291,2.8291,2.8291,2.8291,2.8291,2.8172,2.8693,2.901,2.8306,2.9467,3.0648,3.0285,2.9951,2.9883,3.0508,3.0635,3.0635,3.0635,3.1113,3.1514,3.1514,2.8903,2.6702,2.6562,2.3502,2.1236,2.1122,2.1109,2.1109,2.1109,2.1109,2.1109,2.1109,2.1109,2.1109,2.1109,2.1109,2.1109,2.1109,2.1109,2.1109,2.1109,2.1109,2.1109,2.1109,2.1109,2.1109,2.1109,2.1109,2.1109,2.1109,2.1109,2.1109,2.1109,2.1109,2.1109,2.1089,2.0909,2.0775,2.0635,2.0267,1.9993,1.9773,1.9593,1.9459,1.9366,1.9366,1.9366,1.9366,1.9366,1.9366,1.9366,1.9366,1.9366,1.9366,1.9366,1.9366,1.9366,1.9366,1.9366,1.9366,1.9366,1.9366,1.97,2.0587,2.0816,2.1038,2.1934,2.3822,2.527,2.5177,2.6952,2.8291,2.8291,2.8291,2.8291,2.8291,2.8291,2.8291,2.8291,2.8291,2.8291,2.8291,2.8291,2.8291,2.8291,2.8291,2.8291,2.8291,2.8291,2.8291,2.8291,2.8291,2.8291,2.8291,2.8291,2.8291,2.8694,2.9669,3.0415,2.8901,2.9959,3.1148,3.0359,3.0195,3.0361,3.0967,3.0986,3.0889,3.0889,3.1123,3.1318,3.1318,2.859,2.6364,2.6364,2.3326,2.1109,2.1109,2.1109,2.1109,2.1109,2.1109,2.1109,2.1109,2.1109,2.1109,2.1109,2.1109,2.1109,2.1109,2.1109,2.1109,2.1109,2.1109,2.1109,2.1109,2.1109,2.1109,2.1109,2.1109,2.1109,2.1109,2.1109,2.1109,2.1109,2.1109,2.1109,2.1082,2.0788,2.0621,2.0474,1.998,1.974,1.9633,1.9432,1.9366,1.9366,1.9366,1.9366,1.9366,1.9366,1.9366,1.9366,1.9366,1.9366,1.9366,1.9366,1.9366,1.9366,1.9366,1.9366,1.9366,1.9366,1.9815,2.0364,2.1365,2.2032,2.2589,2.3599,2.5041,2.6054,2.6073,2.7403,2.8291,2.8291,2.8291,2.8291,2.8291,2.8291,2.8291,2.8291,2.8291,2.8291,2.8291,2.8291,2.8291,2.8291,2.8291,2.8291,2.8291,2.8291,2.8291,2.8291,2.8291,2.8291,2.8291,2.8291,2.8291,3.0553,3.1223,3.1833,3.0563,3.0328,3.0284,3.0231,3.0195,3.0449,3.1328,3.1182,3.0889,3.0889,3.0889,3.0889,3.0889,2.8179,2.5976,2.5976,2.3186,2.1109,2.1109,2.1109,2.1109,2.1109,2.1109,2.1109,2.1109,2.1109,2.1109,2.1109,2.1109,2.1109,2.1109,2.1109,2.1109,2.1109,2.1109,2.1109,2.1109,2.1109,2.1109,2.1109,2.1109,2.1109,2.1109,2.1109,2.1109,2.1109,2.1109,2.1109,2.1076,2.0782,2.0494,2.0194,1.9907,1.9613,1.9366,1.9366,1.9366,1.9366,1.9366,1.9366,1.9366,1.9366,1.9366,1.9366,1.9366,1.9366,1.9366,1.9366,1.9366,1.9366,1.9366,1.9366,1.9366,1.9366,2.0587,2.1586,2.1586,2.2814,2.3822,2.3822,2.5151,2.6155,2.6155,2.7394,2.8291,2.8291,2.8291,2.8291,2.8291,2.8291,2.8291,2.8291,2.8291,2.8291,2.8291,2.8291,2.8291,2.8291,2.8291,2.8291,2.8291,2.8291,2.8291,2.8291,2.8291,2.8291,2.8291,2.8291,2.8291,3.0109,3.1562,3.2786,3.0356,3.142,3.2609,3.0654,3.0195,3.0361,3.0957,3.0976,3.0889,3.0889,3.0889,3.0889,3.0889,2.9039,2.7323,2.6098,2.417,2.2466,2.1235,2.1109,2.1109,2.1109,2.1109,2.1109,2.1109,2.1109,2.1109,2.1109,2.1109,2.1109,2.1109,2.1109,2.1109,2.1109,2.1109,2.1109,2.1109,2.1109,2.1109,2.1109,2.1109,2.1109,2.1109,2.1109,2.1109,2.1109,2.1109,2.0989,2.0775,2.0481,2.0187,1.9893,1.9599,1.9439,1.9366,1.9366,1.9366,1.9366,1.9366,1.9366,1.9366,1.9366,1.9366,1.9366,1.9366,1.9366,1.9366,1.9366,1.9366,1.9366,1.9366,1.9366,1.9366,1.9366,2.0587,2.1919,2.2927,2.4378,2.5717,2.6834,2.7394,2.7618,2.7618,2.8067,2.8291,2.8291,2.8291,2.8291,2.8291,2.8291,2.8291,2.8291,2.8291,2.8291,2.8291,2.8291,2.8291,2.8291,2.8291,2.8291,2.8291,2.8291,2.8291,2.8291,2.8291,2.8291,2.8291,2.8291,2.8291,3.17,3.3378,3.473,3.2587,3.3716,3.4583,3.1953,3.0908,3.0547,3.083,3.0889,3.0889,3.0889,3.0889,3.0889,3.0889,2.892,2.7073,2.6098,2.4039,2.2215,2.1235,2.1109,2.1109,2.1109,2.1109,2.1109,2.1109,2.1109,2.1109,2.1109,2.1109,2.1109,2.1109,2.1109,2.1109,2.1109,2.1109,2.1109,2.1109,2.1109,2.1109,2.1109,2.1109,2.1109,2.1109,2.1109,2.1109,2.1102,2.0989,2.0835,2.0635,2.0221,1.9953,1.9766,1.9472,1.9366,1.9366,1.9366,1.9366,1.9366,1.9366,1.9366,1.9366,1.9366,1.9366,1.9366,1.9366,1.9366,1.9366,1.9366,1.9809,2.0256,2.0256,2.0256,2.0479,2.1045,2.2379,2.3702,2.4488,2.5936,2.7276,2.8174,2.8291,2.8291,2.8291,2.8291,2.8291,2.8291,2.8291,2.8291,2.8291,2.8291,2.8291,2.8291,2.8291,2.8291,2.8291,2.8291,2.8291,2.8291,2.8291,2.8291,2.8291,2.8291,2.8291,2.8291,2.8291,2.8291,2.8291,2.8291,2.8291,3.4299,3.578,3.6883,3.598,3.6128,3.5802,3.3636,3.1988,3.0889,3.0889,3.0889,3.0889,3.0889,3.0889,3.0889,3.0889,2.8307,2.6219,2.5976,2.3303,2.1229,2.1109,2.1109,2.1109,2.1109,2.1109,2.1109,2.1109,2.1109,2.1109,2.1109,2.1109,2.1096,2.1069,2.1069,2.1056,2.1029,2.1029,2.1029,2.1029,2.1029,2.1029,2.1029,2.1082,2.1109,2.1109,2.1082,2.1069,2.1049,2.0755,2.0621,2.0541,2.0007,1.9786,1.9726,1.9466,1.9366,1.9366,1.9366,1.9366,1.9366,1.9366,1.9366,1.9366,1.9366,1.9366,1.9366,1.9366,1.9366,1.9482,1.9591,2.0587,2.1699,2.1919,2.1919,2.2145,2.3487,2.5041,2.6155,2.6155,2.7276,2.8291,2.8291,2.8291,2.8291,2.8291,2.8291,2.8291,2.8291,2.8291,2.8291,2.8291,2.8291,2.8291,2.8291,2.8291,2.8291,2.8291,2.8291,2.8291,2.8291,2.8291,2.8291,2.8291,2.8291,2.8291,2.8291,2.8291,2.8291,2.8291,2.8291,2.8291,3.337,3.4638,3.5841,3.5788,3.4792,3.3716,3.3272,3.1988,3.0889,3.0889,3.0889,3.0889,3.0889,3.0889,3.0889,3.0889,2.9157,2.7443,2.6219,2.4286,2.2591,2.1229,2.1109,2.1109,2.1109,2.1109,2.1109,2.1109,2.1109,2.1109,2.1109,2.1109,2.1002,2.0775,2.0768,2.0655,2.0421,2.0421,2.0421,2.0421,2.0421,2.0421,2.0434,2.0895,2.1109,2.1096,2.0869,2.0768,2.0748,2.0448,2.0194,1.9973,1.9853,1.9659,1.9452,1.9392,1.9366,1.9366,1.9366,1.9366,1.9366,1.9366,1.9366,1.9366,1.9366,1.9366,1.9366,1.9366,1.9366,1.9707,2.0809,2.1365,2.2251,2.4591,2.4258,2.3375,2.371,2.5041,2.6155,2.6155,2.7276,2.8291,2.8291,2.8291,2.8291,2.8291,2.8291,2.8291,2.8291,2.8291,2.8291,2.8291,2.8291,2.8291,2.8291,2.8291,2.8291,2.8291,2.8291,2.8291,2.8291,2.8291,2.8291,2.8291,2.8291,2.8291,2.8291,2.8291,2.8291,2.8291,2.8291,2.8291,3.3646,3.5064,3.653,3.7449,3.5879,3.4181,3.4181,3.2426,3.0889,3.0889,3.0889,3.0889,3.0889,3.0889,3.0889,3.0889,2.9362,2.7538,2.6089,2.4272,2.25,2.0812,2.0815,2.0902,2.0902,2.1029,2.1109,2.1109,2.1109,2.1049,2.0909,2.0902,2.0768,2.0474,2.0468,2.0388,2.0234,2.0234,2.0234,2.0234,2.0234,2.0234,2.0241,2.0548,2.0688,2.0681,2.0528,2.0468,2.0441,2.0147,1.994,1.9786,1.9646,1.9499,1.9366,1.9366,1.9366,1.9366,1.9366,1.9366,1.9366,1.9366,1.9366,1.9366,1.9366,1.9366,1.9366,1.9366,1.9366,1.97,2.1252,2.2145,2.3263,2.5599,2.5489,2.5049,2.5827,2.6608,2.7159,2.7159,2.7726,2.8291,2.8291,2.8291,2.8291,2.8291,2.8291,2.8291,2.8291,2.8291,2.8291,2.8291,2.8291,2.8291,2.8291,2.8291,2.8291,2.8291,2.8291,2.8291,2.8291,2.8291,2.8291,2.8291,2.8291,2.8291,2.8291,2.8291,2.8807,2.9617,2.9404,2.9731,3.3884,3.5705,3.7563,3.9157,3.7417,3.5288,3.5288,3.2985,3.0889,3.0889,3.0889,3.0889,3.0889,3.0889,3.0859,3.0781,2.9137,2.7337,2.6075,2.4166,2.2356,2.0825,2.0808,2.0965,2.0601,2.0815,2.0955,2.0955,2.0955,2.0855,2.0615,2.0601,2.0461,2.0167,2.0154,2.0134,2.0087,2.0087,2.0087,2.0087,2.0087,2.0087,2.0087,2.0087,2.014,2.0227,2.018,2.0154,2.0134,1.9846,1.9726,1.97,1.9459,1.9366,1.9366,1.9366,1.9366,1.9366,1.9366,1.9366,1.9366,1.9366,1.9366,1.9366,1.9366,1.9366,1.9482,1.9707,1.9815,2.0148,2.1919,2.3263,2.4599,2.6155,2.649,2.6825,2.8067,2.8291,2.8291,2.8291,2.8291,2.8291,2.8291,2.8291,2.8291,2.8291,2.8291,2.8291,2.8291,2.8291,2.8291,2.8291,2.8291,2.8291,2.8291,2.8291,2.8291,2.8291,2.8495,2.8495,2.8291,2.8495,2.8495,2.8291,2.8495,2.8495,2.8291,2.8883,2.9819,3.1106,3.0999,3.1793,3.2353,3.4813,3.7475,3.868,3.7156,3.5288,3.5288,3.2985,3.0889,3.0889,3.0889,3.0889,3.0889,3.0889,3.0762,3.0351,2.8941,2.7598,2.7018,2.541,2.3866,2.2356,2.2281,2.1718,2.0409,2.0327,2.0347,2.0347,2.0347,2.0334,2.0294,2.0294,2.016,1.9867,1.986,1.974,1.9486,1.9486,1.9486,1.9486,1.9486,1.9486,1.9486,1.9486,1.976,2.0221,1.9967,1.986,1.9833,1.9546,1.9426,1.9419,1.9379,1.9366,1.9366,1.9366,1.9366,1.9366,1.9366,1.9366,1.9366,1.9366,1.9366,1.9366,1.9366,1.9366,1.9707,2.0923,2.1365,2.1919,2.4812,2.5599,2.6164,2.7618,2.8067,2.8067,2.8291,2.8291,2.8291,2.8291,2.8291,2.8291,2.8291,2.8291,2.8291,2.8291,2.8291,2.8291,2.8291,2.8291,2.8291,2.8291,2.8291,2.8291,2.8291,2.8291,2.8291,2.8291,2.9408,2.9503,2.8398,2.9408,2.9513,2.8291,2.9408,2.9513,2.8291,3.1146,3.2093,3.1116,3.2801,3.363,3.3131,3.4914,3.6684,3.8442,3.752,3.6059,3.6059,3.3779,3.1645,3.1391,3.0694,3.0225,3.0459,3.0312,3.0088,2.9883,2.9058,2.8042,2.706,2.603,2.4867,2.3395,2.265,2.195,2.1249,2.0595,2.0234,2.0234,2.0234,2.016,2.0,1.9993,1.986,1.9566,1.9559,1.9499,1.9366,1.9366,1.9366,1.9366,1.9366,1.9366,1.9366,1.9366,1.9506,1.974,1.9613,1.9559,1.9546,1.9419,1.9366,1.9366,1.9366,1.9366,1.9366,1.9366,1.9366,1.9366,1.9366,1.9366,1.9366,1.9366,1.9366,1.9339,1.9165,1.9786,2.0773,2.1256,2.2112,2.3375,2.5489,2.6155,2.649,2.795,2.8291,2.8291,2.8291,2.8291,2.8291,2.8291,2.8291,2.8291,2.8291,2.8291,2.8291,2.8291,2.8291,2.8291,2.8291,2.8291,2.8291,2.8291,2.8291,2.8291,2.8291,2.8291,2.8291,2.8291,2.89,2.89,2.8291,2.89,2.89,2.8291,2.89,2.89,2.8291,2.9962,3.0904,3.1116,3.1943,3.2768,3.3244,3.4387,3.5416,3.75,3.7164,3.622,3.6027,3.4026,3.1991,3.123,3.0219,2.9502,2.9814,2.9707,2.9531,2.9424,2.9131,2.843,2.7317,2.6801,2.6045,2.4599,2.3262,2.2283,2.1944,2.0795,2.0013,2.0013,2.0013,1.992,1.97,1.9693,1.9593,1.9372,1.9366,1.9366,1.9366,1.9366,1.9366,1.9366,1.9292,1.9259,1.9252,1.9178,1.9145,1.9152,1.9299,1.9366,1.9366,1.9366,1.9366,1.9366,1.9366,1.9366,1.9366,1.9366,1.9366,1.9366,1.9366,1.9366,1.9366,1.9366,1.9366,1.9312,1.9011,2.0061,2.1391,2.1505,2.286,2.4564,2.6118,2.6534,2.6943,2.8067,2.8291,2.8291,2.8291,2.8291,2.8291,2.8291,2.8291,2.8291,2.8291,2.8291,2.8291,2.8291,2.8291,2.8291,2.8291,2.8291,2.8291,2.8291,2.8291,2.8291,2.8291,2.8291,2.8291,2.8291,2.8601,2.8698,2.8291,2.8591,2.8601,2.8291,2.8291,2.8291,2.8291,2.9437,3.0381,3.1106,3.154,3.2542,3.1248,3.2365,3.3608,3.5303,3.5393,3.4933,3.4162,3.2781,3.1288,2.9996,2.9238,2.8955,2.8984,2.9307,2.9434,2.9023,2.8935,2.8779,2.8272,2.8194,2.7618,2.6155,2.4616,2.3175,2.1722,2.0298,1.9412,1.9412,1.9412,1.9406,1.9392,1.9392,1.9379,1.9366,1.9366,1.9366,1.9366,1.9366,1.9366,1.9366,1.9085,1.8945,1.8938,1.8657,1.8537,1.8571,1.9125,1.9366,1.9366,1.9366,1.9366,1.9366,1.9366,1.9366,1.9366,1.9366,1.9366,1.9366,1.9366,1.9366,1.9366,1.9366,1.9366,1.9312,1.9011,1.9801,2.1158,2.2336,2.3888,2.57,2.7247,2.7882,2.8174,2.8291,2.8291,2.8291,2.8291,2.8291,2.8291,2.8291,2.8291,2.8291,2.8291,2.8291,2.8291,2.8291,2.8291,2.8291,2.8291,2.8291,2.8291,2.8291,2.8291,2.8291,2.8291,2.8291,2.8291,2.8291,2.9503,2.9608,2.8398,2.9513,2.9608,2.8291,2.8291,2.8291,2.8291,3.1409,3.2367,3.1116,3.3016,3.459,3.0997,3.1178,3.1516,3.3883,3.4083,3.3767,3.3581,3.2836,3.1629,3.0292,2.924,2.8516,2.8516,2.8643,2.8701,2.8545,2.8516,2.8467,2.831,2.8291,2.8067,2.7609,2.527,2.3599,2.3039,2.0816,1.9366,1.9366,1.9366,1.9366,1.9366,1.9366,1.9366,1.9366,1.9366,1.9366,1.9366,1.9178,1.9085,1.9078,1.8784,1.8644,1.8644,1.8537,1.849,1.8504,1.8711,1.8804,1.8804,1.8804,1.8911,1.9085,1.9085,1.9199,1.9366,1.9366,1.9366,1.9366,1.9366,1.9366,1.9366,1.9366,1.9366,1.9312,1.9011,2.004,2.1518,2.2484,2.4248,2.6108,2.74,2.7978,2.8291,2.8291,2.8291,2.8291,2.8291,2.8291,2.8291,2.8291,2.8291,2.8291,2.8291,2.8291,2.8291,2.8291,2.8291,2.8291,2.8291,2.8291,2.8291,2.8291,2.8291,2.8291,2.8291,2.8291,2.8291,2.8291,2.8804,2.8804,2.8291,2.9608,3.012,2.9608,3.0421,3.0421,2.9608,3.1105,3.1787,3.1896,3.2897,3.3469,3.0507,0.0,0.0,3.224,3.2766,3.2702,3.2141,3.1773,3.1097,2.9725,2.869,2.8125,2.8262,2.8291,2.8291,2.8291,2.8291,2.8291,2.8291,2.8291,2.8291,2.8291,2.6045,2.4378,2.3822,2.1601,1.9924,1.9482,1.9366,1.9366,1.9366,1.9366,1.9366,1.9366,1.9366,1.9319,1.9219,1.9025,1.8871,1.8778,1.8477,1.8337,1.8337,1.823,1.8183,1.8183,1.8183,1.8303,1.849,1.849,1.8604,1.8784,1.8885,1.9045,1.9232,1.9332,1.9366,1.9366,1.9366,1.9366,1.9352,1.9252,1.9285,1.9292,1.8898,1.9963,2.1526,2.2484,2.4257,2.6117,2.74,2.7978,2.8291,2.8291,2.8291,2.8291,2.8291,2.8291,2.8291,2.8291,2.8291,2.8291,2.8291,2.8291,2.8291,2.8291,2.8291,2.8291,2.8291,2.8291,2.8291,2.8291,2.8291,2.8291,2.8291,2.8291,2.8495,2.89,2.9006,2.9006,2.9006,3.0214,3.0525,2.9608,3.1429,3.1825,3.0916,3.1238,3.1745,3.2342,3.2576,3.2859,0.0,0.0,0.0,0.0,3.1187,3.1503,2.9407,2.9471,2.9513,2.8041,2.7731,2.7868,2.8193,2.8271,2.8281,2.8291,2.8291,2.8291,2.8291,2.8291,2.8291,2.8291,2.7051,2.5489,2.4044,2.2484,2.1031,1.9591,1.9482,1.9482,1.9366,1.9366,1.9366,1.9366,1.9359,1.9219,1.8925,1.8905,1.8758,1.847,1.8156,1.8016,1.8023,1.7722,1.7582,1.7582,1.7582,1.7916,1.8464,1.8464,1.847,1.8504,1.8784,1.8905,1.8945,1.9245,1.9352,1.9352,1.9352,1.9359,1.9319,1.9011,1.9118,1.9259,1.8776,1.966,2.1143,2.2419,2.4084,2.5788,2.7332,2.7978,2.8281,2.8262,2.8262,2.8271,2.8252,2.8252,2.8262,2.8271,2.8262,2.8252,2.8252,2.8262,2.8271,2.8271,2.8281,2.8291,2.8291,2.8291,2.8291,2.8291,2.8291,2.8291,2.8291,2.8291,2.89,3.011,3.0317,3.0317,3.0317,3.1633,3.1133,2.8495,3.1019,3.2431,3.2431,3.2331,3.2331,3.2431,3.2431,3.3155,2.9462,0.0,0.0,0.0,0.0,0.0,2.8109,2.8541,2.88,2.8059,2.7969,2.7914,2.7904,2.7842,2.7939,2.8242,2.8291,2.8291,2.8291,2.8291,2.8291,2.8291,2.7051,2.5927,2.5489,2.4044,2.2597,2.1145,2.1031,2.0479,1.9482,1.9366,1.9366,1.9366,1.9158,1.9005,1.8925,1.8504,1.8243,1.8143,1.7849,1.7702,1.7709,1.7622,1.7582,1.7582,1.7582,1.7675,1.7836,1.7836,1.7963,1.8176,1.8257,1.8424,1.8644,1.8938,1.9045,1.9045,1.9045,1.9185,1.9285,1.8771,1.8951,1.9483,1.9847,2.0678,2.1773,2.3662,2.5032,2.6144,2.741,2.7978,2.8135,2.7519,2.7607,2.7754,2.7432,2.7373,2.7461,2.7773,2.7578,2.7373,2.7373,2.7627,2.7842,2.7842,2.8096,2.8291,2.8291,2.8291,2.8291,2.8291,2.8291,2.8291,2.8291,2.8291,2.8495,2.8804,2.9713,3.0317,3.0317,3.2555,3.3464,3.2755,3.435,3.5246,3.5246,3.4264,3.4362,3.5246,3.5246,3.5451,2.888,2.8597,0.0,2.7778,0.0,0.0,2.7162,2.7558,2.7888,2.7568,2.7266,2.706,2.7104,2.7275,2.7529,2.7959,2.8027,2.8096,2.8271,2.8291,2.8291,2.8291,2.7501,2.6825,2.6155,2.527,2.4156,2.2589,2.1919,2.0923,1.9482,1.9252,1.9185,1.9185,1.8898,1.8684,1.8557,1.8217,1.7976,1.7829,1.7662,1.7582,1.7582,1.7582,1.7582,1.7582,1.7582,1.7582,1.7582,1.7582,1.7689,1.7862,1.7996,1.8156,1.8357,1.8771,1.8844,1.8778,1.9025,1.9065,1.8945,1.8597,1.8724,1.9265,2.0296,2.0973,2.1965,2.4375,2.5757,2.6605,2.7234,2.7578,2.7637,2.7129,2.7207,2.7324,2.707,2.6875,2.6885,2.7314,2.7187,2.7012,2.7012,2.7226,2.7393,2.7393,2.7607,2.7764,2.7764,2.7764,2.7832,2.8018,2.8027,2.8105,2.8281,2.8794,2.9408,2.9911,3.1235,3.2039,3.2039,3.4068,3.4678,3.3563,3.5451,3.6358,3.6358,3.5571,3.5667,3.6358,3.6358,3.6358,2.8215,2.8211,0.0,2.7429,2.7612,0.0,2.6485,2.653,2.6845,2.6641,2.6057,2.5761,2.6152,2.6543,2.6943,2.7383,2.7529,2.7754,2.8223,2.8291,2.8291,2.8291,2.8291,2.7726,2.649,2.6381,2.5709,2.4156,2.2476,2.0923,1.9482,1.9085,1.8925,1.8925,1.8611,1.831,1.805,1.8009,1.7856,1.7582,1.7582,1.7582,1.7582,1.7582,1.7582,1.7582,1.7582,1.7582,1.7582,1.7582,1.7582,1.7609,1.7883,1.7996,1.8063,1.8617,1.8657,1.8517,1.9038,1.8925,1.8524,1.8424,1.8457,1.885,2.0258,2.0888,2.1695,2.4515,2.6115,2.7002,2.6953,2.6982,2.6992,2.6894,2.6914,2.6934,2.6885,2.6582,2.6426,2.6807,2.6875,2.6875,2.6875,2.6914,2.6943,2.6943,2.6982,2.7012,2.7012,2.7012,2.7168,2.7559,2.7637,2.7822,2.8193,2.9482,3.0824,3.2028,3.3563,3.4385,3.4385,3.5667,3.5246,3.2833,3.515,3.6358,3.6358,3.6358,3.6358,3.6358,3.6358,3.6358,2.8152,2.9083,2.9764,2.8241,2.796,0.0,2.6646,2.6065,2.5717,2.5643,2.5581,2.5462,2.5366,2.5391,2.5596,2.6045,2.6689,2.7412,2.8184,2.8291,2.8291,2.8291,2.8291,2.8184,2.795,2.7843,2.7276,2.5709,2.3143,2.0923,1.9482,1.9085,1.8925,1.8925,1.841,1.8103,1.805,1.7796,1.7642,1.7582,1.7582,1.7582,1.7582,1.7582,1.7582,1.7582,1.7582,1.7582,1.7582,1.7582,1.7582,1.7589,1.7649,1.7669,1.7716,1.8063,1.8163,1.815,1.8263,1.8537,1.8724,1.7996,1.825,1.8969,1.9959,2.0442,2.1449,2.4228,2.6003,2.6934,2.6602,2.6768,2.6836,2.6152,2.625,2.6416,2.6064,2.5928,2.5889,2.5967,2.5986,2.5986,2.5986,2.6279,2.6514,2.6514,2.6797,2.7012,2.7012,2.7012,2.7051,2.7139,2.7461,2.7695,2.7783,2.9309,3.0421,3.0721,3.3055,3.4385,3.4385,3.5667,3.6156,3.5655,3.6156,3.6358,3.6358,3.6358,3.6358,3.6358,3.6358,3.6358,2.8327,2.871,2.9088,2.7906,0.0,0.0,0.0,2.5487,2.5058,2.5058,2.482,2.4615,2.4438,2.46,2.4883,2.5332,2.5957,2.6523,2.6953,2.7754,2.8291,2.8291,2.8291,2.8291,2.8291,2.8291,2.7394,2.5151,2.3435,2.1571,1.9253,1.8724,1.8484,1.8484,1.805,1.7816,1.7816,1.7662,1.7582,1.7582,1.7582,1.7582,1.7582,1.7582,1.7582,1.7582,1.7582,1.7582,1.7582,1.7582,1.7582,1.7582,1.7582,1.7582,1.7615,1.7923,1.7943,1.7856,1.8163,1.8263,1.8203,1.7909,1.8016,1.8544,1.9755,2.1278,2.2775,2.4248,2.5477,2.6328,2.6123,2.6221,2.6269,2.584,2.5908,2.6006,2.5781,2.5742,2.5742,2.5742,2.5742,2.5742,2.5742,2.5918,2.6064,2.6064,2.624,2.6377,2.6377,2.6377,2.6645,2.7531,2.7854,2.8278,2.9078,3.058,3.1605,3.185,3.3776,3.5098,3.5367,3.5705,3.583,3.5554,3.5542,3.5542,3.5542,3.5542,3.568,3.5943,3.568,3.5692,0.0,0.0,2.8533,0.0,0.0,2.6679,0.0,0.0,0.0,2.4478,2.4005,2.3662,2.3662,2.3935,2.4287,2.4639,2.5137,2.5488,2.5488,2.6816,2.7832,2.792,2.7998,2.8047,2.8047,2.7978,2.6849,2.4158,2.3503,2.2033,1.9381,1.844,1.805,1.805,1.7742,1.7582,1.7582,1.7582,1.7582,1.7582,1.7582,1.7582,1.7582,1.7582,1.7582,1.7582,1.7582,1.7582,1.7582,1.7582,1.7582,1.7582,1.7582,1.7582,1.7615,1.7862,1.7796,1.7649,1.8143,1.8029,1.7702,1.7896,1.7829,1.7914,1.9346,2.1731,2.3843,2.3764,2.4753,2.5742,2.5742,2.5742,2.5742,2.5742,2.5742,2.5742,2.5742,2.5742,2.5742,2.5742,2.5742,2.5742,2.5742,2.5742,2.5742,2.5742,2.5742,2.5742,2.5742,2.5742,2.6239,2.7523,2.8025,2.8796,3.0119,3.1771,3.2877,3.3292,3.46,3.5579,3.6019,3.5617,3.5177,3.4726,3.4726,3.4726,3.4726,3.4613,3.4851,3.5378,3.4926,3.4964,0.0,0.0,0.0,0.0,2.8975,0.0,0.0,0.0,2.3772,2.3388,0.0,2.3213,2.3213,0.0,0.0,2.335,2.4033,2.457,2.457,2.541,2.6172,2.6562,2.6934,2.7158,2.7158,2.6826,2.612,2.4763,2.3173,2.1632,2.0434,1.8849,1.805,1.805,1.7742,1.7582,1.7582,1.7582,1.7582,1.7582,1.7582,1.7582,1.7582,1.7582,1.7582,1.7582,1.7582,1.7582,1.7582,1.7582,1.7582,1.7582,1.7582,1.7582,1.7589,1.7622,1.7615,1.7595,1.7662,1.7822,1.7956,1.7716,1.7796,1.7949,1.7914,1.9994,2.2353,2.2113,2.3818,2.5742,2.5742,2.5742,2.5742,2.5742,2.5742,2.5742,2.5742,2.5742,2.5742,2.5742,2.5742,2.5742,2.5742,2.5742,2.5742,2.5742,2.5742,2.5742,2.5742,2.5742,2.5752,2.5986,2.7268,2.8282,2.8431,3.1092,3.2723,3.2782,3.4047,3.4839,3.4901,3.4851,3.4788,3.4726,3.4726,3.4726,3.4726,3.4223,3.4274,3.4813,3.4751,3.4751,0.0,0.0,0.0,0.0,0.0,0.0,2.6214,0.0,2.4109,0.0,0.0,0.0,0.0,0.0,0.0,0.0,2.3652,2.3965,2.3711,2.4424,2.5225,2.5928,2.6162,2.6367,2.6631,2.6494,2.5929,2.4837,2.2937,2.1426,2.0315,1.8666,1.7776,1.7776,1.7649,1.7582,1.7582,1.7582,1.7582,1.7582,1.7582,1.7582,1.7582,1.7582,1.7582,1.7582,1.7582,1.7582,1.7582,1.7582,1.7582,1.7582,1.7582,1.7582,1.7582,1.7582,1.7582,1.7582,1.7582,1.7669,1.7756,1.7622,1.8183,1.8893,1.875,2.0743,2.2984,2.292,2.4196,2.5742,2.5742,2.5742,2.5742,2.5742,2.5742,2.5742,2.5742,2.5742,2.5742,2.5742,2.5742,2.5742,2.5742,2.5742,2.5742,2.5742,2.5742,2.5742,2.5742,2.5742,2.6014,2.6754,2.7386,2.8421,2.9802,3.1099,3.2292,3.3367,3.4255,3.4575,3.4261,3.4248,3.4098,3.3771,3.3771,3.3771,3.3771,3.3533,3.3533,3.3771,3.3771,3.3935,2.9905,0.0,0.0,0.0,0.0,0.0,0.0,0.0,0.0,0.0,0.0,0.0,0.0,0.0,0.0,0.0,0.0,2.3496,2.3184,2.3672,2.4355,2.5117,2.5303,2.5498,2.582,2.5742,2.5487,2.4969,2.2728,2.1156,2.0585,1.8626,1.7582,1.7582,1.7582,1.7582,1.7582,1.7582,1.7582,1.7582,1.7582,1.7582,1.7582,1.7582,1.7582,1.7582,1.7582,1.7582,1.7582,1.7582,1.7582,1.7582,1.7582,1.7582,1.7582,1.7582,1.7582,1.7582,1.7582,1.7582,1.7687,1.7996,1.8812,1.9627,2.0033,2.1862,2.3692,2.3692,2.4716,2.5742,2.5742,2.5742,2.5742,2.5742,2.5742,2.5742,2.5742,2.5742,2.5742,2.5742,2.5742,2.5742,2.5742,2.5742,2.5742,2.5742,2.5742,2.5742,2.5742,2.5742,2.6014,2.6935,2.74,2.8319,3.0033,3.0855,3.1946,3.3558,3.4048,3.4085,3.3696,3.3671,3.3483,3.3081,3.3081,3.3081,3.3081,3.3081,3.3081,3.3081,3.3081,3.3294,0.0,0.0,0.0,2.9864,0.0,0.0,0.0,0.0,2.4457,0.0,0.0,0.0,0.0,0.0,0.0,0.0,0.0,0.0,0.0,2.3164,2.335,2.3799,2.4209,2.4463,2.4482,2.4111,2.4228,2.5059,2.218,2.0818,2.1626,1.9117,1.7582,1.7582,1.7582,1.7582,1.7582,1.7582,1.7582,1.7582,1.7582,1.7582,1.7582,1.7582,1.7582,1.7582,1.7582,1.7582,1.7582,1.7582,1.7582,1.7582,1.7582,1.7582,1.7582,1.7582,1.7582,1.7582,1.7582,1.7582,1.7786,1.9117,1.9524,1.9826,2.1245,2.2567,2.3692,2.3692,2.4716,2.5742,2.5742,2.5742,2.5742,2.5742,2.5742,2.5742,2.5742,2.5742,2.5742,2.5742,2.5742,2.5742,2.5742,2.5742,2.5742,2.5742,2.5742,2.5742,2.5742,2.5742,2.5742,2.5732,2.6849,2.7589,2.7683,2.9863,3.1777,3.3007,3.3119,3.3119,3.3106,3.3106,3.3093,3.3081,3.3081,3.3081,3.3081,3.3081,3.3081,3.3081,3.3081,3.3081,0.0,0.0,3.003,2.9842,0.0,0.0,0.0,0.0,0.0,0.0,0.0,0.0,0.0,0.0,0.0,0.0,0.0,0.0,0.0,0.0,2.3193,2.334,2.374,2.4004,2.4004,2.3877,2.4023,2.459,2.2866,2.1567,2.1263,1.9808,1.8506,1.7582,1.7582,1.7582,1.7582,1.7582,1.7582,1.7582,1.7582,1.7582,1.7575,1.7382,1.7402,1.7569,1.7382,1.7408,1.7582,1.7582,1.7582,1.7582,1.7582,1.7582,1.7582,1.7582,1.7582,1.7582,1.7582,1.7582,1.7687,1.8094,1.9524,2.1041,2.155,2.3276,2.502,2.502,2.5333,2.5742,2.5742,2.5742,2.5742,2.5742,2.5742,2.5742,2.5742,2.5742,2.5742,2.5742,2.5742,2.5742,2.5742,2.5742,2.5742,2.5742,2.5742,2.5742,2.5742,2.5742,2.5742,2.5742,2.6849,2.7955,2.868,3.1045,3.2612,3.3068,3.3081,3.3081,3.3081,3.3081,3.3081,3.3081,3.3081,3.3081,3.3081,3.3081,3.3081,3.3081,3.3081,3.3081,2.9792,2.9792,0.0,2.9792,2.9792,0.0,2.8347,0.0,2.7591,0.0,0.0,0.0,0.0,0.0,0.0,0.0,0.0,0.0,0.0,2.3135,0.0,0.0,2.3389,2.3555,2.3555,2.3555,2.373,2.416,2.3094,2.2196,2.1778,2.035,1.922,1.8297,1.7891,1.7582,1.7582,1.7582,1.7582,1.7582,1.7475,1.7428,1.7422,1.7128,1.7094,1.7261,1.7074,1.7101,1.7275,1.7275,1.7275,1.7275,1.7275,1.7275,1.7295,1.7508,1.7582,1.7582,1.7582,1.7582,1.7786,1.87,2.0231,2.1853,2.2868,2.4304,2.5742,2.5742,2.5742,2.5742,2.5742,2.5742,2.5742,2.5742,2.5742,2.5742,2.5742,2.5742,2.5742,2.5742,2.5742,2.5742,2.5742,2.5742,2.5742,2.5742,2.5742,2.5742,2.5742,2.5742,2.583,2.6294,2.7125,2.8226,2.9863,3.1512,3.2612,3.3068,3.3081,3.3081,3.3081,3.3081,3.3081,3.3081,3.3081,3.3081,3.3081,3.3081,3.3081,3.3081,3.3081,3.3081]},{"header":{"parameterUnit":"m.s-1","parameterCategory":1,"la1":30.6,"la2":29.2853,"lo1":-89.7004,"lo2":-87.6739,"dy":0.0162,"dx":0.0183,"nx":112,"ny":82,"refTime":"2024-09-04T06:00:00:Z","depth":0,"parameterNumber":3,"parameterNumberName":"V-component_of_WINDS"},"data":[0.0,0.0,0.0,0.0,0.0,0.0,0.0,0.0,0.0,0.0,0.0,0.0,0.0,0.0,0.0,0.0,0.0,0.0,0.0,0.0,0.0,0.0,0.0,0.0,0.0,0.0,0.0,0.0,0.0,0.0,0.0,0.0,0.0,0.0,0.0,0.0,0.0,0.0,0.0,0.0,0.0,0.0,0.0,0.0,0.0,0.0,0.0,0.0,0.0,0.0,0.0,0.0,0.0,0.0,0.0,0.0,0.0,0.0,0.0,0.0,0.0,0.0,0.0,0.0,0.0,0.0,0.0,0.0,0.0,0.0,0.0,0.0,0.0,0.0,0.0,0.0,0.0,0.0,0.0,0.0,0.0,0.0,0.0,0.0,0.0,0.0,0.0,0.0,0.0,0.0,4.0432,4.2286,4.3075,4.3497,4.3497,4.3497,4.2176,3.9074,0.0,0.0,0.0,0.0,0.0,0.0,0.0,0.0,0.0,0.0,0.0,0.0,0.0,0.0,0.0,0.0,0.0,0.0,0.0,0.0,0.0,0.0,0.0,0.0,0.0,0.0,0.0,0.0,0.0,0.0,0.0,0.0,0.0,0.0,0.0,0.0,0.0,0.0,0.0,0.0,0.0,0.0,0.0,0.0,0.0,0.0,0.0,0.0,0.0,0.0,0.0,0.0,0.0,0.0,0.0,0.0,0.0,0.0,0.0,0.0,0.0,0.0,0.0,0.0,0.0,0.0,0.0,0.0,0.0,0.0,0.0,0.0,0.0,0.0,0.0,0.0,0.0,0.0,0.0,0.0,0.0,0.0,0.0,0.0,0.0,0.0,0.0,0.0,0.0,0.0,0.0,0.0,0.0,0.0,0.0,0.0,0.0,0.0,0.0,0.0,0.0,0.0,0.0,0.0,4.0029,4.3002,4.3424,4.3497,4.3497,4.3497,4.2415,3.9882,0.0,0.0,0.0,0.0,0.0,0.0,0.0,0.0,0.0,0.0,0.0,0.0,0.0,0.0,0.0,0.0,0.0,0.0,0.0,0.0,0.0,0.0,0.0,0.0,0.0,0.0,0.0,0.0,0.0,0.0,0.0,0.0,0.0,0.0,0.0,0.0,0.0,0.0,0.0,0.0,0.0,0.0,0.0,0.0,0.0,0.0,0.0,0.0,0.0,0.0,0.0,0.0,0.0,0.0,0.0,0.0,0.0,0.0,0.0,0.0,0.0,0.0,0.0,0.0,0.0,0.0,0.0,0.0,0.0,0.0,0.0,0.0,0.0,0.0,0.0,0.0,0.0,0.0,0.0,0.0,0.0,0.0,0.0,0.0,0.0,0.0,0.0,0.0,0.0,0.0,0.0,0.0,0.0,0.0,0.0,0.0,0.0,0.0,0.0,0.0,0.0,0.0,0.0,3.9313,4.091,4.324,4.3497,4.3497,4.3497,4.3497,4.2268,3.9423,3.7734,0.0,0.0,0.0,0.0,0.0,0.0,0.0,0.0,0.0,0.0,0.0,0.0,0.0,0.0,0.0,0.0,0.0,0.0,0.0,0.0,0.0,0.0,0.0,0.0,0.0,0.0,0.0,0.0,0.0,0.0,0.0,0.0,0.0,0.0,0.0,0.0,0.0,0.0,0.0,0.0,0.0,0.0,0.0,0.0,0.0,0.0,0.0,0.0,0.0,0.0,0.0,0.0,0.0,0.0,0.0,0.0,0.0,0.0,0.0,0.0,0.0,0.0,0.0,0.0,0.0,0.0,0.0,0.0,0.0,0.0,0.0,0.0,0.0,0.0,0.0,0.0,0.0,0.0,0.0,0.0,0.0,0.0,0.0,0.0,0.0,0.0,0.0,0.0,0.0,0.0,0.0,0.0,0.0,0.0,0.0,0.0,0.0,0.0,0.0,0.0,0.0,0.0,4.1203,4.2139,4.3369,4.3497,4.3497,4.3497,4.3149,4.1717,3.8891,3.6817,0.0,0.0,0.0,0.0,0.0,0.0,0.0,0.0,0.0,0.0,0.0,0.0,0.0,0.0,0.0,0.0,0.0,0.0,0.0,0.0,0.0,0.0,0.0,0.0,0.0,0.0,0.0,0.0,0.0,0.0,0.0,0.0,0.0,0.0,0.0,0.0,0.0,0.0,0.0,0.0,0.0,0.0,0.0,0.0,0.0,0.0,0.0,0.0,0.0,0.0,0.0,0.0,0.0,0.0,0.0,0.0,0.0,0.0,0.0,0.0,0.0,0.0,0.0,0.0,0.0,0.0,0.0,0.0,0.0,0.0,0.0,0.0,0.0,0.0,0.0,0.0,0.0,0.0,0.0,0.0,0.0,0.0,0.0,0.0,0.0,0.0,0.0,0.0,0.0,0.0,0.0,0.0,0.0,0.0,0.0,0.0,0.0,0.0,0.0,0.0,0.0,0.0,4.1479,4.3369,4.3479,4.3497,4.3497,4.3497,4.2139,4.0543,3.8817,3.5734,0.0,0.0,0.0,0.0,0.0,0.0,0.0,0.0,0.0,0.0,0.0,0.0,0.0,0.0,0.0,0.0,0.0,0.0,0.0,0.0,0.0,0.0,0.0,0.0,0.0,0.0,0.0,0.0,0.0,0.0,0.0,0.0,0.0,0.0,0.0,0.0,0.0,0.0,0.0,0.0,0.0,0.0,0.0,0.0,0.0,0.0,0.0,0.0,0.0,0.0,0.0,0.0,0.0,0.0,0.0,0.0,0.0,0.0,0.0,0.0,0.0,0.0,0.0,0.0,0.0,0.0,0.0,0.0,0.0,0.0,0.0,0.0,0.0,0.0,0.0,0.0,0.0,0.0,0.0,0.0,0.0,0.0,0.0,0.0,0.0,0.0,0.0,0.0,0.0,0.0,0.0,0.0,0.0,0.0,0.0,0.0,0.0,0.0,0.0,0.0,0.0,0.0,4.0634,4.2396,4.3387,4.3497,4.3497,4.3497,4.2488,4.0726,3.812,0.0,0.0,0.0,0.0,0.0,0.0,0.0,0.0,0.0,0.0,0.0,0.0,0.0,0.0,0.0,0.0,0.0,0.0,0.0,0.0,0.0,0.0,0.0,0.0,0.0,0.0,0.0,0.0,0.0,0.0,0.0,0.0,0.0,0.0,0.0,0.0,0.0,0.0,0.0,0.0,0.0,0.0,0.0,0.0,0.0,0.0,0.0,0.0,0.0,0.0,0.0,0.0,0.0,0.0,0.0,0.0,0.0,0.0,0.0,0.0,0.0,0.0,0.0,0.0,0.0,0.0,0.0,0.0,0.0,0.0,0.0,0.0,0.0,0.0,0.0,0.0,0.0,0.0,0.0,0.0,0.0,0.0,0.0,0.0,0.0,0.0,0.0,0.0,0.0,0.0,0.0,0.0,0.0,0.0,0.0,0.0,0.0,0.0,0.0,0.0,0.0,0.0,3.837,4.0561,4.2286,4.3369,4.3497,4.3497,4.3497,4.2286,4.0377,3.7691,0.0,0.0,0.0,0.0,0.0,0.0,0.0,0.0,0.0,0.0,0.0,0.0,0.0,0.0,0.0,0.0,0.0,0.0,0.0,0.0,0.0,0.0,0.0,0.0,0.0,0.0,0.0,0.0,0.0,0.0,0.0,0.0,0.0,0.0,0.0,0.0,0.0,0.0,0.0,0.0,0.0,0.0,0.0,0.0,0.0,0.0,0.0,0.0,0.0,0.0,0.0,0.0,0.0,0.0,0.0,0.0,0.0,0.0,0.0,0.0,0.0,0.0,0.0,0.0,0.0,0.0,0.0,0.0,0.0,0.0,0.0,0.0,0.0,0.0,0.0,0.0,0.0,0.0,0.0,0.0,0.0,0.0,0.0,0.0,0.0,0.0,0.0,0.0,0.0,0.0,0.0,0.0,0.0,0.0,0.0,0.0,0.0,0.0,0.0,0.0,0.0,0.0,3.8517,4.1497,4.3532,4.3532,4.3479,4.3479,4.3532,4.1295,3.9221,0.0,0.0,0.0,0.0,0.0,0.0,0.0,0.0,0.0,0.0,0.0,0.0,0.0,0.0,0.0,0.0,0.0,0.0,0.0,0.0,0.0,0.0,0.0,0.0,0.0,0.0,0.0,0.0,0.0,0.0,0.0,0.0,0.0,0.0,0.0,0.0,0.0,0.0,0.0,0.0,0.0,0.0,0.0,0.0,0.0,0.0,0.0,0.0,0.0,0.0,0.0,0.0,0.0,0.0,0.0,0.0,0.0,0.0,0.0,0.0,0.0,0.0,0.0,0.0,0.0,0.0,0.0,0.0,0.0,0.0,0.0,0.0,0.0,0.0,0.0,0.0,0.0,0.0,0.0,0.0,0.0,0.0,0.0,0.0,0.0,0.0,0.0,0.0,0.0,0.0,0.0,0.0,0.0,0.0,0.0,0.0,0.0,0.0,0.0,0.0,0.0,0.0,0.0,3.8832,4.1816,4.3849,4.3849,4.3646,4.3597,4.3818,4.1917,3.9588,3.6817,0.0,0.0,0.0,0.0,0.0,0.0,0.0,0.0,0.0,0.0,0.0,0.0,0.0,0.0,0.0,0.0,0.0,0.0,0.0,0.0,0.0,0.0,0.0,0.0,0.0,0.0,0.0,0.0,0.0,0.0,0.0,0.0,0.0,0.0,0.0,0.0,0.0,0.0,0.0,0.0,0.0,0.0,0.0,0.0,0.0,0.0,0.0,0.0,0.0,0.0,0.0,0.0,0.0,0.0,0.0,0.0,0.0,0.0,0.0,0.0,0.0,0.0,0.0,0.0,0.0,0.0,0.0,0.0,0.0,0.0,0.0,0.0,0.0,0.0,0.0,0.0,0.0,0.0,0.0,0.0,0.0,0.0,0.0,0.0,0.0,0.0,0.0,0.0,0.0,0.0,0.0,0.0,0.0,0.0,0.0,0.0,0.0,0.0,0.0,0.0,0.0,0.0,3.9146,4.2183,4.4233,4.4233,4.3912,4.3772,4.3986,4.2511,4.0212,3.6982,0.0,0.0,0.0,0.0,0.0,0.0,0.0,0.0,0.0,0.0,0.0,0.0,0.0,0.0,0.0,0.0,0.0,0.0,0.0,0.0,0.0,0.0,0.0,0.0,0.0,0.0,0.0,0.0,0.0,0.0,0.0,0.0,0.0,0.0,0.0,0.0,0.0,0.0,0.0,0.0,0.0,0.0,0.0,0.0,0.0,0.0,0.0,0.0,0.0,0.0,0.0,0.0,0.0,0.0,0.0,0.0,0.0,0.0,0.0,0.0,0.0,0.0,0.0,0.0,0.0,0.0,0.0,0.0,0.0,0.0,0.0,0.0,0.0,0.0,0.0,0.0,0.0,0.0,0.0,0.0,0.0,0.0,0.0,0.0,0.0,0.0,0.0,0.0,0.0,0.0,0.0,0.0,0.0,0.0,0.0,0.0,0.0,0.0,0.0,0.0,0.0,0.0,3.946,4.2573,4.465,4.465,4.429,4.4076,4.4076,4.3019,4.0979,3.7819,0.0,0.0,0.0,0.0,0.0,0.0,0.0,0.0,0.0,0.0,0.0,0.0,0.0,0.0,0.0,0.0,0.0,0.0,0.0,0.0,0.0,0.0,0.0,0.0,0.0,0.0,0.0,0.0,0.0,0.0,0.0,0.0,0.0,0.0,0.0,0.0,0.0,0.0,0.0,0.0,0.0,0.0,0.0,0.0,0.0,0.0,0.0,0.0,0.0,0.0,0.0,0.0,0.0,0.0,0.0,0.0,0.0,0.0,0.0,0.0,3.7349,3.6633,0.0,0.0,0.0,0.0,0.0,0.0,0.0,0.0,0.0,0.0,0.0,0.0,0.0,0.0,0.0,0.0,0.0,0.0,0.0,0.0,0.0,0.0,0.0,0.0,0.0,0.0,0.0,0.0,0.0,0.0,0.0,0.0,0.0,0.0,0.0,0.0,0.0,0.0,0.0,0.0,3.9831,4.2892,4.4988,4.4988,4.4682,4.4474,4.4474,4.337,4.1471,3.8628,3.6927,0.0,0.0,0.0,0.0,0.0,0.0,0.0,0.0,0.0,0.0,0.0,0.0,0.0,0.0,0.0,0.0,0.0,0.0,0.0,0.0,0.0,0.0,0.0,0.0,0.0,0.0,0.0,0.0,0.0,0.0,0.0,0.0,0.0,0.0,0.0,0.0,0.0,0.0,0.0,0.0,0.0,0.0,0.0,0.0,0.0,0.0,0.0,0.0,0.0,0.0,0.0,0.0,0.0,0.0,0.0,0.0,0.0,0.0,0.0,3.9863,3.9074,0.0,0.0,0.0,0.0,0.0,0.0,0.0,0.0,0.0,0.0,0.0,0.0,0.0,0.0,0.0,0.0,0.0,0.0,0.0,0.0,0.0,0.0,0.0,0.0,0.0,0.0,0.0,0.0,0.0,0.0,0.0,0.0,0.0,0.0,0.0,0.0,0.0,0.0,0.0,0.0,4.0727,4.3484,4.5342,4.5342,4.5052,4.4776,4.4606,4.384,4.2377,4.0005,3.834,0.0,0.0,0.0,0.0,0.0,0.0,0.0,0.0,0.0,0.0,0.0,0.0,0.0,0.0,0.0,0.0,0.0,0.0,0.0,0.0,0.0,0.0,0.0,0.0,0.0,0.0,0.0,0.0,0.0,0.0,0.0,0.0,0.0,0.0,0.0,0.0,0.0,0.0,0.0,0.0,0.0,0.0,0.0,0.0,0.0,0.0,0.0,0.0,0.0,0.0,0.0,0.0,0.0,4.5314,4.5259,4.436,4.5021,4.5259,4.4966,4.2158,4.1625,4.2598,4.113,0.0,0.0,0.0,0.0,0.0,0.0,0.0,0.0,0.0,0.0,0.0,0.0,0.0,0.0,0.0,0.0,0.0,0.0,0.0,0.0,0.0,0.0,0.0,0.0,4.2221,4.2147,4.0166,0.0,0.0,0.0,0.0,0.0,0.0,0.0,0.0,0.0,0.0,0.0,4.1835,4.4124,4.5586,4.5586,4.5342,4.5052,4.4726,4.4373,4.3383,4.1498,4.0025,3.8523,0.0,0.0,0.0,0.0,0.0,0.0,0.0,0.0,0.0,0.0,0.0,0.0,0.0,0.0,0.0,0.0,0.0,0.0,0.0,0.0,0.0,0.0,0.0,0.0,0.0,0.0,0.0,0.0,0.0,0.0,0.0,0.0,3.8329,3.867,0.0,0.0,0.0,0.0,0.0,0.0,0.0,0.0,0.0,0.0,0.0,0.0,0.0,4.6104,4.7498,4.8361,4.8416,4.77,4.926,4.9187,4.7682,4.7792,4.7443,4.6746,4.5608,0.0,4.4323,4.3387,0.0,0.0,0.0,0.0,0.0,0.0,0.0,0.0,0.0,0.0,0.0,0.0,0.0,0.0,0.0,0.0,0.0,0.0,0.0,0.0,0.0,0.0,4.37,4.4045,4.4221,4.4202,0.0,4.207,4.0472,4.032,4.0176,0.0,0.0,0.0,0.0,0.0,0.0,0.0,4.2797,4.4489,4.5586,4.5586,4.5568,4.54,4.5074,4.4988,4.4266,4.2694,4.1704,4.0685,3.9491,3.7955,0.0,0.0,0.0,0.0,0.0,0.0,0.0,0.0,0.0,0.0,0.0,0.0,0.0,0.0,0.0,0.0,0.0,0.0,0.0,0.0,0.0,0.0,0.0,0.0,0.0,0.0,0.0,0.0,0.0,3.7167,3.9598,3.9911,4.1104,4.174,0.0,0.0,0.0,0.0,0.0,0.0,0.0,0.0,0.0,4.7205,4.7682,4.8251,4.8967,4.9829,5.0086,4.9719,5.0453,5.0417,4.9719,4.9719,4.9279,4.8489,4.8328,4.7789,4.6956,4.544,4.4378,4.3608,0.0,0.0,0.0,0.0,4.313,4.3204,4.3644,4.3809,4.3516,4.1791,0.0,0.0,0.0,0.0,0.0,0.0,0.0,4.2261,0.0,0.0,4.4373,4.4553,4.458,4.458,4.458,4.388,4.3069,0.0,4.2408,4.1855,4.0242,0.0,0.0,0.0,0.0,4.2835,4.3662,4.4836,4.5586,4.5586,4.5586,4.5457,4.5118,4.5096,4.4635,4.3535,4.2723,4.1969,4.1291,4.0139,3.9129,0.0,0.0,0.0,0.0,0.0,0.0,0.0,0.0,0.0,0.0,0.0,0.0,0.0,0.0,0.0,0.0,0.0,0.0,0.0,0.0,0.0,0.0,0.0,0.0,0.0,0.0,0.0,0.0,3.9112,4.1173,4.122,4.2699,4.345,0.0,0.0,0.0,0.0,0.0,0.0,4.6764,4.7407,4.8214,4.9205,4.9829,5.0233,5.0435,5.1096,5.1408,5.1408,5.1408,5.147,5.1553,5.1332,5.0968,5.0528,5.057,5.0127,4.9249,4.7315,4.611,4.5436,4.5234,4.4722,4.4176,4.48,4.5021,4.5094,4.5806,4.6044,4.5785,4.3977,4.303,4.2231,4.023,0.0,0.0,0.0,0.0,4.3263,4.3968,4.4428,4.4732,4.4849,4.4872,4.4872,4.4872,4.5033,4.501,0.0,4.4204,4.3675,4.1783,0.0,0.0,0.0,0.0,4.3701,4.4528,4.5201,4.5586,4.5586,4.5586,4.5495,4.5243,4.5222,4.4924,4.4204,4.3596,4.3062,4.2632,4.2029,4.135,4.0524,0.0,0.0,0.0,0.0,0.0,0.0,0.0,0.0,0.0,0.0,0.0,0.0,0.0,0.0,0.0,0.0,0.0,0.0,0.0,0.0,0.0,0.0,0.0,0.0,0.0,0.0,0.0,0.0,0.0,4.2781,4.5128,0.0,0.0,0.0,0.0,4.5718,4.7168,4.8453,4.9352,4.9426,5.0178,5.1756,5.1848,5.2234,5.3023,5.3078,5.3096,5.3096,5.3096,5.3271,5.3628,5.2846,5.2719,5.3,5.222,5.1428,5.0579,4.8871,4.792,4.7467,4.6717,4.6157,4.5773,4.581,4.5847,4.5901,4.6312,4.6475,4.6438,4.6307,4.5008,4.3259,4.2396,4.2158,0.0,0.0,4.3074,4.405,4.4455,4.4806,4.5159,4.5457,4.555,4.555,4.555,4.5568,4.5475,0.0,4.5285,4.522,4.4278,0.0,4.4162,4.4124,4.4182,4.4547,4.5413,4.5566,4.5586,4.5586,4.5586,4.5586,4.5568,4.5568,4.5283,4.4606,4.4542,4.4195,4.3458,4.3387,4.3002,4.2194,4.0598,0.0,0.0,0.0,0.0,0.0,0.0,0.0,0.0,0.0,0.0,0.0,0.0,0.0,0.0,0.0,0.0,0.0,0.0,0.0,0.0,0.0,0.0,0.0,0.0,0.0,0.0,0.0,0.0,4.4944,4.6835,0.0,4.669,4.7113,4.7664,4.8177,4.9279,5.0508,5.1848,5.2399,5.3188,5.4271,5.4308,5.4197,5.3977,5.3977,5.372,5.3206,5.3206,5.3272,5.3404,5.3385,5.3177,5.2844,5.3061,5.2718,5.1901,5.1304,5.0194,4.8795,4.8263,4.7939,4.7821,4.7821,4.7821,4.789,4.8278,4.8278,4.782,4.6548,4.5272,4.4121,4.3314,4.3057,4.3057,4.3057,4.3708,4.4419,4.4553,4.5011,4.5438,4.5568,4.5586,4.5586,4.5586,4.5586,4.5568,4.5438,4.5513,4.5316,4.4451,4.4759,4.4951,4.4374,4.4778,4.524,4.5547,4.5586,4.5586,4.5586,4.5586,4.5586,4.5586,4.5586,4.5073,4.3844,4.3756,4.3428,4.2742,4.2727,4.2837,4.3057,4.1497,3.9478,0.0,0.0,0.0,0.0,0.0,0.0,0.0,0.0,0.0,0.0,0.0,0.0,0.0,0.0,0.0,0.0,0.0,0.0,0.0,0.0,0.0,0.0,0.0,0.0,0.0,4.3807,4.5605,4.6817,4.8605,4.9458,4.8799,4.9224,4.9884,5.0692,5.1536,5.2601,5.394,5.4528,5.5042,5.5574,5.5592,5.5335,5.4803,5.4546,5.4124,5.361,5.3335,5.3272,5.3422,5.3701,5.3678,5.3475,5.3848,5.372,5.3221,5.3054,5.2113,5.0669,4.9833,4.9519,4.9501,4.922,4.9108,4.9171,4.9561,4.9532,4.9039,4.7299,4.6067,4.5121,4.4209,4.3718,4.3513,4.3646,4.4125,4.465,4.4751,4.5182,4.5586,4.5586,4.5586,4.5586,4.5586,4.5586,4.5586,4.5586,4.5586,4.5413,4.4836,4.522,4.5393,4.4816,4.522,4.5586,4.5586,4.5586,4.5586,4.5586,4.5586,4.5586,4.5586,4.5316,4.4748,4.3806,4.3473,4.3109,4.2705,4.2433,4.2543,4.3075,4.1515,3.9772,3.79,0.0,0.0,0.0,0.0,0.0,0.0,0.0,0.0,0.0,0.0,0.0,0.0,0.0,0.0,0.0,0.0,0.0,0.0,0.0,0.0,0.0,0.0,0.0,4.375,4.6681,4.8575,4.843,5.0582,5.1444,4.9884,5.1169,5.2435,5.3225,5.4014,5.4785,5.5574,5.5629,5.5647,5.5666,5.5666,5.5647,5.5629,5.4858,5.4454,5.4436,5.3628,5.3418,5.3814,5.3814,5.4284,5.5061,5.472,5.4542,5.4509,5.4033,5.3604,5.3102,5.1375,5.0749,5.0703,4.9853,4.9532,4.9589,4.9974,5.0092,4.9891,4.868,4.7492,4.6275,4.5086,4.4156,4.3597,4.3924,4.429,4.4682,4.503,4.5342,4.5586,4.5586,4.5586,4.5586,4.5586,4.5586,4.5586,4.5586,4.5586,4.5586,4.5586,4.5586,4.5586,4.5586,4.5586,0.0,4.5586,4.5586,4.5586,4.5586,4.5586,4.5586,4.5586,4.4816,4.4403,4.4537,4.3787,4.3343,4.344,4.2708,4.2304,4.2341,4.0763,3.9551,3.8781,0.0,0.0,0.0,0.0,0.0,0.0,0.0,0.0,0.0,0.0,0.0,0.0,0.0,0.0,0.0,0.0,0.0,0.0,0.0,0.0,0.0,4.2591,4.4369,4.6383,4.7914,4.9341,5.079,5.2601,5.3573,5.3115,5.3995,5.4693,5.4913,5.5133,5.5611,5.6436,5.6473,5.6748,5.7317,5.7336,5.706,5.6473,5.6253,5.5849,5.5244,5.4454,5.4136,5.4248,5.4276,5.442,5.4671,5.516,5.5355,5.5335,5.4937,5.4853,5.4737,5.2163,5.1147,5.1052,5.0253,5.0135,5.0336,5.0159,5.0092,4.9891,4.868,4.7636,4.6694,4.5771,4.4936,4.4308,4.4419,4.4682,4.4966,4.5074,4.5342,4.5586,4.5586,4.5586,4.5586,4.5586,4.5586,4.5586,4.5586,4.5586,4.5586,4.5586,4.5586,4.5586,4.5586,4.5586,0.0,4.5586,4.5586,4.5586,4.5586,4.5586,4.5586,4.5586,4.5374,4.4786,4.3731,4.3435,4.3091,4.265,4.2415,4.2561,4.3149,4.1589,4.0671,0.0,0.0,0.0,0.0,0.0,0.0,0.0,0.0,0.0,0.0,0.0,0.0,0.0,0.0,0.0,0.0,0.0,0.0,0.0,0.0,0.0,0.0,4.4678,4.6702,4.8826,4.9242,5.0295,5.2712,5.383,5.4528,5.4858,5.5317,5.5739,5.6069,5.6106,5.6455,5.7262,5.7299,5.7519,5.7997,5.7997,5.7776,5.7317,5.6969,5.6565,5.6088,5.528,5.4822,5.4667,5.4689,5.474,5.4779,5.5061,5.5399,5.5662,5.5282,5.5331,0.0,0.0,0.0,0.0,0.0,5.0504,5.0663,5.0421,5.0358,5.0195,4.9353,4.8484,4.7681,4.7057,4.604,4.5141,4.5268,4.5209,4.5118,4.5263,4.5438,4.5586,4.5586,4.5586,4.5586,4.5586,4.5586,4.5586,4.5586,4.5586,0.0,4.5586,4.5586,4.5586,4.5586,4.5586,4.5586,4.5586,4.5586,4.5586,4.5586,4.5586,4.5586,4.5586,4.5131,0.0,0.0,0.0,4.2845,4.232,4.2304,0.0,0.0,0.0,0.0,0.0,0.0,0.0,0.0,4.1776,4.1859,0.0,0.0,0.0,0.0,0.0,0.0,0.0,0.0,0.0,0.0,0.0,0.0,0.0,0.0,0.0,0.0,4.7055,4.8762,5.1034,5.0819,5.1392,5.4085,5.4473,5.484,5.5647,5.5812,5.6161,5.6877,5.695,5.7262,5.796,5.7997,0.0,0.0,0.0,5.7997,5.7997,5.7299,5.695,5.6932,5.6106,5.5581,5.5286,5.523,5.5296,5.5374,5.495,5.5187,5.5797,5.5345,5.5375,5.5566,5.4254,5.3441,5.2856,5.1279,5.0702,5.0702,5.0702,0.0,0.0,5.0272,4.9629,4.8895,4.8522,4.7299,4.6108,4.6294,4.5867,4.5356,4.5551,4.5586,4.5586,4.5586,4.5586,4.5586,4.5586,4.5586,4.5586,4.5586,4.5586,4.5586,4.5586,4.5586,4.5586,4.5586,4.5586,4.5586,4.5586,4.5586,4.5586,4.5586,0.0,0.0,4.5586,4.4594,4.4144,4.4568,4.3511,4.2736,4.2433,4.2525,4.291,4.3608,4.3718,4.447,4.5902,4.5993,4.6049,4.6012,4.4756,4.4552,0.0,0.0,0.0,0.0,0.0,0.0,0.0,0.0,0.0,0.0,0.0,0.0,0.0,0.0,0.0,4.7208,4.8209,4.9784,5.257,5.2821,5.3149,5.4287,5.4968,5.5666,5.6492,5.7152,5.7593,5.7758,5.7776,5.7831,5.7997,5.7997,5.7997,5.7997,5.7997,5.7997,5.7997,5.785,5.7776,5.7758,0.0,0.0,5.6999,5.6682,5.6759,5.7099,5.6696,5.6614,5.6684,5.5907,5.564,5.5549,5.3947,5.2833,5.2029,5.1048,5.0702,5.0702,5.0702,5.0702,5.0683,5.0604,4.9988,4.9297,4.9198,4.8488,0.0,4.6935,4.6666,4.6416,4.5778,4.5586,4.5586,4.5586,4.5586,4.5586,4.5586,4.5586,4.5586,4.5586,4.5586,4.5586,4.5586,4.5586,4.5586,4.5586,4.5586,4.5586,4.5586,4.5586,4.5586,4.5586,4.5586,4.5586,4.5586,4.5149,4.4772,4.4606,4.3813,4.3343,4.3259,4.3883,4.4323,4.447,4.5112,4.559,4.5902,4.6562,4.6874,4.6837,4.6096,4.5548,0.0,0.0,0.0,0.0,0.0,0.0,0.0,0.0,0.0,0.0,0.0,4.32,4.4333,0.0,4.7293,4.8765,5.0274,5.1708,5.3172,5.4056,5.4774,5.5485,5.5959,5.6528,5.7317,5.7758,5.7997,5.7997,5.7997,5.7997,5.7997,5.7997,5.7997,5.7997,5.7997,5.7997,5.7997,5.7997,5.7997,5.7997,5.7593,5.7426,5.7465,5.7486,5.7542,5.7614,5.7642,5.7646,5.7569,5.6703,5.5961,5.5308,5.4254,5.3196,5.2165,5.1547,5.0929,5.0421,5.0624,5.0702,5.0702,5.0702,5.0414,5.0048,5.0048,4.9433,4.8663,4.8259,4.7548,4.6797,4.6355,4.5932,4.5586,4.5586,4.5586,4.5586,4.5586,4.5586,4.5586,4.5586,4.5586,4.5586,4.5586,4.5586,4.5586,4.5586,4.5586,4.5586,4.5586,4.5586,4.5586,4.5586,4.5586,4.5531,4.5362,4.4877,4.4401,4.4065,4.3712,4.3681,4.4085,4.4488,4.5094,4.5902,4.6305,4.6709,4.7095,4.7517,4.7719,4.7681,4.7075,4.6426,0.0,0.0,0.0,0.0,0.0,0.0,0.0,4.0747,4.1559,4.2895,4.3876,4.506,4.6887,4.7953,4.9001,5.0304,5.2129,5.3523,5.383,5.5013,5.6154,5.695,5.6914,5.7134,5.7923,5.7997,5.7997,5.7997,5.7997,5.7997,5.7997,5.7997,5.7997,5.7997,5.7997,5.7997,5.7997,5.7997,5.7997,5.7997,5.7997,5.7906,5.7667,5.8034,5.8131,5.7967,5.8176,5.8213,5.8112,5.7209,5.6304,5.5409,5.4837,5.3843,5.2641,5.2012,5.1067,5.0159,5.0483,5.0624,5.0702,5.0702,5.0702,5.0702,5.0702,5.0202,4.9625,4.9452,4.8432,4.7355,4.7182,4.6509,4.5836,4.5836,4.572,4.5586,4.5586,4.5586,4.5586,4.5586,4.5586,4.5586,4.5586,4.5586,4.5586,4.5586,4.5586,4.5586,4.5586,4.5586,4.5568,4.5513,4.5495,4.5342,4.4924,4.4327,4.3849,4.3513,4.3497,4.3864,4.4672,4.4856,4.5626,4.7095,4.726,4.7664,4.8306,4.8306,4.8306,4.8267,4.7572,4.691,3.8903,3.887,3.9191,4.051,4.139,4.2455,0.0,4.501,4.5314,4.6126,4.7394,4.846,4.8714,4.9898,5.1116,5.1928,5.2877,5.3969,5.5239,5.6223,5.7048,5.7804,5.7226,5.7134,5.7923,5.7997,5.7997,5.7997,5.7997,5.7997,5.7997,5.7997,5.7997,5.7997,5.7997,5.7997,5.7997,5.7997,5.7997,5.7997,5.7997,5.8183,5.8564,5.8586,5.8822,5.9156,5.8434,5.7939,5.7595,5.6736,5.6537,5.6652,5.5473,5.4239,5.2983,5.1815,5.0846,5.0111,5.0159,5.0399,5.0702,5.0702,5.0702,5.0702,5.0702,5.0625,5.0375,4.9625,4.926,4.8933,4.8163,4.7355,4.6759,4.6759,4.6163,4.5586,4.5586,4.5586,4.5586,4.5586,4.5586,4.5586,4.5586,4.5586,4.5586,4.5586,4.5586,4.5586,4.5586,4.5586,4.5495,4.5201,4.5159,4.4877,4.4175,4.4058,4.3849,4.3513,4.3497,4.3864,4.4672,4.5388,4.6195,4.7095,4.781,4.8214,4.8306,4.8306,4.8306,4.8267,4.7088,4.6478,4.0054,4.0595,4.117,4.2236,4.3064,4.3978,4.5382,4.5703,4.6041,4.7208,4.8274,4.9272,5.0135,5.115,5.2097,5.2875,5.3609,5.4513,5.5557,5.6367,5.7184,5.7886,5.7703,5.7629,5.796,5.7997,5.7997,5.7997,5.7997,5.7997,5.7997,5.7997,5.7997,5.7997,5.7997,5.7997,5.7997,5.7997,5.7997,5.7997,5.7997,5.8097,5.8307,5.8591,5.8951,5.937,5.9012,5.8509,5.7946,5.7796,5.7149,5.6207,5.5965,5.4753,5.3081,5.2087,5.1026,5.0086,5.0095,5.0206,5.0399,5.0624,5.0702,5.0702,5.0702,5.0702,5.0606,5.026,4.9779,4.9317,4.8952,4.824,4.7605,4.7605,4.7317,4.7048,4.7048,4.6682,4.6355,4.6355,4.5951,4.5586,4.5586,4.5438,4.5322,4.5322,4.5476,4.5531,4.5342,4.5322,4.518,4.4849,4.4587,4.4346,4.4046,4.3836,4.3848,4.4176,4.4195,4.4782,4.6049,4.6434,4.6985,4.7792,4.8141,4.8306,4.8306,4.8306,4.8306,4.8267,4.7367,4.7005,4.0849,4.1728,4.2523,4.3487,4.4468,4.5382,4.6143,4.6464,4.6921,4.8003,4.8798,4.9695,5.098,5.1809,5.2553,5.3365,5.45,5.5329,5.5685,5.6777,5.7655,5.7969,5.7997,5.7997,5.7997,5.7997,5.8088,5.8309,5.8327,5.8437,5.8639,5.8657,5.8565,5.8345,5.8327,5.8217,5.7997,5.7997,5.7997,5.7997,5.7997,5.7997,5.7997,5.8351,5.8694,5.9009,5.9009,5.8746,5.8345,5.8405,5.7592,5.6347,5.6102,5.5051,5.3555,5.2409,5.1409,5.06,5.0372,5.0361,5.0422,5.0498,5.0604,5.0702,5.0702,5.0702,5.0702,5.0702,5.024,4.976,4.976,4.9106,4.8471,4.8471,4.8279,4.8105,4.8105,4.7644,4.724,4.724,4.6547,4.5914,4.5802,4.5587,4.5395,4.5327,4.5693,4.5738,4.5045,4.4872,4.4783,4.4775,4.4207,4.4035,4.448,4.4107,4.4176,4.4984,4.5039,4.5663,4.702,4.7113,4.7498,4.8288,4.8306,4.8306,4.8306,4.8306,4.8339,4.8324,4.7728,4.7522,4.0984,4.1728,4.2658,4.4164,4.5652,4.6921,4.7682,4.8392,4.8917,4.8968,4.9543,5.0287,5.1065,5.1809,5.2553,5.3365,5.5382,5.6556,5.5812,5.7699,5.8831,5.8088,5.7997,5.7997,5.7997,5.7997,5.8327,5.9116,5.9171,5.952,6.0291,6.0327,5.9979,5.9208,5.9171,5.8804,5.7997,5.7997,5.7997,5.7997,5.7997,5.7997,5.7997,5.7997,5.8042,5.8024,5.8024,5.8307,5.8641,5.7782,5.766,5.7831,5.5827,5.5025,5.4726,5.2718,5.1973,5.1843,5.1043,5.0987,5.1135,5.0359,5.038,5.0702,5.0702,5.0702,5.0702,5.0702,5.0664,5.0644,5.0644,5.001,4.9356,4.9356,4.8702,4.8105,4.8105,4.8086,4.8067,4.8067,4.7413,4.6743,4.6345,4.6279,4.614,4.5814,4.6439,4.6391,4.4813,4.4261,4.4345,4.5097,4.4188,4.4156,4.5718,4.5112,4.5021,4.581,4.5865,4.625,4.7095,4.7113,4.7498,4.8288,4.8306,4.8306,4.8306,4.8306,4.8397,4.8496,4.7885,4.7608,4.1728,4.2844,4.4164,4.5669,4.6802,4.7733,4.8477,4.8832,4.9001,4.9001,4.9593,5.0168,5.0422,5.1471,5.2553,5.3365,5.5029,5.6465,5.7205,5.8448,5.9124,5.8849,5.9281,5.9391,5.8859,5.8309,5.8327,5.9153,5.9208,5.9557,6.0364,6.0401,6.0291,6.0015,6.0015,5.9869,5.9593,5.9061,5.8804,5.8804,5.8253,5.7997,5.7997,5.7997,5.7997,5.7997,5.7997,5.8282,5.8676,5.8396,5.8029,5.7622,5.6947,5.5993,5.4912,5.4238,5.3665,5.2984,5.16,5.1049,5.0894,5.0888,5.0818,5.0702,5.0702,5.0702,5.0702,5.0702,5.0702,5.0702,5.0702,5.0471,5.026,5.026,5.0029,4.9759,4.9496,4.8971,4.8483,4.8213,4.7517,4.6922,4.6777,4.6543,4.6244,4.5923,4.6289,4.6408,4.5877,4.5463,4.5342,4.5653,4.5329,4.5314,4.5847,4.5645,4.5847,4.6654,4.6709,4.7076,4.7865,4.7921,4.8031,4.8306,4.8857,4.915,4.915,4.9701,4.9747,4.9307,4.8687,4.8135,4.2422,4.3623,4.4925,4.6413,4.7361,4.8105,4.8832,4.9001,4.8934,4.8663,4.8984,4.939,4.9661,5.0693,5.1944,5.3281,5.5252,5.7021,5.8372,5.9448,6.0084,6.0048,6.0511,6.0511,5.9722,5.9428,5.9501,6.0034,6.007,6.0419,6.1227,6.1263,6.1135,6.0841,6.0823,6.0694,6.0401,5.9905,5.9501,5.9208,5.8382,5.7997,5.7997,5.7997,5.7997,5.7997,5.7997,5.8168,5.8461,5.8461,5.8145,5.7645,5.7367,5.6607,5.5566,5.4973,5.4475,5.379,5.2289,5.1585,5.1375,5.1528,5.1261,5.0945,5.1105,5.0933,5.0702,5.0702,5.0702,5.0702,5.0702,5.0702,5.0702,5.0702,5.0604,5.0421,5.0159,4.9556,4.8984,4.8702,4.8004,4.7382,4.7256,4.6903,4.6683,4.6746,4.6945,4.6879,4.6305,4.6026,4.6012,4.6305,4.6067,4.6122,4.6709,4.6489,4.6673,4.7498,4.7535,4.7774,4.8288,4.86,4.8765,4.8765,4.9591,5.0013,5.0013,5.0287,5.017,4.9775,4.9124,4.8572,4.3031,4.4012,4.4976,4.643,4.7361,4.8105,4.8781,4.8951,4.8731,4.802,4.7851,4.8071,4.8765,4.9543,5.0828,5.3078,5.5975,5.8345,5.9231,6.0679,6.1643,6.1629,6.1759,6.1465,6.0676,6.1318,6.1759,6.1722,6.1649,6.1942,6.2768,6.2805,6.2456,6.1686,6.1649,6.1282,6.0529,6.0493,6.0052,5.9208,5.8437,5.8033,5.7997,5.7997,5.7997,5.7997,5.7997,5.7997,5.7997,5.7997,5.7997,5.7923,5.7171,5.684,5.662,5.5097,5.4473,5.4246,5.3088,5.2604,5.2453,5.214,5.1717,5.1389,5.1751,5.1336,5.0721,5.0702,5.0702,5.0702,5.0702,5.0702,5.0683,5.0663,5.0377,5.0092,5.0043,4.9746,4.9445,4.9445,4.8757,4.8093,4.7774,4.7405,4.7443,4.8196,4.8306,4.7755,4.6214,4.6012,4.6324,4.7095,4.6489,4.6636,4.8177,4.7609,4.7498,4.8251,4.8343,4.8361,4.8361,4.9187,4.9646,4.9646,5.0453,5.0857,5.0817,5.0159,4.9865,4.9904,4.9199,4.8901,4.3166,4.4401,4.5635,4.6566,4.7361,4.797,4.8156,4.8189,4.7986,4.7225,4.7073,4.7141,4.7327,4.8849,5.0642,5.2334,5.5664,5.8467,5.9878,6.1928,6.3065,6.2512,6.3544,6.4035,6.3227,6.3888,6.4108,6.3503,6.231,6.1942,6.2768,6.2805,6.2713,6.2511,6.2493,6.2401,6.2199,6.1594,6.0584,5.9208,5.9006,5.8584,5.7997,5.7997,5.7997,5.7997,5.7997,5.7997,5.7997,5.7997,5.7997,5.7978,5.7776,5.7336,5.6767,5.6345,5.5427,5.4344,5.4054,5.3304,5.2474,5.2393,5.2094,5.1699,5.1503,5.1295,5.1075,5.0777,5.0702,5.0702,5.0702,5.0702,5.0624,5.0336,5.0183,4.9949,4.9356,4.9139,4.8963,4.8657,4.8438,4.8272,4.8145,4.8051,4.8067,4.8269,4.8306,4.8159,4.7737,4.77,4.7774,4.7976,4.781,4.7847,4.8269,4.8122,4.8086,4.8306,4.8912,4.9242,4.9205,5.0031,5.049,5.049,5.1279,5.142,5.0877,5.1274,5.0945,4.9945,4.9795,4.9142,4.3724,4.479,4.5889,4.6616,4.7107,4.7428,4.7428,4.7428,4.7124,4.6041,4.6075,4.6312,4.6312,4.8122,5.0202,5.2012,5.5246,5.8239,6.048,6.2305,6.3484,6.3689,6.4949,6.5521,6.4695,6.5356,6.5503,6.4695,6.3429,6.2732,6.2805,6.2805,6.2805,6.2805,6.2805,6.2805,6.2805,6.1998,6.1153,6.0254,5.9557,5.8969,5.851,5.8162,5.7997,5.7997,5.7997,5.7997,5.7997,5.7997,5.7997,5.7997,5.7997,5.7721,5.7281,5.6932,5.6014,5.4876,5.4528,5.3686,5.2823,5.2996,5.2671,5.2156,5.2153,5.2015,5.1808,5.1599,5.1657,5.1702,5.1337,5.151,5.1507,5.0355,5.026,5.0127,4.9137,4.8744,4.8568,4.8326,4.8306,4.8306,4.8306,4.8306,4.8434,4.8802,4.8875,4.9003,4.9352,4.9095,4.8875,4.8875,4.8875,4.8875,4.8875,4.8526,4.8618,4.9352,4.9517,4.9738,5.005,5.0556,5.083,5.083,5.133,5.1416,5.0981,5.1111,5.0752,4.9976,4.9722,4.9138,4.4333,4.506,4.5737,4.6464,4.665,4.665,4.665,4.665,4.6244,4.4857,4.5094,4.5551,4.5551,4.7361,4.9593,5.1792,5.4685,5.7729,6.084,6.2083,6.3251,6.4921,6.5912,6.626,6.5687,6.6256,6.6274,6.5375,6.4659,6.3888,6.3025,6.2879,6.2805,6.2805,6.2805,6.2805,6.2805,6.2108,6.1704,6.1575,6.0089,5.9318,5.9189,5.8364,5.7997,5.7997,5.7997,5.7997,5.7997,5.7997,5.7997,5.7997,5.7997,5.7997,5.7923,5.7226,5.6381,5.5482,5.4803,5.3959,5.3272,5.3604,5.3219,5.266,5.3001,5.2851,5.2585,5.2596,5.2862,5.2948,5.224,5.2645,5.2715,5.0803,5.0589,5.0508,4.9396,4.8882,4.8636,4.8636,4.8545,4.8471,4.8471,4.8471,4.8728,4.9481,4.9682,5.0031,5.0857,5.0251,4.9738,4.9738,4.9738,4.9738,4.9738,4.9058,4.926,5.071,5.0233,5.0175,5.0771,5.0976,5.102,5.0908,5.1037,5.1034,5.0929,5.0297,4.9976,4.9879,4.9256,4.9001,4.4198,4.4671,4.4959,4.5703,4.5889,4.5889,4.5889,4.5889,4.5652,4.4756,4.4671,4.4773,4.4773,4.6599,4.8832,5.1048,5.394,5.6955,5.9899,6.1631,6.3221,6.4829,6.583,6.6656,6.723,6.7393,6.688,6.5411,6.5173,6.4751,6.3906,6.3191,6.2805,6.2805,6.2805,6.2805,6.2805,6.2677,6.2254,6.1575,6.0639,5.985,5.9189,5.8364,5.7997,5.7997,5.7997,0.0,5.7997,5.7997,5.7997,5.7997,5.7997,5.7997,5.7978,5.7831,5.6859,5.5574,5.5427,5.4436,5.3206,5.3254,5.3203,5.3009,5.2698,5.2578,5.2521,5.2596,5.2654,5.2752,5.2929,5.3087,5.2941,5.1897,5.1223,5.0736,5.0527,5.0441,5.038,5.038,4.9829,4.9352,4.9352,4.9352,4.9426,4.9554,5.016,5.0875,5.1683,5.1096,5.0582,5.0582,5.0582,5.0582,5.0582,5.0453,5.049,5.0784,5.1279,5.1365,5.0904,5.1527,5.164,5.1096,5.1067,5.0823,5.0185,5.0072,4.9722,4.9152,4.9046,4.9001,4.4136,4.4539,4.4717,4.5486,4.5703,4.5602,4.5213,4.5128,4.4908,4.413,4.4299,4.4587,4.4587,4.6413,4.8392,4.983,5.2249,5.5108,5.8473,6.0024,6.1881,6.4703,6.5842,6.6718,6.7615,6.7687,6.7375,6.6604,6.6164,6.5191,6.3503,6.3044,6.2805,6.2805,6.2805,6.2805,6.2805,6.2805,6.2622,6.2218,6.0988,6.0199,5.9795,5.8565,5.7997,5.7997,5.7997,5.7997,5.7997,5.7997,5.7997,5.7997,5.7997,5.7997,5.7997,5.7997,5.7244,5.6161,5.5739,5.4821,5.3775,5.3353,5.3206,5.3175,5.2942,5.3031,5.3179,5.3198,5.3388,5.3575,5.3541,5.3843,5.3823,5.2351,5.1396,5.0803,5.0812,5.0802,5.0802,5.0802,5.049,5.0215,5.0215,5.0215,5.0362,5.0784,5.1169,5.172,5.2527,5.2289,5.1903,5.1463,5.1426,5.1426,5.1426,5.1041,5.0991,5.1461,5.1435,5.1294,5.1021,5.1028,5.0858,5.0554,5.0202,4.9838,4.9462,4.9462,4.9299,4.9001,4.9001,4.9001,4.3685,4.4156,4.439,4.526,4.5466,4.5263,4.4502,4.4468,4.435,4.3589,4.4045,4.4587,4.4587,4.6278,4.797,4.8849,5.0862,5.3551,5.7154,5.8668,6.0764,6.4349,6.5734,6.6718,6.7615,6.7687,6.7614,6.7448,6.6531,6.5136,6.3191,6.2915,6.2805,6.2805,6.2805,6.2805,6.2805,6.2805,6.2713,6.2548,6.1098,6.0309,6.0107,5.8657,5.7997,5.7997,5.7997,5.7997,5.7997,5.7997,5.7997,5.7997,5.7997,5.7997,5.7997,5.7997,5.7483,5.6693,5.5868,5.506,5.4271,5.3463,5.3206,5.3206,5.3206,5.3422,5.3683,5.3777,5.4048,5.4301,5.4031,5.4438,5.4496,5.2567,5.1694,5.1279,5.1096,5.1187,5.1316,5.1316,5.1169,5.1059,5.1059,5.1059,5.1261,5.1885,5.2142,5.2491,5.3133,5.3206,5.2968,5.2325,5.2252,5.2252,5.2252,5.1683,5.1542,5.2087,5.1535,5.1065,5.0841,5.0297,4.9919,4.978,4.9256,4.9001,4.9001,4.9001,4.9001,4.9001,4.9001,4.9001,4.2278,4.2964,4.3602,4.4485,4.4671,4.4485,4.3707,4.4079,4.435,4.3589,4.4045,4.4587,4.4587,4.5855,4.7361,4.8781,5.0862,5.3382,5.6461,5.8892,6.1183,6.3713,6.5412,6.6718,6.7615,6.7687,6.7393,6.6659,6.5191,6.4218,6.398,6.3227,6.2805,6.2805,6.2805,6.2805,6.2805,6.2805,6.2438,6.1686,6.0823,6.0034,5.93,5.84,5.7997,5.7997,5.7997,5.7997,0.0,5.7997,5.7997,5.7997,5.7997,5.7997,5.7997,5.7997,5.7483,5.6693,5.5868,5.506,5.4271,5.3463,5.3206,5.3206,5.3206,5.3248,5.3318,5.3683,5.3851,5.3959,5.4326,5.451,5.4226,5.2891,5.2786,5.2784,5.205,5.2454,5.2986,5.2986,5.2399,5.1885,5.1885,5.1885,5.1903,5.1977,5.2619,5.3133,5.3206,5.3206,5.3188,5.3115,5.3096,5.3096,5.3096,5.3023,5.2729,5.2159,5.204,5.1405,5.0129,5.0033,4.9722,4.9107,4.9063,4.9001,4.9001,4.9001,4.9001,4.9001,4.9001,4.9001,4.1302,4.2032,4.2724,4.3621,4.4196,4.4502,4.4198,4.435,4.4485,4.4181,4.4367,4.4722,4.5179,4.6092,4.7141,4.8189,4.9458,5.1369,5.4397,5.6024,5.848,6.2751,6.4212,6.563,6.7523,6.7687,6.7357,6.6549,6.5007,6.409,6.409,6.3282,6.2805,6.2805,6.2805,6.2805,6.2805,6.2805,6.2401,6.1575,6.0786,5.9997,5.9189,5.8364,5.7997,5.7997,5.7997,5.7997,0.0,5.7997,5.7997,5.7997,5.7997,5.7997,5.7997,5.7997,5.7795,5.7409,5.6602,5.6106,5.5629,5.4344,5.4252,5.4454,5.35,5.3206,5.323,5.3381,5.3444,5.3545,5.396,5.4083,5.3973,5.3422,5.3283,5.3115,5.2803,5.2986,5.3206,5.3206,5.2949,5.2729,5.2729,5.2729,5.2729,5.2729,5.3004,5.3206,5.3206,5.3206,5.3206,5.3206,5.3206,5.3206,5.3206,5.3206,5.2725,5.1544,5.1494,5.0876,4.9462,4.9419,4.9256,4.9001,4.9001,4.9001,4.9001,4.9001,4.9001,4.9001,4.9001,4.9001,4.051,4.1293,4.2189,4.3108,4.3948,4.4519,4.4282,4.4418,4.4587,4.4587,4.4756,4.5145,4.5889,4.6633,4.731,4.7834,4.89,5.049,5.2841,5.4632,5.7202,6.1246,6.2871,6.4366,6.6423,6.6843,6.6751,6.62,6.4861,6.409,6.409,6.3282,6.2805,6.2805,6.2805,6.2805,6.2805,6.2805,6.2291,6.1245,6.0676,5.985,5.8841,5.8253,5.7997,5.7997,5.7997,5.7997,0.0,5.7997,5.7997,5.7997,5.7997,5.7997,5.7997,5.7997,5.7997,5.7886,5.7079,5.6804,5.6583,5.5207,5.5133,5.5335,5.3977,5.3555,5.3518,5.328,5.3206,5.3272,5.3545,5.3624,5.3624,5.3624,5.3422,5.3206,5.3206,5.3206,5.3206,5.3206,5.3206,5.3206,5.3206,5.3206,5.3206,5.3206,5.3206,5.3206,5.3206,5.3206,5.3103,5.2893,5.2875,5.2937,5.3164,5.2999,5.2353,5.1189,5.0876,5.0258,4.9063,4.9001,4.9001,4.9001,4.9001,4.9001,4.9001,4.9001,4.9001,4.9001,4.9001,4.9001,3.9902,4.0926,4.2189,4.3108,4.3948,4.4384,4.3606,4.4028,4.4587,4.4587,4.5179,4.5923,4.665,4.7394,4.7902,4.7919,4.9763,5.1471,5.2283,5.575,5.8438,5.9235,6.139,6.3172,6.4035,6.4861,6.5338,6.5319,6.4549,6.409,6.409,6.3282,6.2805,6.2805,6.2805,6.2805,6.2805,6.2805,6.2016,6.0419,6.0401,5.9557,5.8015,5.7997,5.7997,5.7997,5.7997,5.7997,0.0,5.7997,5.7997,5.7997,5.7997,5.7997,5.7997,5.7997,5.7997,5.7886,5.7079,5.6804,5.6675,5.5849,5.5574,5.5445,5.4638,5.4399,5.4216,5.3427,5.3206,5.3206,5.3206,5.3206,5.3206,5.3206,5.3206,5.3206,5.3206,5.3206,5.3206,5.3206,5.3206,5.3206,5.3206,5.3206,5.3206,5.3206,5.3206,5.3206,5.3206,5.3206,5.2937,5.2159,5.2112,5.2399,5.3164,5.2554,5.1808,5.1138,5.0407,4.9722,4.9001,4.9001,4.9001,4.9001,4.9001,4.9001,4.9001,4.9001,4.9001,4.9001,4.9001,4.9001,3.9301,4.0215,4.1406,4.1674,4.2779,4.3724,4.347,4.4012,4.4722,4.5246,4.5551,4.6092,4.7327,4.775,4.824,4.9238,4.9982,5.0879,5.2147,5.4748,5.7273,5.9136,6.2422,6.4622,6.4897,6.4659,6.4475,6.4475,6.3686,6.3209,6.3209,6.2438,6.2236,6.2787,6.2273,6.1979,6.1979,6.1429,6.0639,5.9593,5.9593,5.9043,5.7997,5.7997,5.7997,5.7997,5.7997,5.7997,5.7997,5.7997,5.7997,5.7997,5.7997,5.7997,5.7997,5.7997,5.7997,5.796,5.7703,5.7611,5.7483,5.6675,5.6785,5.6877,5.4987,5.4399,5.4234,5.3445,5.3206,5.3206,5.3206,5.3206,5.3206,5.3206,5.3206,5.3206,5.3206,5.3206,5.3206,5.3206,5.3206,5.3206,5.3206,5.3206,5.3206,5.3206,5.3206,5.3206,5.3206,5.2769,5.2381,5.2112,5.1692,5.1494,5.1728,5.1562,5.1138,5.039,5.0129,4.9722,4.9001,4.9001,4.9001,4.9001,4.9001,4.9001,4.9001,4.9001,4.9001,4.9001,4.9001,4.9001,3.9349,4.0066,4.1025,4.1025,4.2189,4.342,4.342,4.4012,4.4874,4.5906,4.6126,4.6566,4.8054,4.8342,4.8714,4.9898,5.0321,5.104,5.255,5.4737,5.7089,5.9472,6.2235,6.3906,6.3906,6.3723,6.3613,6.3613,6.3117,6.2677,6.2365,6.1869,6.1686,6.1906,6.141,6.1153,6.1153,6.0658,6.0015,5.9208,5.9208,5.8786,5.7997,5.7997,5.7997,5.7997,5.7997,5.7997,0.0,5.7997,5.7997,5.7997,5.7997,5.7997,5.7997,5.7997,5.7997,5.7997,5.7997,5.7997,5.7923,5.7428,5.7171,5.6748,5.495,5.4197,5.3849,5.3353,5.3206,5.3206,5.3206,5.3206,5.3206,5.3206,5.3206,5.3206,5.3206,5.3206,5.3206,5.3206,5.3206,5.3206,5.3206,5.3206,5.3206,5.3206,5.3206,5.3103,5.2831,5.2381,5.1904,5.1376,5.0911,5.0554,5.0314,5.0572,5.05,5.0033,4.9763,4.9419,4.9001,4.9001,4.9001,4.9001,4.9001,4.9001,4.9001,4.9001,4.9001,4.9001,4.9001,4.9001,0.0,4.04,4.1,4.1,4.2211,4.342,4.342,4.4062,0.0,4.6498,4.6836,4.7327,4.8815,4.9086,4.934,5.0118,5.0828,5.1843,5.3341,5.5584,5.7943,6.0292,6.1227,6.1686,6.1686,6.231,6.275,6.2805,6.2695,6.2346,6.163,6.1484,6.108,6.0346,6.0272,6.0272,6.0309,6.0272,5.985,5.9116,5.9116,5.8731,5.7997,5.7997,5.7997,5.7997,5.7997,5.7997,5.7997,5.7997,5.7997,5.7997,5.7997,5.7997,5.7997,5.7997,5.7997,5.7997,5.7997,5.7997,5.7997,5.7923,5.6822,5.5372,5.4638,5.3849,5.3206,5.3206,5.3206,5.3206,5.3206,5.3206,5.3206,5.3206,5.3206,5.3206,5.3206,5.3206,5.3206,5.3206,5.3206,5.3206,5.3206,5.3206,5.3206,5.3206,5.3206,5.2937,5.2271,5.2112,5.1544,5.0241,4.9976,4.9664,4.9046,4.9563,4.9919,4.9919,4.9359,4.9001,4.9001,4.9001,4.9001,4.9001,4.9001,4.9001,4.9001,4.9001,4.9001,4.9001,4.9001,4.9001,3.9284,0.0,4.116,4.116,4.2277,4.342,0.0,4.4468,4.5703,4.6599,4.7259,4.8105,4.956,4.983,5.027,5.1572,5.1928,5.2592,5.4102,5.6843,5.9582,6.1953,6.2401,6.253,6.253,6.2126,6.2144,6.2768,6.1667,6.1153,6.1575,6.0438,5.9685,5.9501,5.8877,5.8859,5.9501,5.8877,5.8474,5.829,5.829,5.818,5.7997,5.7997,5.7997,5.7997,5.7997,5.7997,5.7997,5.7997,5.7997,5.7997,5.7997,5.7997,5.7997,5.7997,5.7997,5.7997,5.7997,5.7997,5.7905,5.7281,5.5996,5.4638,5.4454,5.3849,5.3206,5.3206,5.3206,5.3206,5.3206,5.3206,5.3206,5.3206,5.3206,5.3206,5.3206,5.3206,5.3206,5.3206,5.3206,5.3206,5.3206,5.3206,5.3206,5.3206,5.3206,5.3164,5.2937,5.1988,5.1189,5.0876,4.9896,4.9152,4.9001,4.9152,4.9273,4.9273,4.9107,4.9001,4.9001,4.9001,4.9001,4.9001,4.9001,4.9001,4.9001,4.9001,4.9001,4.9001,4.9001,4.9001,3.9445,4.0792,4.2219,4.2219,4.3606,4.4959,4.4959,4.5618,4.6413,4.7158,4.7631,4.8359,4.9813,5.0084,5.0574,5.2063,5.23,5.3215,5.5855,5.8285,6.0391,6.204,6.2254,6.2108,0.0,6.13,6.1227,6.1686,6.0896,6.0438,6.0511,5.9685,5.9043,5.8676,5.8235,5.8217,5.8657,5.8217,5.7997,5.7997,5.7997,5.7997,5.7997,5.7997,5.7997,5.7997,5.7997,5.7997,5.7997,5.7997,5.7997,5.7997,5.7997,5.7997,5.7997,5.7997,5.7997,5.7997,5.7997,5.7758,5.7262,5.6088,5.5115,5.4326,5.3959,5.3555,5.3206,5.3206,5.3206,5.3206,5.3206,5.3206,5.3206,5.3206,5.3206,5.3206,5.3206,5.3206,5.3206,5.3206,5.3206,5.3206,5.3206,5.3206,5.3103,5.2769,5.2725,5.2445,5.1825,5.1086,5.0462,5.0146,4.9479,4.9001,4.9001,4.9001,4.9001,4.9001,4.9001,4.9001,4.9001,4.9001,4.9001,4.9001,4.9001,4.9001,4.9001,4.9001,4.9001,4.9001,4.9001,4.9001,4.0038,4.2038,4.3876,4.3656,4.5297,4.6938,4.6819,4.6887,4.7141,4.7784,4.8105,4.8663,5.0016,5.0355,5.0913,5.2418,5.2969,5.4362,5.7694,5.9488,6.0658,6.1337,6.141,0.0,6.0474,6.0291,6.0272,6.0401,6.0181,5.9795,5.9245,5.9098,5.8712,5.8015,5.7997,5.7997,5.7997,5.7997,5.7997,5.7997,5.7997,5.7997,5.7997,5.7997,5.7997,5.7997,5.7997,0.0,5.7997,5.7997,5.7997,5.7997,5.7997,5.7997,5.7997,5.7997,5.7997,5.7978,5.785,5.7207,5.6216,5.484,5.4326,5.4087,5.3427,5.3206,5.3206,5.3206,5.3206,5.3206,5.3206,5.3206,5.3206,5.3206,5.3206,5.3206,5.3206,5.3206,5.3206,5.3206,5.3206,5.3206,5.3206,5.3103,5.2831,5.2206,5.2,5.1544,5.0335,5.0072,4.9763,4.9212,4.9063,4.9001,4.9001,4.9001,4.9001,4.9001,4.9001,4.9001,4.9001,4.9001,4.9001,4.9001,4.9001,4.9001,4.9001,4.9001,4.9001,4.9001,4.9001,4.9001,4.0577,4.3552,4.5974,4.4722,4.6092,4.7581,4.6938,4.7293,4.7784,4.7902,4.89,5.0016,5.0879,5.1539,5.2469,5.3991,5.5894,5.7452,5.806,0.0,6.0456,6.0566,0.0,6.0548,6.0419,5.9795,5.9685,6.0346,5.9134,5.8621,5.9189,5.8547,5.8125,5.7997,5.7997,5.7997,5.7997,5.7997,5.7997,5.7997,5.7997,5.7997,5.7997,5.7997,5.7997,5.7997,0.0,5.7997,5.7997,5.7997,5.7997,5.7997,5.7997,5.7997,5.7997,5.7997,5.7997,5.7905,5.7226,5.6014,5.473,5.4473,5.394,5.3371,5.3243,5.3206,5.3206,5.3206,5.3206,5.3206,5.3206,5.3206,5.3206,5.3206,5.3206,5.3206,5.3206,5.3206,5.3206,5.3206,5.3206,5.3206,5.3206,5.2662,5.2224,5.2112,5.1593,5.1189,5.0981,5.0407,4.9976,4.9879,4.9359,4.9001,4.9001,4.9001,4.9001,4.9001,4.9001,4.9001,4.9001,4.9001,4.9001,4.9001,4.9001,4.9001,4.9001,4.9001,4.9001,4.9001,4.9001,4.9001,4.0636,4.3656,4.6227,4.6346,4.8359,5.0202,4.9847,4.9746,4.9695,4.9695,5.0236,5.093,5.1674,5.208,5.2807,5.4346,5.6171,5.7618,5.8043,5.9056,5.9758,0.0,0.0,5.9593,5.9153,5.8767,5.8712,5.9079,5.8419,5.8162,5.8529,5.8198,5.7997,5.7997,5.7997,5.7997,5.7997,5.7997,5.7997,5.7997,5.7997,5.7997,5.7997,5.7997,5.7997,5.7997,0.0,5.7997,5.7997,5.7997,5.7997,5.7997,5.7997,5.7997,5.7941,5.7519,5.7354,5.7171,5.5941,5.5023,5.4326,5.3904,5.35,5.3206,5.3206,5.3206,5.3206,5.3206,5.3206,5.3206,5.3206,5.3206,5.3206,5.3206,5.3206,5.3206,5.3206,5.3206,5.3206,5.3206,5.3206,5.3206,5.3206,5.2599,5.1952,5.1593,5.0981,5.0352,4.9993,4.9681,4.9462,4.9462,4.9152,4.9001,4.9001,4.9001,4.9001,4.9001,4.9001,4.9001,4.9001,4.9001,4.9001,4.9001,4.9001,4.9001,4.9001,4.9001,4.9001,4.9001,4.9001,4.9001,4.071,4.3232,4.5656,4.7858,5.0118,5.1877,5.2215,5.1606,5.1048,5.1403,5.1471,5.164,5.2198,5.2604,5.323,5.4397,5.6032,5.7352,5.7777,5.8639,5.9153,5.8951,5.8933,5.8694,5.8052,5.7997,5.7997,5.7997,5.7997,5.7997,5.7997,5.7997,5.7997,5.7997,5.7997,5.7997,5.7997,5.7997,5.7997,5.7997,5.7997,5.7997,5.7997,5.7997,5.7997,5.7997,5.7997,5.7997,5.7997,5.7997,5.7997,5.7997,5.7997,5.7886,5.7648,5.7042,5.6565,5.6069,5.484,5.4289,5.4014,5.3408,5.3206,5.3206,5.3206,5.3206,5.3206,5.3206,5.3206,5.3206,5.3206,5.3206,5.3206,5.3206,5.3206,5.3206,5.3206,5.3206,5.3206,5.3206,5.3206,5.3206,5.3206,5.2445,5.1692,5.1189,5.0352,4.9563,4.9046,4.9001,4.9001,4.9001,4.9001,4.9001,4.9001,4.9001,4.9001,4.9001,4.9001,4.9001,4.9001,4.9001,4.9001,4.9001,4.9001,4.9001,4.9001,4.9001,4.9001,4.9001,4.9001,4.9001,4.1132,4.2827,4.4577,4.8894,5.0084,5.0608,5.1995,5.12,5.0557,5.1944,5.2232,5.2249,5.2283,5.3467,5.4465,5.4566,5.6547,5.7777,5.7104,0.0,5.8933,5.818,5.8088,5.8052,5.7997,5.7997,5.7997,5.7997,5.7997,5.7997,5.7997,5.7997,5.7997,5.7997,5.7997,5.7997,5.7997,5.7997,5.7997,5.7997,5.7997,5.7997,5.7997,5.7997,5.7997,5.7997,5.7997,5.7997,5.7997,5.7997,5.7997,5.7997,5.7997,5.7538,5.6895,5.6822,5.5849,5.4564,5.4436,5.3922,5.3298,5.3225,5.3206,5.3206,5.3206,5.3206,5.3206,5.3206,5.3206,5.3206,5.3206,5.3206,5.3206,5.3206,5.3206,5.3206,5.3206,5.3206,5.3206,5.3206,5.3206,5.3206,5.3206,5.2083,5.1138,5.1086,4.9936,4.9046,4.9001,4.9001,4.9001,4.9001,4.9001,4.9001,4.9001,4.9001,4.9001,4.9001,4.9001,4.9001,4.9001,4.9001,4.9001,4.9001,4.9001,4.9001,4.9001,4.9001,4.9001,4.9001,4.9001,4.9001,4.0048,4.1945,4.4038,4.7816,4.9284,5.0259,5.1931,5.1877,5.1758,5.2841,5.3061,5.3061,5.3061,5.389,5.4583,5.4583,5.6119,5.7264,5.6963,5.7807,5.8345,5.8033,5.7997,5.7997,5.7997,5.7997,5.7997,5.7997,5.7997,5.7997,5.7997,5.7997,5.7997,5.7997,5.7997,5.7997,5.7997,5.7997,5.7997,5.7997,5.7997,5.7997,5.7997,5.7997,5.7997,5.7997,5.7997,5.7997,5.7997,5.7997,5.7997,5.7941,5.7446,5.7079,5.6693,5.5684,5.4932,5.4326,5.383,5.3463,5.3206,5.3206,5.3206,5.3206,5.3206,5.3206,5.3206,5.3206,5.3206,5.3206,5.3206,5.3206,5.3206,5.3206,5.3206,5.3206,5.3206,5.3206,5.3042,5.2599,5.2509,5.2399,5.1988,5.1086,5.0407,5.0497,4.9639,4.9001,4.9001,4.9001,4.9001,4.9001,4.9001,4.9001,4.9001,4.9001,4.9001,4.9001,4.9001,4.9001,4.9001,4.9001,4.9001,4.9001,4.9001,4.9001,4.9001,4.9001,4.9001,4.9001,4.9001,4.9001,3.9314,4.1213,4.3437,4.6932,4.8413,4.9606,5.1798,5.23,5.2587,5.3636,5.367,5.3501,5.3501,5.3907,5.4245,5.4245,5.5511,5.6538,5.6538,5.7373,5.7997,5.7997,5.7997,5.7997,5.7997,5.7997,5.7997,5.7997,5.7997,5.7997,5.7997,5.7997,5.7997,5.7997,5.7997,5.7997,5.7997,5.7997,5.7997,5.7997,5.7997,5.7997,5.7997,5.7997,5.7997,5.7997,5.7997,5.7997,5.7997,5.7997,5.7997,5.7923,5.7116,5.6657,5.6253,5.4895,5.4234,5.394,5.339,5.3206,5.3206,5.3206,5.3206,5.3206,5.3206,5.3206,5.3206,5.3206,5.3206,5.3206,5.3206,5.3206,5.3206,5.3206,5.3206,5.3206,5.3206,5.2999,5.2707,5.2224,5.1904,5.1643,5.1189,5.05,5.005,5.0085,4.9436,4.9001,4.9001,4.9001,4.9001,4.9001,4.9001,4.9001,4.9001,4.9001,4.9001,4.9001,4.9001,4.9001,4.9001,4.9001,4.9001,4.9001,4.9001,4.9001,4.9001,4.9001,4.9001,4.9001,4.9001,4.9001,3.9283,4.069,4.2629,4.6616,4.7605,4.8465,5.1579,5.23,5.2739,5.4262,5.4008,5.3501,5.3501,5.3501,5.3501,5.3501,5.4713,5.5706,5.5706,5.7029,5.7997,5.7997,5.7997,5.7997,5.7997,5.7997,5.7997,5.7997,5.7997,5.7997,5.7997,5.7997,5.7997,5.7997,5.7997,5.7997,5.7997,5.7997,5.7997,5.7997,5.7997,5.7997,5.7997,5.7997,5.7997,5.7997,5.7997,5.7997,5.7997,5.7997,5.7997,5.7905,5.7097,5.6308,5.5482,5.4693,5.3885,5.3206,5.3206,5.3206,5.3206,5.3206,5.3206,5.3206,5.3206,5.3206,5.3206,5.3206,5.3206,5.3206,5.3206,5.3206,5.3206,5.3206,5.3206,5.3206,5.3206,5.2599,5.2112,5.2112,5.1544,5.1086,5.1086,5.0445,4.9976,4.9976,4.9419,4.9001,4.9001,4.9001,4.9001,4.9001,4.9001,4.9001,4.9001,4.9001,4.9001,4.9001,4.9001,4.9001,4.9001,4.9001,4.9001,4.9001,4.9001,4.9001,4.9001,4.9001,4.9001,4.9001,4.9001,4.9001,3.8712,3.9857,4.1776,4.5864,4.7923,4.9502,5.1782,5.23,5.2587,5.3619,5.3653,5.3501,5.3501,5.3501,5.3501,5.3501,5.4328,5.5102,5.5649,5.6598,5.7401,5.795,5.7997,5.7997,5.7997,5.7997,5.7997,5.7997,5.7997,5.7997,5.7997,5.7997,5.7997,5.7997,5.7997,5.7997,5.7997,5.7997,5.7997,5.7997,5.7997,5.7997,5.7997,5.7997,5.7997,5.7997,5.7997,5.7997,5.7997,5.7997,5.7666,5.7079,5.6271,5.5464,5.4656,5.3849,5.3408,5.3206,5.3206,5.3206,5.3206,5.3206,5.3206,5.3206,5.3206,5.3206,5.3206,5.3206,5.3206,5.3206,5.3206,5.3206,5.3206,5.3206,5.3206,5.3206,5.3206,5.2599,5.1952,5.1494,5.0823,5.0202,4.9681,4.9419,4.9316,4.9316,4.9107,4.9001,4.9001,4.9001,4.9001,4.9001,4.9001,4.9001,4.9001,4.9001,4.9001,4.9001,4.9001,4.9001,4.9001,4.9001,4.9001,4.9001,4.9001,4.9001,4.9001,4.9001,4.9001,4.9001,4.9001,4.9001,3.9497,4.0852,4.2698,4.5897,4.7706,4.9389,5.1636,5.2472,5.2909,5.3399,5.3501,5.3501,5.3501,5.3501,5.3501,5.3501,5.4391,5.5203,5.5649,5.6632,5.7498,5.795,5.7997,5.7997,5.7997,5.7997,5.7997,5.7997,5.7997,5.7997,5.7997,5.7997,5.7997,5.7997,5.7997,5.7997,5.7997,5.7997,5.7997,5.7997,5.7997,5.7997,5.7997,5.7997,5.7997,5.7997,5.7997,5.7997,5.7978,5.7666,5.7244,5.6693,5.5556,5.4821,5.4308,5.35,5.3206,5.3206,5.3206,5.3206,5.3206,5.3206,5.3206,5.3206,5.3206,5.3206,5.3206,5.3206,5.3206,5.3206,5.3206,5.298,5.2769,5.2769,5.2769,5.2662,5.2417,5.1777,5.112,5.077,5.009,4.9462,4.9046,4.9001,4.9001,4.9001,4.9001,4.9001,4.9001,4.9001,4.9001,4.9001,4.9001,4.9001,4.9001,4.9001,4.9001,4.9001,4.9001,4.9001,4.9001,4.9001,4.9001,4.9001,4.9001,4.9001,4.9001,4.9001,4.9001,4.9001,4.9001,4.9001,4.0876,4.2641,4.4544,4.6468,4.7511,4.8828,5.1304,5.2714,5.3501,5.3501,5.3501,5.3501,5.3501,5.3501,5.3501,5.3501,5.4668,5.5592,5.5706,5.696,5.7932,5.7997,5.7997,5.7997,5.7997,5.7997,5.7997,5.7997,5.7997,5.7997,5.7997,5.7997,5.796,5.7886,5.7886,5.785,5.7776,5.7776,5.7776,5.7776,5.7776,5.7776,5.7776,5.7923,5.7997,5.7997,5.7923,5.7886,5.7831,5.7024,5.6657,5.6436,5.4968,5.4363,5.4197,5.3482,5.3206,5.3206,5.3206,5.3206,5.3206,5.3206,5.3206,5.3206,5.3206,5.3206,5.3206,5.3206,5.3206,5.3164,5.3103,5.2599,5.2065,5.1952,5.1952,5.1856,5.1241,5.05,4.9976,4.9976,4.9462,4.9001,4.9001,4.9001,4.9001,4.9001,4.9001,4.9001,4.9001,4.9001,4.9001,4.9001,4.9001,4.9001,4.9001,4.9001,4.9001,4.9001,4.9001,4.9001,4.9001,4.9001,4.9001,4.9001,4.9001,4.9001,4.9001,4.9001,4.9001,4.9001,4.9001,4.9001,3.9768,4.128,4.3479,4.6221,4.9002,5.1182,5.1727,5.2714,5.3501,5.3501,5.3501,5.3501,5.3501,5.3501,5.3501,5.3501,5.4264,5.5042,5.5592,5.6527,5.7351,5.7932,5.7997,5.7997,5.7997,5.7997,5.7997,5.7997,5.7997,5.7997,5.7997,5.7997,5.7703,5.7079,5.706,5.6748,5.6106,5.6106,5.6106,5.6106,5.6106,5.6106,5.6143,5.7409,5.7997,5.796,5.7336,5.706,5.7005,5.618,5.5482,5.4876,5.4546,5.4014,5.3445,5.328,5.3206,5.3206,5.3206,5.3206,5.3206,5.3206,5.3206,5.3206,5.3206,5.3206,5.3206,5.3206,5.3206,5.306,5.249,5.2224,5.179,5.0699,5.0858,5.1292,5.1138,5.05,4.9976,4.9976,4.9462,4.9001,4.9001,4.9001,4.9001,4.9001,4.9001,4.9001,4.9001,4.9001,4.9001,4.9001,4.9001,4.9001,4.9001,4.9001,4.9001,4.9001,4.9001,4.9001,4.9001,4.9001,4.9001,4.9001,4.9001,4.9001,4.9001,4.9001,4.9001,4.9001,4.9001,4.9001,4.0098,4.1788,4.3923,4.6452,4.9158,5.1155,5.1155,5.24,5.3501,5.3501,5.3501,5.3501,5.3501,5.3501,5.3501,5.3501,5.3798,5.4338,5.5005,5.549,5.6042,5.6795,5.7189,5.7428,5.7428,5.7776,5.7997,5.7997,5.7997,5.7831,5.7446,5.7428,5.706,5.6253,5.6235,5.6014,5.5592,5.5592,5.5592,5.5592,5.5592,5.5592,5.5611,5.6455,5.684,5.6822,5.64,5.6235,5.6161,5.5354,5.4785,5.4363,5.3977,5.3573,5.3206,5.3206,5.3206,5.3206,5.3206,5.3206,5.3206,5.3206,5.3206,5.3206,5.3206,5.3206,5.3206,5.3206,5.3206,5.3042,5.2271,5.1856,5.1343,5.0241,5.0297,5.0517,5.0146,4.978,4.9504,4.9504,4.9256,4.9001,4.9001,4.9001,4.9001,4.9001,4.9001,4.9001,4.9001,4.9001,4.9001,4.9001,4.9001,4.9001,4.9001,4.9001,4.9001,4.9001,4.9001,4.9001,4.9001,4.9001,4.9001,4.9001,4.9001,4.9001,4.9001,4.9001,4.8904,4.8807,4.8456,4.8279,4.0382,4.2551,4.4766,4.6666,4.8763,5.0397,5.0397,5.2026,5.3501,5.3501,5.3501,5.3501,5.3501,5.3501,5.345,5.3315,5.3386,5.3652,5.4059,5.4277,5.4647,5.5332,5.6026,5.6447,5.6602,5.7189,5.7574,5.7574,5.7574,5.7299,5.6638,5.6602,5.6216,5.5409,5.5372,5.5317,5.5188,5.5188,5.5188,5.5188,5.5188,5.5188,5.5188,5.5188,5.5335,5.5574,5.5445,5.5372,5.5317,5.4528,5.4197,5.4124,5.3463,5.3206,5.3206,5.3206,5.3206,5.3206,5.3206,5.3206,5.3206,5.3206,5.3206,5.3206,5.3206,5.3206,5.3164,5.306,5.2999,5.2831,5.1952,5.1343,5.0716,4.9976,4.9821,4.9664,4.9107,4.9001,4.9001,4.9001,4.9001,4.9001,4.9001,4.9001,4.9001,4.9001,4.9001,4.9001,4.9001,4.9001,4.9001,4.9001,4.9001,4.9001,4.9001,4.9001,4.9001,4.9001,4.8861,4.8861,4.9001,4.8861,4.8861,4.9001,4.8861,4.8861,4.9001,4.8791,4.866,4.8592,4.7964,4.7582,3.8556,4.1489,4.4661,4.6097,4.8422,5.0397,5.0397,5.2026,5.3501,5.3501,5.3501,5.3501,5.3501,5.3501,5.3281,5.257,5.3026,5.3298,5.274,5.3274,5.3919,5.4647,5.4804,5.5134,5.5695,5.5849,5.5904,5.5904,5.5904,5.5868,5.5757,5.5757,5.539,5.4583,5.4564,5.4234,5.3537,5.3537,5.3537,5.3537,5.3537,5.3537,5.3537,5.3537,5.4289,5.5556,5.4858,5.4564,5.4491,5.3702,5.3371,5.3353,5.3243,5.3206,5.3206,5.3206,5.3206,5.3206,5.3206,5.3206,5.3206,5.3206,5.3206,5.3206,5.3206,5.3206,5.306,5.2445,5.2224,5.1952,5.0591,5.0241,4.9993,4.9316,4.9107,4.9107,4.9001,4.9001,4.9001,4.9001,4.9001,4.9001,4.9001,4.9001,4.9001,4.9001,4.9001,4.9001,4.9001,4.9001,4.9001,4.9001,4.9001,4.9001,4.9001,4.9001,4.9001,4.9001,4.8225,4.8144,4.894,4.8225,4.8161,4.9001,4.8225,4.8161,4.9001,4.7961,4.7804,4.8608,4.8175,4.8029,3.9484,4.1609,4.3718,4.5813,4.7594,4.8954,4.8954,5.0554,5.1894,5.1477,5.185,5.235,5.2756,5.2503,5.2114,5.1758,5.1622,5.1648,5.1706,5.1643,5.1844,5.2547,5.336,5.399,5.429,5.5084,5.5592,5.5592,5.5592,5.539,5.495,5.4932,5.4564,5.3757,5.3739,5.3573,5.3206,5.3206,5.3206,5.3206,5.3206,5.3206,5.3206,5.3206,5.3592,5.4234,5.3885,5.3739,5.3702,5.3353,5.3206,5.3206,5.3206,5.3206,5.3206,5.3206,5.3206,5.3206,5.3206,5.3206,5.3206,5.3206,5.3206,5.3133,5.2656,5.2571,5.24,5.1636,5.1467,5.1292,5.0297,4.9976,4.9821,4.9152,4.9001,4.9001,4.9001,4.9001,4.9001,4.9001,4.9001,4.9001,4.9001,4.9001,4.9001,4.9001,4.9001,4.9001,4.9001,4.9001,4.9001,4.9001,4.9001,4.9001,4.9001,4.9001,4.9001,4.9001,4.8576,4.8576,4.9001,4.8576,4.8576,4.9001,4.8576,4.8576,4.9001,4.8893,4.8744,4.8608,4.849,4.8126,3.9619,4.098,4.2207,4.4691,4.6306,4.7417,4.7809,4.9277,5.0459,5.0222,5.0542,5.1099,5.164,5.1454,5.115,5.0963,5.0456,5.0249,5.0574,5.0142,5.0033,5.0716,5.1943,5.2816,5.2979,5.4173,5.4987,5.4987,5.4987,5.473,5.4124,5.4106,5.383,5.3225,5.3206,5.3206,5.3206,5.3206,5.3206,5.3206,5.3004,5.2913,5.2894,5.2692,5.2601,5.2619,5.3023,5.3206,5.3206,5.3206,5.3206,5.3206,5.3206,5.3206,5.3206,5.3206,5.3206,5.3206,5.3206,5.3206,5.3206,5.3206,5.3206,5.3059,5.2234,5.1923,5.1643,5.0664,5.0453,5.0364,4.9642,4.9642,4.9622,4.9107,4.9001,4.9001,4.9001,4.9001,4.9001,4.9001,4.9001,4.9001,4.9001,4.9001,4.9001,4.9001,4.9001,4.9001,4.9001,4.9001,4.9001,4.9001,4.9001,4.9001,4.9001,4.9001,4.9001,4.9001,4.8798,4.8719,4.9001,4.8781,4.8798,4.9001,4.9001,4.9001,4.9001,4.9234,4.9094,4.8592,4.8567,4.802,3.724,3.8571,4.0053,4.2073,4.4296,4.6358,4.7893,4.906,5.0071,5.0924,5.0642,5.0152,5.0202,5.076,5.098,5.027,5.0118,4.9847,4.9215,4.908,4.9316,4.9976,5.0751,5.1447,5.2119,5.2878,5.3335,5.3335,5.3335,5.3316,5.328,5.328,5.3243,5.3206,5.3206,5.3206,5.3206,5.3206,5.3206,5.3206,5.2435,5.205,5.2032,5.1261,5.093,5.1022,5.2546,5.3206,5.3206,5.3206,5.3206,5.3206,5.3206,5.3206,5.3206,5.3206,5.3206,5.3206,5.3206,5.3206,5.3206,5.3206,5.3206,5.3059,5.2234,5.1584,5.0767,4.9297,4.8977,4.8847,4.8158,4.8538,4.9046,4.9001,4.9001,4.9001,4.9001,4.9001,4.9001,4.9001,4.9001,4.9001,4.9001,4.9001,4.9001,4.9001,4.9001,4.9001,4.9001,4.9001,4.9001,4.9001,4.9001,4.9001,4.9001,4.9001,4.9001,4.9001,4.8144,4.808,4.894,4.8161,4.808,4.9001,4.9001,4.9001,4.9001,4.7907,4.7761,4.8608,4.8264,4.7609,3.6941,3.816,3.9268,4.074,4.2467,4.4006,4.5175,4.6462,4.7785,4.8713,4.9147,4.939,4.939,4.961,4.9712,4.9441,4.939,4.9306,4.9035,4.9001,4.9107,4.9299,5.0407,5.1189,5.1444,5.2509,5.3206,5.3206,5.3206,5.3206,5.3206,5.3206,5.3206,5.3206,5.3206,5.3206,5.3206,5.2692,5.2435,5.2417,5.161,5.1224,5.1224,5.093,5.0802,5.0839,5.1408,5.1665,5.1665,5.1665,5.1958,5.2435,5.2435,5.2747,5.3206,5.3206,5.3206,5.3206,5.3206,5.3206,5.3206,5.3206,5.3206,5.3059,5.2234,5.1868,5.1315,4.9337,4.917,4.9361,4.8184,4.846,4.9001,4.9001,4.9001,4.9001,4.9001,4.9001,4.9001,4.9001,4.9001,4.9001,4.9001,4.9001,4.9001,4.9001,4.9001,4.9001,4.9001,4.9001,4.9001,4.9001,4.9001,4.9001,4.9001,4.9001,4.9001,4.9001,4.8656,4.8656,4.9001,4.808,4.7737,4.808,4.7523,4.7523,4.808,4.8128,4.7798,4.7066,4.7421,4.7139,3.6357,0.0,0.0,3.9813,4.0644,4.1669,4.3835,4.475,4.5672,4.734,4.8224,4.8714,4.8951,4.9001,4.9001,4.9001,4.9001,4.9001,4.9001,4.9001,4.9001,4.9001,5.0033,5.0823,5.1086,5.2149,5.2937,5.3164,5.3206,5.3206,5.3206,5.3206,5.3206,5.3206,5.3206,5.3078,5.2803,5.227,5.1848,5.1591,5.0765,5.038,5.038,5.0086,4.9958,4.9958,4.9958,5.0288,5.0802,5.0802,5.1114,5.161,5.1885,5.2325,5.2839,5.3115,5.3206,5.3206,5.3206,5.3206,5.317,5.2894,5.2986,5.3004,5.1922,5.1668,5.1333,4.9337,4.9188,4.9378,4.8184,4.846,4.9001,4.9001,4.9001,4.9001,4.9001,4.9001,4.9001,4.9001,4.9001,4.9001,4.9001,4.9001,4.9001,4.9001,4.9001,4.9001,4.9001,4.9001,4.9001,4.9001,4.9001,4.9001,4.9001,4.9001,4.8861,4.8576,4.8513,4.8513,4.8513,4.7655,4.7456,4.808,4.6815,4.6523,4.7155,4.7645,4.7286,4.6189,4.674,4.6494,0.0,0.0,0.0,0.0,3.9032,3.9604,4.422,4.4107,4.3961,4.7133,4.7791,4.8027,4.8832,4.8968,4.8984,4.9001,4.9001,4.9001,4.9001,4.9001,4.9001,4.9001,4.9563,5.0297,5.0981,5.171,5.2381,5.3103,5.3164,5.3164,5.3206,5.3206,5.3206,5.3206,5.3188,5.2803,5.1995,5.194,5.1536,5.0747,4.9884,4.9499,4.9517,4.8691,4.8306,4.8306,4.8306,4.9224,5.0729,5.0729,5.0747,5.0839,5.161,5.194,5.205,5.2876,5.317,5.317,5.317,5.3188,5.3078,5.2234,5.2527,5.2913,5.1238,5.0885,5.0731,4.9195,4.8837,4.8756,4.8065,4.846,4.8984,4.8951,4.8951,4.8968,4.8934,4.8934,4.8951,4.8968,4.8951,4.8934,4.8934,4.8951,4.8968,4.8968,4.8984,4.9001,4.9001,4.9001,4.9001,4.9001,4.9001,4.9001,4.9001,4.9001,4.8576,4.7721,4.7589,4.7589,4.7589,4.6678,4.7036,4.8861,4.7088,4.6103,4.6103,4.6173,4.6173,4.6103,4.6103,4.5634,3.5424,0.0,0.0,0.0,0.0,0.0,4.1091,4.1528,4.2298,4.4903,4.5419,4.6002,4.7848,4.8223,4.8392,4.8917,4.9001,4.9001,4.9001,4.9001,4.9001,4.9001,4.9563,5.0072,5.0297,5.0981,5.1661,5.2335,5.2381,5.2662,5.3164,5.3206,5.3206,5.3206,5.2637,5.2215,5.1995,5.0839,5.0123,4.9848,4.904,4.8636,4.8655,4.8416,4.8306,4.8306,4.8306,4.8563,4.9003,4.9003,4.9352,4.9939,5.016,5.0618,5.1224,5.2032,5.2325,5.2325,5.2325,5.2711,5.2986,5.1573,5.2068,5.281,5.0707,5.0859,5.1293,4.8783,4.8864,4.943,4.8201,4.846,4.8731,4.7665,4.7817,4.8071,4.7513,4.7411,4.7564,4.8105,4.7767,4.7411,4.7411,4.7851,4.8223,4.8223,4.8663,4.9001,4.9001,4.9001,4.9001,4.9001,4.9001,4.9001,4.9001,4.9001,4.8861,4.8656,4.8015,4.7589,4.7589,4.6064,4.5431,4.5921,4.4765,4.4113,4.4113,4.4856,4.4781,4.4113,4.4113,4.3974,3.5824,3.6275,0.0,3.7369,0.0,0.0,4.0081,4.0285,4.0768,4.3065,4.4062,4.5035,4.671,4.7242,4.7682,4.8426,4.8545,4.8663,4.8968,4.9001,4.9001,4.9001,4.9359,4.9664,4.9976,5.0407,5.0929,5.1643,5.1952,5.2445,5.3164,5.2894,5.2711,5.2711,5.1922,5.1334,5.0986,5.005,4.9389,4.8985,4.8526,4.8306,4.8306,4.8306,4.8306,4.8306,4.8306,4.8306,4.8306,4.8306,4.86,4.9077,4.9444,4.9884,5.0435,5.1573,5.1775,5.1591,5.227,5.238,5.205,5.1096,5.1444,5.187,5.0234,5.0633,5.1126,4.8889,4.8441,4.8494,4.7649,4.7767,4.7868,4.6989,4.7124,4.7327,4.6887,4.6549,4.6566,4.731,4.709,4.6786,4.6786,4.7158,4.7445,4.7445,4.7817,4.8088,4.8088,4.8088,4.8206,4.8528,4.8545,4.868,4.8984,4.8639,4.8225,4.7868,4.6968,4.64,4.64,4.5005,4.4586,4.5358,4.3974,4.3329,4.3329,4.3927,4.3849,4.3329,4.3329,4.3329,3.6276,3.66,0.0,3.8277,3.7831,0.0,4.0205,3.9894,3.9612,4.1617,4.3153,4.4395,4.5297,4.5974,4.6667,4.7428,4.7682,4.8071,4.8883,4.9001,4.9001,4.9001,4.9001,4.9256,4.9821,4.9879,5.0185,5.0929,5.1692,5.2445,5.3164,5.2435,5.1995,5.1995,5.1132,5.0306,4.9591,4.9481,4.9058,4.8306,4.8306,4.8306,4.8306,4.8306,4.8306,4.8306,4.8306,4.8306,4.8306,4.8306,4.8306,4.8379,4.9132,4.9444,4.9627,5.1151,5.1261,5.0875,5.2307,5.1995,5.0894,5.0618,5.071,5.0753,4.9828,5.0118,5.0498,4.9169,4.7849,4.6769,4.6684,4.6735,4.6752,4.6583,4.6616,4.665,4.6566,4.6041,4.5771,4.643,4.6549,4.6549,4.6549,4.6616,4.6667,4.6667,4.6735,4.6786,4.6786,4.6786,4.7056,4.7733,4.7868,4.8189,4.8832,4.8111,4.7239,4.6384,4.5358,4.4812,4.4812,4.3849,4.4113,4.5818,4.419,4.3329,4.3329,4.3329,4.3329,4.3329,4.3329,4.3329,3.6523,3.6562,3.6591,3.6971,3.8133,0.0,3.8589,3.9194,3.9982,4.0446,4.074,4.1549,4.3495,4.3978,4.4333,4.5111,4.6227,4.7479,4.8815,4.9001,4.9001,4.9001,4.9001,4.9063,4.9152,4.9212,4.9462,5.0185,5.1376,5.2445,5.3164,5.2435,5.1995,5.1995,5.0582,4.9738,4.9591,4.8893,4.8471,4.8306,4.8306,4.8306,4.8306,4.8306,4.8306,4.8306,4.8306,4.8306,4.8306,4.8306,4.8306,4.8324,4.8489,4.8545,4.8673,4.9627,4.9903,4.9866,5.0178,5.093,5.1444,4.9444,5.0141,5.1417,4.9401,4.9352,4.9625,4.833,4.7398,4.665,4.6075,4.6363,4.6481,4.5297,4.5466,4.5754,4.5145,4.4908,4.484,4.4976,4.501,4.501,4.501,4.5517,4.5923,4.5923,4.6413,4.6786,4.6786,4.6786,4.6853,4.7005,4.7564,4.797,4.8122,4.7828,4.7523,4.7306,4.5706,4.4812,4.4812,4.3849,4.3472,4.3834,4.3472,4.3329,4.3329,4.3329,4.3329,4.3329,4.3329,4.3329,3.6585,3.6583,3.6733,3.7541,0.0,0.0,0.0,3.9247,3.9523,3.9523,4.0109,4.0966,4.2115,4.2608,4.3098,4.3876,4.4959,4.594,4.6684,4.8071,4.9001,4.9001,4.9001,4.9001,4.9001,4.9001,4.9419,5.0445,5.0835,5.1441,5.254,5.1444,5.0784,5.0784,4.9591,4.8948,4.8948,4.8526,4.8306,4.8306,4.8306,4.8306,4.8306,4.8306,4.8306,4.8306,4.8306,4.8306,4.8306,4.8306,4.8306,4.8306,4.8306,4.8306,4.8398,4.9242,4.9297,4.9058,4.9903,5.0178,5.0013,4.9205,4.9499,4.9929,4.8894,4.8358,4.8017,4.7334,4.6439,4.5602,4.5246,4.5415,4.55,4.4756,4.4874,4.5043,4.4654,4.4587,4.4587,4.4587,4.4587,4.4587,4.4587,4.4891,4.5145,4.5145,4.5449,4.5686,4.5686,4.5686,4.5689,4.5594,4.5901,4.6146,4.6085,4.555,4.5346,4.5699,4.4417,4.3731,4.4066,4.3313,4.2701,4.2372,4.2357,4.2357,4.2357,4.2357,4.2521,4.2836,4.2521,4.2536,0.0,0.0,3.7018,0.0,0.0,3.8637,0.0,0.0,0.0,3.9172,4.0148,4.0984,4.0984,4.1457,4.2066,4.2675,4.3538,4.4147,4.4147,4.6447,4.8206,4.8359,4.8494,4.8578,4.8578,4.846,4.8939,5.0365,4.9833,5.0074,5.1493,5.0321,4.9591,4.9591,4.8746,4.8306,4.8306,4.8306,4.8306,4.8306,4.8306,4.8306,4.8306,4.8306,4.8306,4.8306,4.8306,4.8306,4.8306,4.8306,4.8306,4.8306,4.8306,4.8306,4.8398,4.9077,4.8893,4.8489,4.9848,4.9536,4.8636,4.9169,4.8985,4.8559,4.849,4.7684,4.6795,4.6639,4.5589,4.4587,4.4587,4.4587,4.4587,4.4587,4.4587,4.4587,4.4587,4.4587,4.4587,4.4587,4.4587,4.4587,4.4587,4.4587,4.4587,4.4587,4.4587,4.4587,4.4587,4.4587,4.4545,4.4477,4.4417,4.4341,4.4235,4.3331,4.304,4.3583,4.2728,4.2402,4.2925,4.2447,4.1923,4.1384,4.1384,4.1384,4.1384,4.125,4.1534,4.2162,4.1624,4.1669,0.0,0.0,0.0,0.0,3.8278,0.0,0.0,0.0,4.0762,4.0104,0.0,4.0206,4.0206,0.0,0.0,4.0443,4.1627,4.2557,4.2557,4.4012,4.5331,4.6007,4.665,4.7039,4.7039,4.6464,4.6641,4.808,4.8043,4.8586,4.9947,4.9752,4.9591,4.9591,4.8746,4.8306,4.8306,4.8306,4.8306,4.8306,4.8306,4.8306,4.8306,4.8306,4.8306,4.8306,4.8306,4.8306,4.8306,4.8306,4.8306,4.8306,4.8306,4.8306,4.8324,4.8416,4.8398,4.8343,4.8526,4.8967,4.9334,4.8673,4.8893,4.9315,4.8559,4.7973,4.7395,4.6623,4.5511,4.4587,4.4587,4.4587,4.4587,4.4587,4.4587,4.4587,4.4587,4.4587,4.4587,4.4587,4.4587,4.4587,4.4587,4.4587,4.4587,4.4587,4.4587,4.4587,4.4587,4.4587,4.4604,4.4558,4.4497,4.4393,4.4414,4.3389,4.2838,4.2916,4.2045,4.1519,4.1594,4.1534,4.1459,4.1384,4.1384,4.1384,4.1384,4.0786,4.0846,4.1489,4.1414,4.1414,0.0,0.0,0.0,0.0,0.0,0.0,3.9048,0.0,3.9926,0.0,0.0,0.0,0.0,0.0,0.0,0.0,4.0967,4.1508,4.1068,4.2303,4.369,4.4908,4.5314,4.5669,4.6126,4.5889,4.63,4.7711,4.7289,4.7565,4.9045,4.8944,4.8838,4.8838,4.8489,4.8306,4.8306,4.8306,4.8306,4.8306,4.8306,4.8306,4.8306,4.8306,4.8306,4.8306,4.8306,4.8306,4.8306,4.8306,4.8306,4.8306,4.8306,4.8306,4.8306,4.8306,4.8306,4.8306,4.8306,4.8545,4.8783,4.8416,4.8312,4.827,4.7907,4.7142,4.6353,4.597,4.5267,4.4587,4.4587,4.4587,4.4587,4.4587,4.4587,4.4587,4.4587,4.4587,4.4587,4.4587,4.4587,4.4587,4.4587,4.4587,4.4587,4.4587,4.4587,4.4587,4.4587,4.4587,4.4384,4.3873,4.3827,4.335,4.2364,4.1836,4.1518,4.1389,4.137,4.1205,4.0831,4.0816,4.0636,4.0247,4.0247,4.0247,4.0247,3.9963,3.9963,4.0247,4.0247,4.0442,3.5639,0.0,0.0,0.0,0.0,0.0,0.0,0.0,0.0,0.0,0.0,0.0,0.0,0.0,0.0,0.0,0.0,4.0696,4.0155,4.1001,4.2185,4.3504,4.3826,4.4164,4.4722,4.4587,4.5048,4.647,4.6087,4.6422,4.7913,4.8207,4.8306,4.8306,4.8306,4.8306,4.8306,4.8306,4.8306,4.8306,4.8306,4.8306,4.8306,4.8306,4.8306,4.8306,4.8306,4.8306,4.8306,4.8306,4.8306,4.8306,4.8306,4.8306,4.8306,4.8306,4.8306,4.8306,4.8306,4.8306,4.8267,4.8132,4.7756,4.7385,4.7194,4.6353,4.5511,4.5511,4.5052,4.4587,4.4587,4.4587,4.4587,4.4587,4.4587,4.4587,4.4587,4.4587,4.4587,4.4587,4.4587,4.4587,4.4587,4.4587,4.4587,4.4587,4.4587,4.4587,4.4587,4.4587,4.4384,4.3739,4.3426,4.2785,4.1528,4.0946,4.0523,4.0171,4.0576,4.0621,4.0157,4.0127,3.9903,3.9424,3.9424,3.9424,3.9424,3.9424,3.9424,3.9424,3.9424,3.9679,0.0,0.0,0.0,3.5749,0.0,0.0,0.0,0.0,3.9139,0.0,0.0,0.0,0.0,0.0,0.0,0.0,0.0,0.0,0.0,4.0121,4.0443,4.1221,4.1931,4.2371,4.2405,4.1762,4.1965,4.3403,4.4004,4.4901,4.6377,4.7614,4.8306,4.8306,4.8306,4.8306,4.8306,4.8306,4.8306,4.8306,4.8306,4.8306,4.8306,4.8306,4.8306,4.8306,4.8306,4.8306,4.8306,4.8306,4.8306,4.8306,4.8306,4.8306,4.8306,4.8306,4.8306,4.8306,4.8306,4.8306,4.821,4.7614,4.7428,4.7281,4.6618,4.6014,4.5511,4.5511,4.5052,4.4587,4.4587,4.4587,4.4587,4.4587,4.4587,4.4587,4.4587,4.4587,4.4587,4.4587,4.4587,4.4587,4.4587,4.4587,4.4587,4.4587,4.4587,4.4587,4.4587,4.4587,4.4587,4.457,4.3814,4.3306,4.3246,4.1674,4.0309,3.9511,3.9469,3.9469,3.9454,3.9454,3.9439,3.9424,3.9424,3.9424,3.9424,3.9424,3.9424,3.9424,3.9424,3.9424,0.0,0.0,3.5789,3.5564,0.0,0.0,0.0,0.0,0.0,0.0,0.0,0.0,0.0,0.0,0.0,0.0,0.0,0.0,0.0,0.0,4.0172,4.0426,4.1119,4.1576,4.1576,4.1356,4.161,4.2591,4.3232,4.422,4.5599,4.6949,4.7897,4.8306,4.8306,4.8306,4.8306,4.8306,4.8306,4.8306,4.8306,4.8306,4.8288,4.7755,4.781,4.8269,4.7755,4.7829,4.8306,4.8306,4.8306,4.8306,4.8306,4.8306,4.8306,4.8306,4.8306,4.8306,4.8306,4.8306,4.8267,4.8075,4.7428,4.671,4.6478,4.5681,4.4906,4.4906,4.4776,4.4587,4.4587,4.4587,4.4587,4.4587,4.4587,4.4587,4.4587,4.4587,4.4587,4.4587,4.4587,4.4587,4.4587,4.4587,4.4587,4.4587,4.4587,4.4587,4.4587,4.4587,4.4587,4.4587,4.3814,4.3047,4.252,4.0826,3.9737,3.9409,3.9424,3.9424,3.9424,3.9424,3.9424,3.9424,3.9424,3.9424,3.9424,3.9424,3.9424,3.9424,3.9424,3.9424,3.5504,3.5504,0.0,3.5504,3.5504,0.0,3.6446,0.0,3.6948,0.0,0.0,0.0,0.0,0.0,0.0,0.0,0.0,0.0,0.0,4.007,0.0,0.0,4.051,4.0798,4.0798,4.0798,4.1102,4.1847,4.2755,4.3798,4.4899,4.6525,4.7572,4.7977,4.8172,4.8306,4.8306,4.8306,4.8306,4.8306,4.8012,4.7884,4.7865,4.7058,4.6966,4.7425,4.6911,4.6985,4.7462,4.7462,4.7462,4.7462,4.7462,4.7462,4.7517,4.8104,4.8306,4.8306,4.8306,4.8306,4.821,4.7779,4.7088,4.6336,4.5865,4.5232,4.4587,4.4587,4.4587,4.4587,4.4587,4.4587,4.4587,4.4587,4.4587,4.4587,4.4587,4.4587,4.4587,4.4587,4.4587,4.4587,4.4587,4.4587,4.4587,4.4587,4.4587,4.4587,4.4587,4.4587,4.4514,4.4196,4.3621,4.2847,4.1674,4.0516,3.9737,3.9409,3.9424,3.9424,3.9424,3.9424,3.9424,3.9424,3.9424,3.9424,3.9424,3.9424,3.9424,3.9424,3.9424,3.9424]}]]